<?xml version="1.0" encoding="UTF-8" standalone="no" ?>
<gpx xmlns="http://www.topografix.com/GPX/1/1" xmlns:xsi="http://www.w3.org/2001/XMLSchema-instance" xsi:schemaLocation="http://www.topografix.com/GPX/1/1 http://www.topografix.com/GPX/1/1/gpx.xsd" version="1.1" creator="VisuGPX - https://www.visugpx.com">
  <metadata>
    <name>L'Etang d'Esparver et le Lac d'Aude autour du Lac des Bouillouses </name>
    <desc><![CDATA[L'Etang d'Esparver et le Lac d'Aude autour du Lac des Bouillouses ]]></desc>
  </metadata>
  <trk>
    <name><![CDATA[2019-07-31 12-04]]></name>
    <trkseg>
      <trkpt lat="42.55665" lon="2.0135">
        <ele>1954</ele>
        <time>2019-07-31T10:04:57Z</time>
      </trkpt>
      <trkpt lat="42.55662" lon="2.01357">
        <ele>1958.2</ele>
        <time>2019-07-31T10:05:02Z</time>
      </trkpt>
      <trkpt lat="42.55661" lon="2.01365">
        <ele>1957.6</ele>
        <time>2019-07-31T10:05:07Z</time>
      </trkpt>
      <trkpt lat="42.55658" lon="2.01376">
        <ele>1960.6</ele>
        <time>2019-07-31T10:05:12Z</time>
      </trkpt>
      <trkpt lat="42.55656" lon="2.01388">
        <ele>1967.4</ele>
        <time>2019-07-31T10:05:17Z</time>
      </trkpt>
      <trkpt lat="42.55655" lon="2.01397">
        <ele>1969.8</ele>
        <time>2019-07-31T10:05:22Z</time>
      </trkpt>
      <trkpt lat="42.55655" lon="2.01401">
        <ele>1974</ele>
        <time>2019-07-31T10:05:27Z</time>
      </trkpt>
      <trkpt lat="42.55654" lon="2.01407">
        <ele>1977</ele>
        <time>2019-07-31T10:05:32Z</time>
      </trkpt>
      <trkpt lat="42.55651" lon="2.01412">
        <ele>1976.8</ele>
        <time>2019-07-31T10:05:37Z</time>
      </trkpt>
      <trkpt lat="42.5565" lon="2.01414">
        <ele>1976</ele>
        <time>2019-07-31T10:05:42Z</time>
      </trkpt>
      <trkpt lat="42.55652" lon="2.01424">
        <ele>1974.6</ele>
        <time>2019-07-31T10:05:47Z</time>
      </trkpt>
      <trkpt lat="42.55653" lon="2.01435">
        <ele>1969.6</ele>
        <time>2019-07-31T10:05:52Z</time>
      </trkpt>
      <trkpt lat="42.55652" lon="2.01444">
        <ele>1970.8</ele>
        <time>2019-07-31T10:05:57Z</time>
      </trkpt>
      <trkpt lat="42.55652" lon="2.01453">
        <ele>1970.6</ele>
        <time>2019-07-31T10:06:02Z</time>
      </trkpt>
      <trkpt lat="42.55652" lon="2.01463">
        <ele>1973.4</ele>
        <time>2019-07-31T10:06:07Z</time>
      </trkpt>
      <trkpt lat="42.55653" lon="2.01474">
        <ele>1971</ele>
        <time>2019-07-31T10:06:12Z</time>
      </trkpt>
      <trkpt lat="42.55654" lon="2.01485">
        <ele>1970.6</ele>
        <time>2019-07-31T10:06:17Z</time>
      </trkpt>
      <trkpt lat="42.55656" lon="2.01495">
        <ele>1969.2</ele>
        <time>2019-07-31T10:06:22Z</time>
      </trkpt>
      <trkpt lat="42.55657" lon="2.01504">
        <ele>1969</ele>
        <time>2019-07-31T10:06:27Z</time>
      </trkpt>
      <trkpt lat="42.55659" lon="2.01514">
        <ele>1972</ele>
        <time>2019-07-31T10:06:32Z</time>
      </trkpt>
      <trkpt lat="42.55663" lon="2.01522">
        <ele>1969.4</ele>
        <time>2019-07-31T10:06:37Z</time>
      </trkpt>
      <trkpt lat="42.55669" lon="2.01531">
        <ele>1970.8</ele>
        <time>2019-07-31T10:06:42Z</time>
      </trkpt>
      <trkpt lat="42.55674" lon="2.01538">
        <ele>1969.4</ele>
        <time>2019-07-31T10:06:47Z</time>
      </trkpt>
      <trkpt lat="42.55679" lon="2.01543">
        <ele>1970</ele>
        <time>2019-07-31T10:06:52Z</time>
      </trkpt>
      <trkpt lat="42.55683" lon="2.01546">
        <ele>1968.8</ele>
        <time>2019-07-31T10:06:57Z</time>
      </trkpt>
      <trkpt lat="42.55687" lon="2.01549">
        <ele>1968.2</ele>
        <time>2019-07-31T10:07:02Z</time>
      </trkpt>
      <trkpt lat="42.55692" lon="2.01553">
        <ele>1965</ele>
        <time>2019-07-31T10:07:07Z</time>
      </trkpt>
      <trkpt lat="42.55693" lon="2.01554">
        <ele>1966</ele>
        <time>2019-07-31T10:07:12Z</time>
      </trkpt>
      <trkpt lat="42.55693" lon="2.01553">
        <ele>1961.4</ele>
        <time>2019-07-31T10:07:27Z</time>
      </trkpt>
      <trkpt lat="42.55695" lon="2.01557">
        <ele>1963.8</ele>
        <time>2019-07-31T10:07:32Z</time>
      </trkpt>
      <trkpt lat="42.55698" lon="2.01563">
        <ele>1962.4</ele>
        <time>2019-07-31T10:07:37Z</time>
      </trkpt>
      <trkpt lat="42.55702" lon="2.01567">
        <ele>1960.6</ele>
        <time>2019-07-31T10:07:42Z</time>
      </trkpt>
      <trkpt lat="42.55705" lon="2.0157">
        <ele>1959.4</ele>
        <time>2019-07-31T10:07:47Z</time>
      </trkpt>
      <trkpt lat="42.55709" lon="2.01575">
        <ele>1960.6</ele>
        <time>2019-07-31T10:07:52Z</time>
      </trkpt>
      <trkpt lat="42.55712" lon="2.0158">
        <ele>1959.6</ele>
        <time>2019-07-31T10:07:57Z</time>
      </trkpt>
      <trkpt lat="42.55717" lon="2.01584">
        <ele>1961.4</ele>
        <time>2019-07-31T10:08:02Z</time>
      </trkpt>
      <trkpt lat="42.55721" lon="2.0159">
        <ele>1964.6</ele>
        <time>2019-07-31T10:08:07Z</time>
      </trkpt>
      <trkpt lat="42.55725" lon="2.01596">
        <ele>1959.6</ele>
        <time>2019-07-31T10:08:12Z</time>
      </trkpt>
      <trkpt lat="42.55728" lon="2.01601">
        <ele>1959.2</ele>
        <time>2019-07-31T10:08:17Z</time>
      </trkpt>
      <trkpt lat="42.55732" lon="2.01609">
        <ele>1958</ele>
        <time>2019-07-31T10:08:22Z</time>
      </trkpt>
      <trkpt lat="42.55734" lon="2.01615">
        <ele>1954</ele>
        <time>2019-07-31T10:08:27Z</time>
      </trkpt>
      <trkpt lat="42.55738" lon="2.01621">
        <ele>1949.8</ele>
        <time>2019-07-31T10:08:32Z</time>
      </trkpt>
      <trkpt lat="42.55742" lon="2.01625">
        <ele>1951.2</ele>
        <time>2019-07-31T10:08:37Z</time>
      </trkpt>
      <trkpt lat="42.55747" lon="2.01629">
        <ele>1951.4</ele>
        <time>2019-07-31T10:08:42Z</time>
      </trkpt>
      <trkpt lat="42.55755" lon="2.01633">
        <ele>1950.8</ele>
        <time>2019-07-31T10:08:47Z</time>
      </trkpt>
      <trkpt lat="42.55762" lon="2.01634">
        <ele>1947.2</ele>
        <time>2019-07-31T10:08:52Z</time>
      </trkpt>
      <trkpt lat="42.55767" lon="2.01633">
        <ele>1945.6</ele>
        <time>2019-07-31T10:08:57Z</time>
      </trkpt>
      <trkpt lat="42.55772" lon="2.01633">
        <ele>1947.4</ele>
        <time>2019-07-31T10:09:02Z</time>
      </trkpt>
      <trkpt lat="42.55777" lon="2.01632">
        <ele>1945.8</ele>
        <time>2019-07-31T10:09:07Z</time>
      </trkpt>
      <trkpt lat="42.55782" lon="2.01634">
        <ele>1945.6</ele>
        <time>2019-07-31T10:09:12Z</time>
      </trkpt>
      <trkpt lat="42.55787" lon="2.01635">
        <ele>1944.4</ele>
        <time>2019-07-31T10:09:17Z</time>
      </trkpt>
      <trkpt lat="42.55792" lon="2.01635">
        <ele>1946.6</ele>
        <time>2019-07-31T10:09:22Z</time>
      </trkpt>
      <trkpt lat="42.55796" lon="2.01635">
        <ele>1944.2</ele>
        <time>2019-07-31T10:09:27Z</time>
      </trkpt>
      <trkpt lat="42.55801" lon="2.01637">
        <ele>1946.2</ele>
        <time>2019-07-31T10:09:32Z</time>
      </trkpt>
      <trkpt lat="42.55807" lon="2.01637">
        <ele>1944.8</ele>
        <time>2019-07-31T10:09:37Z</time>
      </trkpt>
      <trkpt lat="42.55812" lon="2.01639">
        <ele>1945.2</ele>
        <time>2019-07-31T10:09:42Z</time>
      </trkpt>
      <trkpt lat="42.55818" lon="2.0164">
        <ele>1945.2</ele>
        <time>2019-07-31T10:09:47Z</time>
      </trkpt>
      <trkpt lat="42.55824" lon="2.0164">
        <ele>1945.8</ele>
        <time>2019-07-31T10:09:52Z</time>
      </trkpt>
      <trkpt lat="42.55825" lon="2.01639">
        <ele>1944.8</ele>
        <time>2019-07-31T10:10:17Z</time>
      </trkpt>
      <trkpt lat="42.5583" lon="2.01637">
        <ele>1943.8</ele>
        <time>2019-07-31T10:10:22Z</time>
      </trkpt>
      <trkpt lat="42.55838" lon="2.01633">
        <ele>1942.6</ele>
        <time>2019-07-31T10:10:27Z</time>
      </trkpt>
      <trkpt lat="42.55845" lon="2.0163">
        <ele>1942</ele>
        <time>2019-07-31T10:10:32Z</time>
      </trkpt>
      <trkpt lat="42.55852" lon="2.01627">
        <ele>1942</ele>
        <time>2019-07-31T10:10:37Z</time>
      </trkpt>
      <trkpt lat="42.55858" lon="2.01625">
        <ele>1938.8</ele>
        <time>2019-07-31T10:10:42Z</time>
      </trkpt>
      <trkpt lat="42.55865" lon="2.01622">
        <ele>1941.2</ele>
        <time>2019-07-31T10:10:47Z</time>
      </trkpt>
      <trkpt lat="42.55871" lon="2.0162">
        <ele>1944.6</ele>
        <time>2019-07-31T10:10:52Z</time>
      </trkpt>
      <trkpt lat="42.55877" lon="2.01618">
        <ele>1939.6</ele>
        <time>2019-07-31T10:10:57Z</time>
      </trkpt>
      <trkpt lat="42.55884" lon="2.01613">
        <ele>1937.6</ele>
        <time>2019-07-31T10:11:02Z</time>
      </trkpt>
      <trkpt lat="42.55889" lon="2.01609">
        <ele>1940.4</ele>
        <time>2019-07-31T10:11:07Z</time>
      </trkpt>
      <trkpt lat="42.55894" lon="2.01606">
        <ele>1939</ele>
        <time>2019-07-31T10:11:12Z</time>
      </trkpt>
      <trkpt lat="42.559" lon="2.01605">
        <ele>1937.8</ele>
        <time>2019-07-31T10:11:17Z</time>
      </trkpt>
      <trkpt lat="42.55906" lon="2.01605">
        <ele>1937.4</ele>
        <time>2019-07-31T10:11:22Z</time>
      </trkpt>
      <trkpt lat="42.55911" lon="2.01608">
        <ele>1939.2</ele>
        <time>2019-07-31T10:11:27Z</time>
      </trkpt>
      <trkpt lat="42.55916" lon="2.01611">
        <ele>1938</ele>
        <time>2019-07-31T10:11:32Z</time>
      </trkpt>
      <trkpt lat="42.55921" lon="2.01616">
        <ele>1942.2</ele>
        <time>2019-07-31T10:11:37Z</time>
      </trkpt>
      <trkpt lat="42.55925" lon="2.01622">
        <ele>1943.2</ele>
        <time>2019-07-31T10:11:42Z</time>
      </trkpt>
      <trkpt lat="42.5593" lon="2.01627">
        <ele>1943.8</ele>
        <time>2019-07-31T10:11:47Z</time>
      </trkpt>
      <trkpt lat="42.55934" lon="2.01631">
        <ele>1943.4</ele>
        <time>2019-07-31T10:11:52Z</time>
      </trkpt>
      <trkpt lat="42.55939" lon="2.01635">
        <ele>1943.2</ele>
        <time>2019-07-31T10:11:57Z</time>
      </trkpt>
      <trkpt lat="42.55942" lon="2.0164">
        <ele>1946.4</ele>
        <time>2019-07-31T10:12:02Z</time>
      </trkpt>
      <trkpt lat="42.55945" lon="2.01646">
        <ele>1951.2</ele>
        <time>2019-07-31T10:12:07Z</time>
      </trkpt>
      <trkpt lat="42.55947" lon="2.01648">
        <ele>1947.6</ele>
        <time>2019-07-31T10:12:12Z</time>
      </trkpt>
      <trkpt lat="42.55951" lon="2.01654">
        <ele>1948.4</ele>
        <time>2019-07-31T10:12:17Z</time>
      </trkpt>
      <trkpt lat="42.55955" lon="2.0166">
        <ele>1948.8</ele>
        <time>2019-07-31T10:12:22Z</time>
      </trkpt>
      <trkpt lat="42.55958" lon="2.01667">
        <ele>1949.4</ele>
        <time>2019-07-31T10:12:27Z</time>
      </trkpt>
      <trkpt lat="42.5596" lon="2.01673">
        <ele>1950.6</ele>
        <time>2019-07-31T10:12:32Z</time>
      </trkpt>
      <trkpt lat="42.55961" lon="2.01681">
        <ele>1950.8</ele>
        <time>2019-07-31T10:12:37Z</time>
      </trkpt>
      <trkpt lat="42.55964" lon="2.01686">
        <ele>1949.4</ele>
        <time>2019-07-31T10:12:42Z</time>
      </trkpt>
      <trkpt lat="42.55965" lon="2.01693">
        <ele>1949</ele>
        <time>2019-07-31T10:12:47Z</time>
      </trkpt>
      <trkpt lat="42.55965" lon="2.01701">
        <ele>1947.8</ele>
        <time>2019-07-31T10:12:52Z</time>
      </trkpt>
      <trkpt lat="42.55967" lon="2.01707">
        <ele>1946.2</ele>
        <time>2019-07-31T10:12:57Z</time>
      </trkpt>
      <trkpt lat="42.55966" lon="2.01713">
        <ele>1945.8</ele>
        <time>2019-07-31T10:13:02Z</time>
      </trkpt>
      <trkpt lat="42.55966" lon="2.01721">
        <ele>1944.4</ele>
        <time>2019-07-31T10:13:07Z</time>
      </trkpt>
      <trkpt lat="42.55965" lon="2.01729">
        <ele>1943.4</ele>
        <time>2019-07-31T10:13:12Z</time>
      </trkpt>
      <trkpt lat="42.55965" lon="2.01732">
        <ele>1942.6</ele>
        <time>2019-07-31T10:13:17Z</time>
      </trkpt>
      <trkpt lat="42.55964" lon="2.01733">
        <ele>1940.6</ele>
        <time>2019-07-31T10:13:32Z</time>
      </trkpt>
      <trkpt lat="42.55964" lon="2.01733">
        <ele>1936</ele>
        <time>2019-07-31T10:13:52Z</time>
      </trkpt>
      <trkpt lat="42.55963" lon="2.01734">
        <ele>1935.6</ele>
        <time>2019-07-31T10:13:57Z</time>
      </trkpt>
      <trkpt lat="42.55963" lon="2.01736">
        <ele>1936.4</ele>
        <time>2019-07-31T10:14:07Z</time>
      </trkpt>
      <trkpt lat="42.55966" lon="2.01737">
        <ele>1935.6</ele>
        <time>2019-07-31T10:14:12Z</time>
      </trkpt>
      <trkpt lat="42.55968" lon="2.01739">
        <ele>1937</ele>
        <time>2019-07-31T10:14:17Z</time>
      </trkpt>
      <trkpt lat="42.55972" lon="2.01737">
        <ele>1936.8</ele>
        <time>2019-07-31T10:14:22Z</time>
      </trkpt>
      <trkpt lat="42.55973" lon="2.01736">
        <ele>1934.4</ele>
        <time>2019-07-31T10:14:32Z</time>
      </trkpt>
      <trkpt lat="42.55974" lon="2.01737">
        <ele>1933.8</ele>
        <time>2019-07-31T10:14:42Z</time>
      </trkpt>
      <trkpt lat="42.55975" lon="2.01741">
        <ele>1933.6</ele>
        <time>2019-07-31T10:14:47Z</time>
      </trkpt>
      <trkpt lat="42.55975" lon="2.01742">
        <ele>1933</ele>
        <time>2019-07-31T10:14:52Z</time>
      </trkpt>
      <trkpt lat="42.55975" lon="2.01747">
        <ele>1934.4</ele>
        <time>2019-07-31T10:16:22Z</time>
      </trkpt>
      <trkpt lat="42.55976" lon="2.01749">
        <ele>1934.8</ele>
        <time>2019-07-31T10:16:27Z</time>
      </trkpt>
      <trkpt lat="42.55976" lon="2.0175">
        <ele>1937</ele>
        <time>2019-07-31T10:16:32Z</time>
      </trkpt>
      <trkpt lat="42.55976" lon="2.01751">
        <ele>1939.6</ele>
        <time>2019-07-31T10:16:37Z</time>
      </trkpt>
      <trkpt lat="42.55976" lon="2.01751">
        <ele>1938.4</ele>
        <time>2019-07-31T10:16:52Z</time>
      </trkpt>
      <trkpt lat="42.55977" lon="2.01753">
        <ele>1939.8</ele>
        <time>2019-07-31T10:16:57Z</time>
      </trkpt>
      <trkpt lat="42.55978" lon="2.01757">
        <ele>1939.6</ele>
        <time>2019-07-31T10:17:02Z</time>
      </trkpt>
      <trkpt lat="42.55979" lon="2.0176">
        <ele>1937.8</ele>
        <time>2019-07-31T10:17:07Z</time>
      </trkpt>
      <trkpt lat="42.5598" lon="2.01762">
        <ele>1936.2</ele>
        <time>2019-07-31T10:17:12Z</time>
      </trkpt>
      <trkpt lat="42.55981" lon="2.01763">
        <ele>1941.6</ele>
        <time>2019-07-31T10:17:17Z</time>
      </trkpt>
      <trkpt lat="42.55982" lon="2.01764">
        <ele>1940.2</ele>
        <time>2019-07-31T10:17:22Z</time>
      </trkpt>
      <trkpt lat="42.55982" lon="2.01765">
        <ele>1943.8</ele>
        <time>2019-07-31T10:17:27Z</time>
      </trkpt>
      <trkpt lat="42.55983" lon="2.01766">
        <ele>1943.6</ele>
        <time>2019-07-31T10:17:32Z</time>
      </trkpt>
      <trkpt lat="42.55985" lon="2.01768">
        <ele>1940.8</ele>
        <time>2019-07-31T10:17:37Z</time>
      </trkpt>
      <trkpt lat="42.55986" lon="2.01768">
        <ele>1946.8</ele>
        <time>2019-07-31T10:17:42Z</time>
      </trkpt>
      <trkpt lat="42.55987" lon="2.01768">
        <ele>1945.2</ele>
        <time>2019-07-31T10:17:52Z</time>
      </trkpt>
      <trkpt lat="42.55989" lon="2.0177">
        <ele>1945</ele>
        <time>2019-07-31T10:17:57Z</time>
      </trkpt>
      <trkpt lat="42.55989" lon="2.0177">
        <ele>1944.4</ele>
        <time>2019-07-31T10:18:02Z</time>
      </trkpt>
      <trkpt lat="42.55992" lon="2.0177">
        <ele>1942.4</ele>
        <time>2019-07-31T10:18:07Z</time>
      </trkpt>
      <trkpt lat="42.55995" lon="2.01769">
        <ele>1948.8</ele>
        <time>2019-07-31T10:18:12Z</time>
      </trkpt>
      <trkpt lat="42.55996" lon="2.01766">
        <ele>1945</ele>
        <time>2019-07-31T10:18:17Z</time>
      </trkpt>
      <trkpt lat="42.55998" lon="2.01764">
        <ele>1947</ele>
        <time>2019-07-31T10:18:22Z</time>
      </trkpt>
      <trkpt lat="42.55999" lon="2.01762">
        <ele>1947</ele>
        <time>2019-07-31T10:18:27Z</time>
      </trkpt>
      <trkpt lat="42.55999" lon="2.0176">
        <ele>1945.4</ele>
        <time>2019-07-31T10:18:32Z</time>
      </trkpt>
      <trkpt lat="42.56" lon="2.01757">
        <ele>1950.8</ele>
        <time>2019-07-31T10:18:37Z</time>
      </trkpt>
      <trkpt lat="42.56002" lon="2.01757">
        <ele>1947.4</ele>
        <time>2019-07-31T10:18:42Z</time>
      </trkpt>
      <trkpt lat="42.56003" lon="2.01755">
        <ele>1946.2</ele>
        <time>2019-07-31T10:18:47Z</time>
      </trkpt>
      <trkpt lat="42.56004" lon="2.01755">
        <ele>1947.6</ele>
        <time>2019-07-31T10:19:12Z</time>
      </trkpt>
      <trkpt lat="42.56005" lon="2.01756">
        <ele>1947.2</ele>
        <time>2019-07-31T10:19:17Z</time>
      </trkpt>
      <trkpt lat="42.56007" lon="2.01757">
        <ele>1948.2</ele>
        <time>2019-07-31T10:19:22Z</time>
      </trkpt>
      <trkpt lat="42.56008" lon="2.01757">
        <ele>1949.4</ele>
        <time>2019-07-31T10:19:27Z</time>
      </trkpt>
      <trkpt lat="42.5601" lon="2.01758">
        <ele>1951.2</ele>
        <time>2019-07-31T10:19:32Z</time>
      </trkpt>
      <trkpt lat="42.56012" lon="2.01757">
        <ele>1954.4</ele>
        <time>2019-07-31T10:19:37Z</time>
      </trkpt>
      <trkpt lat="42.56014" lon="2.01756">
        <ele>1951.8</ele>
        <time>2019-07-31T10:19:42Z</time>
      </trkpt>
      <trkpt lat="42.56016" lon="2.01754">
        <ele>1953.6</ele>
        <time>2019-07-31T10:19:47Z</time>
      </trkpt>
      <trkpt lat="42.56019" lon="2.01752">
        <ele>1954</ele>
        <time>2019-07-31T10:19:52Z</time>
      </trkpt>
      <trkpt lat="42.56021" lon="2.0175">
        <ele>1955</ele>
        <time>2019-07-31T10:19:57Z</time>
      </trkpt>
      <trkpt lat="42.56024" lon="2.01748">
        <ele>1954.6</ele>
        <time>2019-07-31T10:20:02Z</time>
      </trkpt>
      <trkpt lat="42.56026" lon="2.01746">
        <ele>1956.6</ele>
        <time>2019-07-31T10:20:07Z</time>
      </trkpt>
      <trkpt lat="42.56028" lon="2.01745">
        <ele>1956</ele>
        <time>2019-07-31T10:20:12Z</time>
      </trkpt>
      <trkpt lat="42.5603" lon="2.01744">
        <ele>1957</ele>
        <time>2019-07-31T10:20:17Z</time>
      </trkpt>
      <trkpt lat="42.56033" lon="2.01746">
        <ele>1957.2</ele>
        <time>2019-07-31T10:20:22Z</time>
      </trkpt>
      <trkpt lat="42.56035" lon="2.01746">
        <ele>1956</ele>
        <time>2019-07-31T10:20:27Z</time>
      </trkpt>
      <trkpt lat="42.56037" lon="2.01749">
        <ele>1959.4</ele>
        <time>2019-07-31T10:20:32Z</time>
      </trkpt>
      <trkpt lat="42.56035" lon="2.01752">
        <ele>1957</ele>
        <time>2019-07-31T10:20:37Z</time>
      </trkpt>
      <trkpt lat="42.56036" lon="2.01754">
        <ele>1961</ele>
        <time>2019-07-31T10:20:42Z</time>
      </trkpt>
      <trkpt lat="42.56038" lon="2.01757">
        <ele>1959.4</ele>
        <time>2019-07-31T10:20:47Z</time>
      </trkpt>
      <trkpt lat="42.5604" lon="2.01757">
        <ele>1960.2</ele>
        <time>2019-07-31T10:20:52Z</time>
      </trkpt>
      <trkpt lat="42.56041" lon="2.01758">
        <ele>1963.2</ele>
        <time>2019-07-31T10:20:57Z</time>
      </trkpt>
      <trkpt lat="42.56042" lon="2.01757">
        <ele>1962.2</ele>
        <time>2019-07-31T10:21:02Z</time>
      </trkpt>
      <trkpt lat="42.56044" lon="2.01759">
        <ele>1964.4</ele>
        <time>2019-07-31T10:21:07Z</time>
      </trkpt>
      <trkpt lat="42.56046" lon="2.01757">
        <ele>1966.4</ele>
        <time>2019-07-31T10:21:12Z</time>
      </trkpt>
      <trkpt lat="42.56048" lon="2.01755">
        <ele>1965.8</ele>
        <time>2019-07-31T10:21:17Z</time>
      </trkpt>
      <trkpt lat="42.5605" lon="2.01755">
        <ele>1963.6</ele>
        <time>2019-07-31T10:21:22Z</time>
      </trkpt>
      <trkpt lat="42.56053" lon="2.01756">
        <ele>1968.2</ele>
        <time>2019-07-31T10:21:32Z</time>
      </trkpt>
      <trkpt lat="42.56053" lon="2.01756">
        <ele>1968</ele>
        <time>2019-07-31T10:21:37Z</time>
      </trkpt>
      <trkpt lat="42.56054" lon="2.01757">
        <ele>1966.4</ele>
        <time>2019-07-31T10:21:42Z</time>
      </trkpt>
      <trkpt lat="42.56056" lon="2.01758">
        <ele>1969.6</ele>
        <time>2019-07-31T10:21:47Z</time>
      </trkpt>
      <trkpt lat="42.56057" lon="2.01759">
        <ele>1970.6</ele>
        <time>2019-07-31T10:21:52Z</time>
      </trkpt>
      <trkpt lat="42.56059" lon="2.0176">
        <ele>1971.4</ele>
        <time>2019-07-31T10:21:57Z</time>
      </trkpt>
      <trkpt lat="42.56059" lon="2.01762">
        <ele>1967.4</ele>
        <time>2019-07-31T10:22:02Z</time>
      </trkpt>
      <trkpt lat="42.56062" lon="2.01763">
        <ele>1969.4</ele>
        <time>2019-07-31T10:22:07Z</time>
      </trkpt>
      <trkpt lat="42.56065" lon="2.01765">
        <ele>1970.8</ele>
        <time>2019-07-31T10:22:12Z</time>
      </trkpt>
      <trkpt lat="42.56068" lon="2.01766">
        <ele>1968.8</ele>
        <time>2019-07-31T10:22:17Z</time>
      </trkpt>
      <trkpt lat="42.56071" lon="2.01769">
        <ele>1969.8</ele>
        <time>2019-07-31T10:22:22Z</time>
      </trkpt>
      <trkpt lat="42.56074" lon="2.0177">
        <ele>1973.8</ele>
        <time>2019-07-31T10:22:27Z</time>
      </trkpt>
      <trkpt lat="42.56077" lon="2.01771">
        <ele>1973</ele>
        <time>2019-07-31T10:22:32Z</time>
      </trkpt>
      <trkpt lat="42.56079" lon="2.01771">
        <ele>1971</ele>
        <time>2019-07-31T10:22:37Z</time>
      </trkpt>
      <trkpt lat="42.56082" lon="2.01771">
        <ele>1975.8</ele>
        <time>2019-07-31T10:22:42Z</time>
      </trkpt>
      <trkpt lat="42.56085" lon="2.01772">
        <ele>1977.8</ele>
        <time>2019-07-31T10:22:47Z</time>
      </trkpt>
      <trkpt lat="42.56088" lon="2.01771">
        <ele>1976.2</ele>
        <time>2019-07-31T10:22:52Z</time>
      </trkpt>
      <trkpt lat="42.56091" lon="2.0177">
        <ele>1979.6</ele>
        <time>2019-07-31T10:22:57Z</time>
      </trkpt>
      <trkpt lat="42.56094" lon="2.01768">
        <ele>1977</ele>
        <time>2019-07-31T10:23:02Z</time>
      </trkpt>
      <trkpt lat="42.56096" lon="2.01766">
        <ele>1977</ele>
        <time>2019-07-31T10:23:07Z</time>
      </trkpt>
      <trkpt lat="42.56099" lon="2.01765">
        <ele>1975.4</ele>
        <time>2019-07-31T10:23:12Z</time>
      </trkpt>
      <trkpt lat="42.56101" lon="2.01763">
        <ele>1978.4</ele>
        <time>2019-07-31T10:23:17Z</time>
      </trkpt>
      <trkpt lat="42.56103" lon="2.01761">
        <ele>1978.2</ele>
        <time>2019-07-31T10:23:22Z</time>
      </trkpt>
      <trkpt lat="42.56106" lon="2.01759">
        <ele>1978.8</ele>
        <time>2019-07-31T10:23:27Z</time>
      </trkpt>
      <trkpt lat="42.56108" lon="2.01759">
        <ele>1979</ele>
        <time>2019-07-31T10:23:32Z</time>
      </trkpt>
      <trkpt lat="42.56111" lon="2.01757">
        <ele>1980.4</ele>
        <time>2019-07-31T10:23:37Z</time>
      </trkpt>
      <trkpt lat="42.56113" lon="2.01755">
        <ele>1981.6</ele>
        <time>2019-07-31T10:23:42Z</time>
      </trkpt>
      <trkpt lat="42.56114" lon="2.01754">
        <ele>1984</ele>
        <time>2019-07-31T10:23:47Z</time>
      </trkpt>
      <trkpt lat="42.56117" lon="2.01752">
        <ele>1984.4</ele>
        <time>2019-07-31T10:23:52Z</time>
      </trkpt>
      <trkpt lat="42.56119" lon="2.01749">
        <ele>1984</ele>
        <time>2019-07-31T10:23:57Z</time>
      </trkpt>
      <trkpt lat="42.5612" lon="2.01747">
        <ele>1984.4</ele>
        <time>2019-07-31T10:24:02Z</time>
      </trkpt>
      <trkpt lat="42.56122" lon="2.01746">
        <ele>1985</ele>
        <time>2019-07-31T10:24:07Z</time>
      </trkpt>
      <trkpt lat="42.56123" lon="2.01744">
        <ele>1985.8</ele>
        <time>2019-07-31T10:24:12Z</time>
      </trkpt>
      <trkpt lat="42.56125" lon="2.01741">
        <ele>1987.8</ele>
        <time>2019-07-31T10:24:17Z</time>
      </trkpt>
      <trkpt lat="42.56127" lon="2.01738">
        <ele>1988.8</ele>
        <time>2019-07-31T10:24:22Z</time>
      </trkpt>
      <trkpt lat="42.56129" lon="2.01737">
        <ele>1987.2</ele>
        <time>2019-07-31T10:24:27Z</time>
      </trkpt>
      <trkpt lat="42.56132" lon="2.01735">
        <ele>1989.6</ele>
        <time>2019-07-31T10:24:32Z</time>
      </trkpt>
      <trkpt lat="42.56132" lon="2.01732">
        <ele>1985.2</ele>
        <time>2019-07-31T10:24:37Z</time>
      </trkpt>
      <trkpt lat="42.56134" lon="2.01731">
        <ele>1987.8</ele>
        <time>2019-07-31T10:24:42Z</time>
      </trkpt>
      <trkpt lat="42.56137" lon="2.0173">
        <ele>1989.2</ele>
        <time>2019-07-31T10:24:47Z</time>
      </trkpt>
      <trkpt lat="42.5614" lon="2.01727">
        <ele>1991.6</ele>
        <time>2019-07-31T10:24:52Z</time>
      </trkpt>
      <trkpt lat="42.56142" lon="2.01724">
        <ele>1989.2</ele>
        <time>2019-07-31T10:24:57Z</time>
      </trkpt>
      <trkpt lat="42.56144" lon="2.01721">
        <ele>1988.2</ele>
        <time>2019-07-31T10:25:02Z</time>
      </trkpt>
      <trkpt lat="42.56146" lon="2.01719">
        <ele>1991.2</ele>
        <time>2019-07-31T10:25:07Z</time>
      </trkpt>
      <trkpt lat="42.56148" lon="2.01717">
        <ele>1991.2</ele>
        <time>2019-07-31T10:25:12Z</time>
      </trkpt>
      <trkpt lat="42.5615" lon="2.01716">
        <ele>1988.8</ele>
        <time>2019-07-31T10:25:17Z</time>
      </trkpt>
      <trkpt lat="42.56152" lon="2.01715">
        <ele>1992.4</ele>
        <time>2019-07-31T10:25:22Z</time>
      </trkpt>
      <trkpt lat="42.56154" lon="2.01714">
        <ele>1992.2</ele>
        <time>2019-07-31T10:25:27Z</time>
      </trkpt>
      <trkpt lat="42.56156" lon="2.01711">
        <ele>1993.4</ele>
        <time>2019-07-31T10:25:32Z</time>
      </trkpt>
      <trkpt lat="42.56159" lon="2.01709">
        <ele>1993.4</ele>
        <time>2019-07-31T10:25:37Z</time>
      </trkpt>
      <trkpt lat="42.56161" lon="2.01707">
        <ele>1994</ele>
        <time>2019-07-31T10:25:42Z</time>
      </trkpt>
      <trkpt lat="42.56163" lon="2.01705">
        <ele>1996.4</ele>
        <time>2019-07-31T10:25:47Z</time>
      </trkpt>
      <trkpt lat="42.56164" lon="2.01703">
        <ele>1995.2</ele>
        <time>2019-07-31T10:25:52Z</time>
      </trkpt>
      <trkpt lat="42.56166" lon="2.01701">
        <ele>1990.4</ele>
        <time>2019-07-31T10:25:57Z</time>
      </trkpt>
      <trkpt lat="42.56168" lon="2.01699">
        <ele>1996</ele>
        <time>2019-07-31T10:26:02Z</time>
      </trkpt>
      <trkpt lat="42.56169" lon="2.01697">
        <ele>1996.6</ele>
        <time>2019-07-31T10:26:07Z</time>
      </trkpt>
      <trkpt lat="42.5617" lon="2.01695">
        <ele>1999</ele>
        <time>2019-07-31T10:26:12Z</time>
      </trkpt>
      <trkpt lat="42.56171" lon="2.01693">
        <ele>1997.4</ele>
        <time>2019-07-31T10:26:17Z</time>
      </trkpt>
      <trkpt lat="42.5617" lon="2.01689">
        <ele>1998</ele>
        <time>2019-07-31T10:26:22Z</time>
      </trkpt>
      <trkpt lat="42.56171" lon="2.01687">
        <ele>1997.2</ele>
        <time>2019-07-31T10:26:27Z</time>
      </trkpt>
      <trkpt lat="42.56171" lon="2.01685">
        <ele>2000</ele>
        <time>2019-07-31T10:26:32Z</time>
      </trkpt>
      <trkpt lat="42.56173" lon="2.01683">
        <ele>1997.4</ele>
        <time>2019-07-31T10:26:37Z</time>
      </trkpt>
      <trkpt lat="42.56174" lon="2.01681">
        <ele>1997.6</ele>
        <time>2019-07-31T10:26:42Z</time>
      </trkpt>
      <trkpt lat="42.56177" lon="2.01677">
        <ele>2001.2</ele>
        <time>2019-07-31T10:26:47Z</time>
      </trkpt>
      <trkpt lat="42.56179" lon="2.01676">
        <ele>1997.2</ele>
        <time>2019-07-31T10:26:52Z</time>
      </trkpt>
      <trkpt lat="42.5618" lon="2.01674">
        <ele>1998.2</ele>
        <time>2019-07-31T10:26:57Z</time>
      </trkpt>
      <trkpt lat="42.56181" lon="2.01671">
        <ele>2006.6</ele>
        <time>2019-07-31T10:27:12Z</time>
      </trkpt>
      <trkpt lat="42.56183" lon="2.01669">
        <ele>2007.8</ele>
        <time>2019-07-31T10:27:17Z</time>
      </trkpt>
      <trkpt lat="42.56184" lon="2.01667">
        <ele>2006.8</ele>
        <time>2019-07-31T10:27:22Z</time>
      </trkpt>
      <trkpt lat="42.56186" lon="2.01664">
        <ele>2009.2</ele>
        <time>2019-07-31T10:27:27Z</time>
      </trkpt>
      <trkpt lat="42.56188" lon="2.01662">
        <ele>2007.6</ele>
        <time>2019-07-31T10:27:32Z</time>
      </trkpt>
      <trkpt lat="42.56189" lon="2.01659">
        <ele>2006.8</ele>
        <time>2019-07-31T10:27:37Z</time>
      </trkpt>
      <trkpt lat="42.5619" lon="2.01656">
        <ele>2010.8</ele>
        <time>2019-07-31T10:27:42Z</time>
      </trkpt>
      <trkpt lat="42.56191" lon="2.01655">
        <ele>2010.2</ele>
        <time>2019-07-31T10:27:47Z</time>
      </trkpt>
      <trkpt lat="42.56192" lon="2.01652">
        <ele>2010.4</ele>
        <time>2019-07-31T10:27:52Z</time>
      </trkpt>
      <trkpt lat="42.56193" lon="2.0165">
        <ele>2010.8</ele>
        <time>2019-07-31T10:27:57Z</time>
      </trkpt>
      <trkpt lat="42.56196" lon="2.01647">
        <ele>2016.2</ele>
        <time>2019-07-31T10:28:02Z</time>
      </trkpt>
      <trkpt lat="42.56198" lon="2.01644">
        <ele>2014.4</ele>
        <time>2019-07-31T10:28:07Z</time>
      </trkpt>
      <trkpt lat="42.56199" lon="2.01643">
        <ele>2013</ele>
        <time>2019-07-31T10:28:12Z</time>
      </trkpt>
      <trkpt lat="42.56199" lon="2.01642">
        <ele>2012</ele>
        <time>2019-07-31T10:28:17Z</time>
      </trkpt>
      <trkpt lat="42.56199" lon="2.01641">
        <ele>2014.6</ele>
        <time>2019-07-31T10:28:22Z</time>
      </trkpt>
      <trkpt lat="42.56199" lon="2.01639">
        <ele>2013.6</ele>
        <time>2019-07-31T10:28:32Z</time>
      </trkpt>
      <trkpt lat="42.56199" lon="2.01637">
        <ele>2014.4</ele>
        <time>2019-07-31T10:28:37Z</time>
      </trkpt>
      <trkpt lat="42.562" lon="2.01636">
        <ele>2014.2</ele>
        <time>2019-07-31T10:28:42Z</time>
      </trkpt>
      <trkpt lat="42.56203" lon="2.01634">
        <ele>2014.6</ele>
        <time>2019-07-31T10:28:47Z</time>
      </trkpt>
      <trkpt lat="42.56204" lon="2.01632">
        <ele>2013.6</ele>
        <time>2019-07-31T10:28:52Z</time>
      </trkpt>
      <trkpt lat="42.56205" lon="2.01631">
        <ele>2015.4</ele>
        <time>2019-07-31T10:28:57Z</time>
      </trkpt>
      <trkpt lat="42.56206" lon="2.01629">
        <ele>2016.8</ele>
        <time>2019-07-31T10:29:02Z</time>
      </trkpt>
      <trkpt lat="42.56208" lon="2.01627">
        <ele>2019.2</ele>
        <time>2019-07-31T10:29:07Z</time>
      </trkpt>
      <trkpt lat="42.5621" lon="2.01624">
        <ele>2021.2</ele>
        <time>2019-07-31T10:29:12Z</time>
      </trkpt>
      <trkpt lat="42.56212" lon="2.01622">
        <ele>2023.2</ele>
        <time>2019-07-31T10:29:17Z</time>
      </trkpt>
      <trkpt lat="42.56215" lon="2.01619">
        <ele>2024.4</ele>
        <time>2019-07-31T10:29:22Z</time>
      </trkpt>
      <trkpt lat="42.56217" lon="2.01616">
        <ele>2023.4</ele>
        <time>2019-07-31T10:29:27Z</time>
      </trkpt>
      <trkpt lat="42.56218" lon="2.01613">
        <ele>2022.8</ele>
        <time>2019-07-31T10:29:32Z</time>
      </trkpt>
      <trkpt lat="42.5622" lon="2.01612">
        <ele>2023.4</ele>
        <time>2019-07-31T10:29:37Z</time>
      </trkpt>
      <trkpt lat="42.56222" lon="2.01611">
        <ele>2022.4</ele>
        <time>2019-07-31T10:29:42Z</time>
      </trkpt>
      <trkpt lat="42.56224" lon="2.01609">
        <ele>2027</ele>
        <time>2019-07-31T10:29:47Z</time>
      </trkpt>
      <trkpt lat="42.56225" lon="2.01607">
        <ele>2025.8</ele>
        <time>2019-07-31T10:29:52Z</time>
      </trkpt>
      <trkpt lat="42.56226" lon="2.01607">
        <ele>2027</ele>
        <time>2019-07-31T10:29:57Z</time>
      </trkpt>
      <trkpt lat="42.56227" lon="2.01607">
        <ele>2025.4</ele>
        <time>2019-07-31T10:30:02Z</time>
      </trkpt>
      <trkpt lat="42.5623" lon="2.01604">
        <ele>2022.8</ele>
        <time>2019-07-31T10:30:07Z</time>
      </trkpt>
      <trkpt lat="42.56233" lon="2.01603">
        <ele>2023</ele>
        <time>2019-07-31T10:30:12Z</time>
      </trkpt>
      <trkpt lat="42.56235" lon="2.016">
        <ele>2026.6</ele>
        <time>2019-07-31T10:30:17Z</time>
      </trkpt>
      <trkpt lat="42.56236" lon="2.01598">
        <ele>2025.6</ele>
        <time>2019-07-31T10:30:22Z</time>
      </trkpt>
      <trkpt lat="42.56238" lon="2.01596">
        <ele>2026</ele>
        <time>2019-07-31T10:30:27Z</time>
      </trkpt>
      <trkpt lat="42.56241" lon="2.01597">
        <ele>2027.6</ele>
        <time>2019-07-31T10:30:32Z</time>
      </trkpt>
      <trkpt lat="42.56242" lon="2.01595">
        <ele>2028.4</ele>
        <time>2019-07-31T10:30:37Z</time>
      </trkpt>
      <trkpt lat="42.56245" lon="2.01593">
        <ele>2029</ele>
        <time>2019-07-31T10:30:42Z</time>
      </trkpt>
      <trkpt lat="42.56245" lon="2.0159">
        <ele>2029.4</ele>
        <time>2019-07-31T10:30:47Z</time>
      </trkpt>
      <trkpt lat="42.56246" lon="2.01588">
        <ele>2028.4</ele>
        <time>2019-07-31T10:30:52Z</time>
      </trkpt>
      <trkpt lat="42.56247" lon="2.01586">
        <ele>2028.6</ele>
        <time>2019-07-31T10:30:57Z</time>
      </trkpt>
      <trkpt lat="42.56248" lon="2.01584">
        <ele>2028.8</ele>
        <time>2019-07-31T10:31:02Z</time>
      </trkpt>
      <trkpt lat="42.5625" lon="2.01583">
        <ele>2028.4</ele>
        <time>2019-07-31T10:31:07Z</time>
      </trkpt>
      <trkpt lat="42.56251" lon="2.01581">
        <ele>2027.8</ele>
        <time>2019-07-31T10:31:12Z</time>
      </trkpt>
      <trkpt lat="42.56254" lon="2.0158">
        <ele>2028.6</ele>
        <time>2019-07-31T10:31:17Z</time>
      </trkpt>
      <trkpt lat="42.56256" lon="2.01579">
        <ele>2029.6</ele>
        <time>2019-07-31T10:31:22Z</time>
      </trkpt>
      <trkpt lat="42.56258" lon="2.01577">
        <ele>2030.8</ele>
        <time>2019-07-31T10:31:27Z</time>
      </trkpt>
      <trkpt lat="42.56261" lon="2.01576">
        <ele>2031</ele>
        <time>2019-07-31T10:31:32Z</time>
      </trkpt>
      <trkpt lat="42.56263" lon="2.01575">
        <ele>2033.6</ele>
        <time>2019-07-31T10:31:37Z</time>
      </trkpt>
      <trkpt lat="42.56264" lon="2.01575">
        <ele>2033.4</ele>
        <time>2019-07-31T10:31:42Z</time>
      </trkpt>
      <trkpt lat="42.56266" lon="2.01572">
        <ele>2032</ele>
        <time>2019-07-31T10:31:47Z</time>
      </trkpt>
      <trkpt lat="42.56268" lon="2.01568">
        <ele>2031.6</ele>
        <time>2019-07-31T10:31:52Z</time>
      </trkpt>
      <trkpt lat="42.56269" lon="2.01566">
        <ele>2030.8</ele>
        <time>2019-07-31T10:31:57Z</time>
      </trkpt>
      <trkpt lat="42.56271" lon="2.01563">
        <ele>2029.8</ele>
        <time>2019-07-31T10:32:02Z</time>
      </trkpt>
      <trkpt lat="42.56272" lon="2.01561">
        <ele>2032</ele>
        <time>2019-07-31T10:32:07Z</time>
      </trkpt>
      <trkpt lat="42.56272" lon="2.01558">
        <ele>2030.6</ele>
        <time>2019-07-31T10:32:12Z</time>
      </trkpt>
      <trkpt lat="42.56272" lon="2.01556">
        <ele>2029.4</ele>
        <time>2019-07-31T10:32:17Z</time>
      </trkpt>
      <trkpt lat="42.56273" lon="2.01553">
        <ele>2031.2</ele>
        <time>2019-07-31T10:32:22Z</time>
      </trkpt>
      <trkpt lat="42.56275" lon="2.0155">
        <ele>2032</ele>
        <time>2019-07-31T10:32:27Z</time>
      </trkpt>
      <trkpt lat="42.56278" lon="2.01549">
        <ele>2031.8</ele>
        <time>2019-07-31T10:32:32Z</time>
      </trkpt>
      <trkpt lat="42.56281" lon="2.0155">
        <ele>2030.8</ele>
        <time>2019-07-31T10:32:37Z</time>
      </trkpt>
      <trkpt lat="42.56284" lon="2.0155">
        <ele>2034.6</ele>
        <time>2019-07-31T10:32:42Z</time>
      </trkpt>
      <trkpt lat="42.56287" lon="2.01551">
        <ele>2035.2</ele>
        <time>2019-07-31T10:32:47Z</time>
      </trkpt>
      <trkpt lat="42.5629" lon="2.01551">
        <ele>2039</ele>
        <time>2019-07-31T10:32:52Z</time>
      </trkpt>
      <trkpt lat="42.56293" lon="2.01551">
        <ele>2038.6</ele>
        <time>2019-07-31T10:32:57Z</time>
      </trkpt>
      <trkpt lat="42.56297" lon="2.01553">
        <ele>2038.4</ele>
        <time>2019-07-31T10:33:02Z</time>
      </trkpt>
      <trkpt lat="42.56299" lon="2.01554">
        <ele>2040.6</ele>
        <time>2019-07-31T10:33:07Z</time>
      </trkpt>
      <trkpt lat="42.56302" lon="2.01555">
        <ele>2042.2</ele>
        <time>2019-07-31T10:33:12Z</time>
      </trkpt>
      <trkpt lat="42.56303" lon="2.01553">
        <ele>2045.8</ele>
        <time>2019-07-31T10:33:17Z</time>
      </trkpt>
      <trkpt lat="42.56305" lon="2.0155">
        <ele>2046.4</ele>
        <time>2019-07-31T10:33:22Z</time>
      </trkpt>
      <trkpt lat="42.56307" lon="2.01547">
        <ele>2048.8</ele>
        <time>2019-07-31T10:33:27Z</time>
      </trkpt>
      <trkpt lat="42.56309" lon="2.01543">
        <ele>2045.8</ele>
        <time>2019-07-31T10:33:32Z</time>
      </trkpt>
      <trkpt lat="42.5631" lon="2.01539">
        <ele>2046.2</ele>
        <time>2019-07-31T10:33:37Z</time>
      </trkpt>
      <trkpt lat="42.56312" lon="2.01536">
        <ele>2048</ele>
        <time>2019-07-31T10:33:42Z</time>
      </trkpt>
      <trkpt lat="42.56314" lon="2.01533">
        <ele>2045.6</ele>
        <time>2019-07-31T10:33:47Z</time>
      </trkpt>
      <trkpt lat="42.56316" lon="2.01531">
        <ele>2045.4</ele>
        <time>2019-07-31T10:33:52Z</time>
      </trkpt>
      <trkpt lat="42.56319" lon="2.01529">
        <ele>2045.6</ele>
        <time>2019-07-31T10:33:57Z</time>
      </trkpt>
      <trkpt lat="42.56322" lon="2.01527">
        <ele>2047.2</ele>
        <time>2019-07-31T10:34:02Z</time>
      </trkpt>
      <trkpt lat="42.56324" lon="2.01522">
        <ele>2046.8</ele>
        <time>2019-07-31T10:34:07Z</time>
      </trkpt>
      <trkpt lat="42.56325" lon="2.01518">
        <ele>2048</ele>
        <time>2019-07-31T10:34:12Z</time>
      </trkpt>
      <trkpt lat="42.56326" lon="2.01516">
        <ele>2047.8</ele>
        <time>2019-07-31T10:34:17Z</time>
      </trkpt>
      <trkpt lat="42.56329" lon="2.01515">
        <ele>2050</ele>
        <time>2019-07-31T10:34:22Z</time>
      </trkpt>
      <trkpt lat="42.56331" lon="2.01513">
        <ele>2050.8</ele>
        <time>2019-07-31T10:34:27Z</time>
      </trkpt>
      <trkpt lat="42.56334" lon="2.0151">
        <ele>2050.4</ele>
        <time>2019-07-31T10:34:32Z</time>
      </trkpt>
      <trkpt lat="42.56336" lon="2.01509">
        <ele>2047.8</ele>
        <time>2019-07-31T10:34:37Z</time>
      </trkpt>
      <trkpt lat="42.56339" lon="2.01508">
        <ele>2050</ele>
        <time>2019-07-31T10:34:42Z</time>
      </trkpt>
      <trkpt lat="42.56342" lon="2.01506">
        <ele>2052.4</ele>
        <time>2019-07-31T10:34:47Z</time>
      </trkpt>
      <trkpt lat="42.56344" lon="2.01503">
        <ele>2050.6</ele>
        <time>2019-07-31T10:34:52Z</time>
      </trkpt>
      <trkpt lat="42.56345" lon="2.015">
        <ele>2052.6</ele>
        <time>2019-07-31T10:34:57Z</time>
      </trkpt>
      <trkpt lat="42.56345" lon="2.01495">
        <ele>2051.6</ele>
        <time>2019-07-31T10:35:02Z</time>
      </trkpt>
      <trkpt lat="42.56346" lon="2.01491">
        <ele>2054</ele>
        <time>2019-07-31T10:35:07Z</time>
      </trkpt>
      <trkpt lat="42.56346" lon="2.01487">
        <ele>2055.4</ele>
        <time>2019-07-31T10:35:12Z</time>
      </trkpt>
      <trkpt lat="42.56347" lon="2.01483">
        <ele>2055.6</ele>
        <time>2019-07-31T10:35:17Z</time>
      </trkpt>
      <trkpt lat="42.56349" lon="2.01479">
        <ele>2055.6</ele>
        <time>2019-07-31T10:35:22Z</time>
      </trkpt>
      <trkpt lat="42.56351" lon="2.01475">
        <ele>2057.6</ele>
        <time>2019-07-31T10:35:27Z</time>
      </trkpt>
      <trkpt lat="42.56352" lon="2.01471">
        <ele>2057.6</ele>
        <time>2019-07-31T10:35:32Z</time>
      </trkpt>
      <trkpt lat="42.56354" lon="2.01467">
        <ele>2059</ele>
        <time>2019-07-31T10:35:37Z</time>
      </trkpt>
      <trkpt lat="42.56356" lon="2.01461">
        <ele>2059.4</ele>
        <time>2019-07-31T10:35:42Z</time>
      </trkpt>
      <trkpt lat="42.56358" lon="2.01457">
        <ele>2061.2</ele>
        <time>2019-07-31T10:35:47Z</time>
      </trkpt>
      <trkpt lat="42.5636" lon="2.01452">
        <ele>2059.4</ele>
        <time>2019-07-31T10:35:52Z</time>
      </trkpt>
      <trkpt lat="42.56363" lon="2.01448">
        <ele>2063</ele>
        <time>2019-07-31T10:35:57Z</time>
      </trkpt>
      <trkpt lat="42.56366" lon="2.01446">
        <ele>2061</ele>
        <time>2019-07-31T10:36:02Z</time>
      </trkpt>
      <trkpt lat="42.56369" lon="2.01442">
        <ele>2060.8</ele>
        <time>2019-07-31T10:36:07Z</time>
      </trkpt>
      <trkpt lat="42.56372" lon="2.01439">
        <ele>2062.8</ele>
        <time>2019-07-31T10:36:12Z</time>
      </trkpt>
      <trkpt lat="42.56374" lon="2.01435">
        <ele>2060</ele>
        <time>2019-07-31T10:36:17Z</time>
      </trkpt>
      <trkpt lat="42.56376" lon="2.01432">
        <ele>2062.6</ele>
        <time>2019-07-31T10:36:22Z</time>
      </trkpt>
      <trkpt lat="42.56377" lon="2.0143">
        <ele>2063.2</ele>
        <time>2019-07-31T10:36:27Z</time>
      </trkpt>
      <trkpt lat="42.56379" lon="2.01427">
        <ele>2063.8</ele>
        <time>2019-07-31T10:36:32Z</time>
      </trkpt>
      <trkpt lat="42.56381" lon="2.01425">
        <ele>2064.6</ele>
        <time>2019-07-31T10:36:37Z</time>
      </trkpt>
      <trkpt lat="42.56383" lon="2.01423">
        <ele>2065.8</ele>
        <time>2019-07-31T10:36:42Z</time>
      </trkpt>
      <trkpt lat="42.56386" lon="2.01421">
        <ele>2066</ele>
        <time>2019-07-31T10:36:47Z</time>
      </trkpt>
      <trkpt lat="42.56388" lon="2.01419">
        <ele>2068</ele>
        <time>2019-07-31T10:36:52Z</time>
      </trkpt>
      <trkpt lat="42.56392" lon="2.01417">
        <ele>2065.6</ele>
        <time>2019-07-31T10:36:57Z</time>
      </trkpt>
      <trkpt lat="42.56395" lon="2.01413">
        <ele>2067.6</ele>
        <time>2019-07-31T10:37:02Z</time>
      </trkpt>
      <trkpt lat="42.56398" lon="2.01411">
        <ele>2070.8</ele>
        <time>2019-07-31T10:37:07Z</time>
      </trkpt>
      <trkpt lat="42.56401" lon="2.01408">
        <ele>2070.2</ele>
        <time>2019-07-31T10:37:12Z</time>
      </trkpt>
      <trkpt lat="42.56404" lon="2.01404">
        <ele>2069.4</ele>
        <time>2019-07-31T10:37:17Z</time>
      </trkpt>
      <trkpt lat="42.56407" lon="2.01402">
        <ele>2068.4</ele>
        <time>2019-07-31T10:37:22Z</time>
      </trkpt>
      <trkpt lat="42.5641" lon="2.01399">
        <ele>2070.2</ele>
        <time>2019-07-31T10:37:27Z</time>
      </trkpt>
      <trkpt lat="42.56411" lon="2.01395">
        <ele>2071.8</ele>
        <time>2019-07-31T10:37:32Z</time>
      </trkpt>
      <trkpt lat="42.56412" lon="2.01392">
        <ele>2069.8</ele>
        <time>2019-07-31T10:37:37Z</time>
      </trkpt>
      <trkpt lat="42.56414" lon="2.01393">
        <ele>2071.6</ele>
        <time>2019-07-31T10:37:42Z</time>
      </trkpt>
      <trkpt lat="42.56416" lon="2.01393">
        <ele>2072.2</ele>
        <time>2019-07-31T10:37:47Z</time>
      </trkpt>
      <trkpt lat="42.56419" lon="2.01391">
        <ele>2074.2</ele>
        <time>2019-07-31T10:37:52Z</time>
      </trkpt>
      <trkpt lat="42.56421" lon="2.0139">
        <ele>2073.2</ele>
        <time>2019-07-31T10:37:57Z</time>
      </trkpt>
      <trkpt lat="42.56424" lon="2.01389">
        <ele>2074.2</ele>
        <time>2019-07-31T10:38:02Z</time>
      </trkpt>
      <trkpt lat="42.56428" lon="2.01388">
        <ele>2072.4</ele>
        <time>2019-07-31T10:38:07Z</time>
      </trkpt>
      <trkpt lat="42.56431" lon="2.01385">
        <ele>2073.6</ele>
        <time>2019-07-31T10:38:12Z</time>
      </trkpt>
      <trkpt lat="42.56436" lon="2.01381">
        <ele>2071.4</ele>
        <time>2019-07-31T10:38:17Z</time>
      </trkpt>
      <trkpt lat="42.56438" lon="2.01377">
        <ele>2073.8</ele>
        <time>2019-07-31T10:38:22Z</time>
      </trkpt>
      <trkpt lat="42.56442" lon="2.01373">
        <ele>2075.8</ele>
        <time>2019-07-31T10:38:27Z</time>
      </trkpt>
      <trkpt lat="42.56444" lon="2.01371">
        <ele>2075.2</ele>
        <time>2019-07-31T10:38:32Z</time>
      </trkpt>
      <trkpt lat="42.56447" lon="2.01371">
        <ele>2075.4</ele>
        <time>2019-07-31T10:38:37Z</time>
      </trkpt>
      <trkpt lat="42.56451" lon="2.01367">
        <ele>2076.8</ele>
        <time>2019-07-31T10:38:42Z</time>
      </trkpt>
      <trkpt lat="42.56453" lon="2.01363">
        <ele>2076.6</ele>
        <time>2019-07-31T10:38:47Z</time>
      </trkpt>
      <trkpt lat="42.56456" lon="2.01359">
        <ele>2076.6</ele>
        <time>2019-07-31T10:38:52Z</time>
      </trkpt>
      <trkpt lat="42.5646" lon="2.01356">
        <ele>2072.4</ele>
        <time>2019-07-31T10:38:57Z</time>
      </trkpt>
      <trkpt lat="42.56464" lon="2.01353">
        <ele>2074</ele>
        <time>2019-07-31T10:39:02Z</time>
      </trkpt>
      <trkpt lat="42.56467" lon="2.01349">
        <ele>2074.6</ele>
        <time>2019-07-31T10:39:07Z</time>
      </trkpt>
      <trkpt lat="42.5647" lon="2.01347">
        <ele>2076.6</ele>
        <time>2019-07-31T10:39:12Z</time>
      </trkpt>
      <trkpt lat="42.56473" lon="2.01342">
        <ele>2075.6</ele>
        <time>2019-07-31T10:39:17Z</time>
      </trkpt>
      <trkpt lat="42.56476" lon="2.01339">
        <ele>2077.4</ele>
        <time>2019-07-31T10:39:22Z</time>
      </trkpt>
      <trkpt lat="42.56478" lon="2.01334">
        <ele>2077.8</ele>
        <time>2019-07-31T10:39:27Z</time>
      </trkpt>
      <trkpt lat="42.5648" lon="2.01328">
        <ele>2076.2</ele>
        <time>2019-07-31T10:39:32Z</time>
      </trkpt>
      <trkpt lat="42.56482" lon="2.01325">
        <ele>2077.2</ele>
        <time>2019-07-31T10:39:37Z</time>
      </trkpt>
      <trkpt lat="42.56485" lon="2.0132">
        <ele>2078</ele>
        <time>2019-07-31T10:39:42Z</time>
      </trkpt>
      <trkpt lat="42.56488" lon="2.01316">
        <ele>2078</ele>
        <time>2019-07-31T10:39:47Z</time>
      </trkpt>
      <trkpt lat="42.56491" lon="2.01312">
        <ele>2078.6</ele>
        <time>2019-07-31T10:39:52Z</time>
      </trkpt>
      <trkpt lat="42.56493" lon="2.01308">
        <ele>2077.2</ele>
        <time>2019-07-31T10:39:57Z</time>
      </trkpt>
      <trkpt lat="42.56493" lon="2.01305">
        <ele>2078</ele>
        <time>2019-07-31T10:40:02Z</time>
      </trkpt>
      <trkpt lat="42.56495" lon="2.01301">
        <ele>2078.6</ele>
        <time>2019-07-31T10:40:07Z</time>
      </trkpt>
      <trkpt lat="42.56499" lon="2.013">
        <ele>2078.4</ele>
        <time>2019-07-31T10:40:12Z</time>
      </trkpt>
      <trkpt lat="42.56501" lon="2.01298">
        <ele>2081</ele>
        <time>2019-07-31T10:40:17Z</time>
      </trkpt>
      <trkpt lat="42.56502" lon="2.01293">
        <ele>2076.8</ele>
        <time>2019-07-31T10:40:22Z</time>
      </trkpt>
      <trkpt lat="42.56505" lon="2.01291">
        <ele>2078</ele>
        <time>2019-07-31T10:40:27Z</time>
      </trkpt>
      <trkpt lat="42.56508" lon="2.01289">
        <ele>2079</ele>
        <time>2019-07-31T10:40:32Z</time>
      </trkpt>
      <trkpt lat="42.56512" lon="2.01286">
        <ele>2080.6</ele>
        <time>2019-07-31T10:40:37Z</time>
      </trkpt>
      <trkpt lat="42.56514" lon="2.01284">
        <ele>2079.8</ele>
        <time>2019-07-31T10:40:42Z</time>
      </trkpt>
      <trkpt lat="42.56517" lon="2.01283">
        <ele>2080.4</ele>
        <time>2019-07-31T10:40:47Z</time>
      </trkpt>
      <trkpt lat="42.56522" lon="2.01283">
        <ele>2080.8</ele>
        <time>2019-07-31T10:40:52Z</time>
      </trkpt>
      <trkpt lat="42.56527" lon="2.01284">
        <ele>2082</ele>
        <time>2019-07-31T10:40:57Z</time>
      </trkpt>
      <trkpt lat="42.56531" lon="2.01285">
        <ele>2083.8</ele>
        <time>2019-07-31T10:41:02Z</time>
      </trkpt>
      <trkpt lat="42.56535" lon="2.01286">
        <ele>2082.4</ele>
        <time>2019-07-31T10:41:07Z</time>
      </trkpt>
      <trkpt lat="42.56539" lon="2.01287">
        <ele>2083.8</ele>
        <time>2019-07-31T10:41:12Z</time>
      </trkpt>
      <trkpt lat="42.56543" lon="2.01287">
        <ele>2083.6</ele>
        <time>2019-07-31T10:41:17Z</time>
      </trkpt>
      <trkpt lat="42.56547" lon="2.01288">
        <ele>2085</ele>
        <time>2019-07-31T10:41:22Z</time>
      </trkpt>
      <trkpt lat="42.5655" lon="2.01288">
        <ele>2084.6</ele>
        <time>2019-07-31T10:41:27Z</time>
      </trkpt>
      <trkpt lat="42.56551" lon="2.01288">
        <ele>2086</ele>
        <time>2019-07-31T10:41:32Z</time>
      </trkpt>
      <trkpt lat="42.56552" lon="2.01288">
        <ele>2086.2</ele>
        <time>2019-07-31T10:41:37Z</time>
      </trkpt>
      <trkpt lat="42.56555" lon="2.01289">
        <ele>2087</ele>
        <time>2019-07-31T10:41:42Z</time>
      </trkpt>
      <trkpt lat="42.56557" lon="2.01288">
        <ele>2086.8</ele>
        <time>2019-07-31T10:41:47Z</time>
      </trkpt>
      <trkpt lat="42.56559" lon="2.01285">
        <ele>2090.4</ele>
        <time>2019-07-31T10:41:52Z</time>
      </trkpt>
      <trkpt lat="42.56559" lon="2.01285">
        <ele>2089.8</ele>
        <time>2019-07-31T10:41:57Z</time>
      </trkpt>
      <trkpt lat="42.5656" lon="2.01284">
        <ele>2089.4</ele>
        <time>2019-07-31T10:42:02Z</time>
      </trkpt>
      <trkpt lat="42.56562" lon="2.01286">
        <ele>2089</ele>
        <time>2019-07-31T10:42:07Z</time>
      </trkpt>
      <trkpt lat="42.56564" lon="2.01288">
        <ele>2088.8</ele>
        <time>2019-07-31T10:42:12Z</time>
      </trkpt>
      <trkpt lat="42.56566" lon="2.0129">
        <ele>2090.2</ele>
        <time>2019-07-31T10:42:17Z</time>
      </trkpt>
      <trkpt lat="42.56568" lon="2.0129">
        <ele>2089.6</ele>
        <time>2019-07-31T10:42:22Z</time>
      </trkpt>
      <trkpt lat="42.56569" lon="2.01289">
        <ele>2089.6</ele>
        <time>2019-07-31T10:42:27Z</time>
      </trkpt>
      <trkpt lat="42.5657" lon="2.01291">
        <ele>2090.8</ele>
        <time>2019-07-31T10:42:32Z</time>
      </trkpt>
      <trkpt lat="42.56572" lon="2.01291">
        <ele>2089.6</ele>
        <time>2019-07-31T10:42:37Z</time>
      </trkpt>
      <trkpt lat="42.56572" lon="2.01292">
        <ele>2089.4</ele>
        <time>2019-07-31T10:42:42Z</time>
      </trkpt>
      <trkpt lat="42.56573" lon="2.01292">
        <ele>2089.4</ele>
        <time>2019-07-31T10:42:47Z</time>
      </trkpt>
      <trkpt lat="42.56574" lon="2.01293">
        <ele>2089.6</ele>
        <time>2019-07-31T10:42:57Z</time>
      </trkpt>
      <trkpt lat="42.56574" lon="2.01295">
        <ele>2088.4</ele>
        <time>2019-07-31T10:43:02Z</time>
      </trkpt>
      <trkpt lat="42.56575" lon="2.01295">
        <ele>2091</ele>
        <time>2019-07-31T10:43:07Z</time>
      </trkpt>
      <trkpt lat="42.56577" lon="2.01297">
        <ele>2091</ele>
        <time>2019-07-31T10:43:12Z</time>
      </trkpt>
      <trkpt lat="42.56577" lon="2.01297">
        <ele>2090.8</ele>
        <time>2019-07-31T10:43:52Z</time>
      </trkpt>
      <trkpt lat="42.56578" lon="2.01297">
        <ele>2090.8</ele>
        <time>2019-07-31T10:44:12Z</time>
      </trkpt>
      <trkpt lat="42.56579" lon="2.01298">
        <ele>2092.8</ele>
        <time>2019-07-31T10:44:17Z</time>
      </trkpt>
      <trkpt lat="42.56581" lon="2.013">
        <ele>2092.6</ele>
        <time>2019-07-31T10:44:22Z</time>
      </trkpt>
      <trkpt lat="42.56583" lon="2.01303">
        <ele>2093.4</ele>
        <time>2019-07-31T10:44:27Z</time>
      </trkpt>
      <trkpt lat="42.56585" lon="2.01306">
        <ele>2093</ele>
        <time>2019-07-31T10:44:32Z</time>
      </trkpt>
      <trkpt lat="42.56586" lon="2.01308">
        <ele>2093.4</ele>
        <time>2019-07-31T10:44:37Z</time>
      </trkpt>
      <trkpt lat="42.56587" lon="2.01309">
        <ele>2094.8</ele>
        <time>2019-07-31T10:44:42Z</time>
      </trkpt>
      <trkpt lat="42.56588" lon="2.01312">
        <ele>2096.4</ele>
        <time>2019-07-31T10:44:47Z</time>
      </trkpt>
      <trkpt lat="42.56588" lon="2.01313">
        <ele>2096.8</ele>
        <time>2019-07-31T10:44:52Z</time>
      </trkpt>
      <trkpt lat="42.56588" lon="2.01314">
        <ele>2098.6</ele>
        <time>2019-07-31T10:44:57Z</time>
      </trkpt>
      <trkpt lat="42.56589" lon="2.01316">
        <ele>2099.4</ele>
        <time>2019-07-31T10:45:02Z</time>
      </trkpt>
      <trkpt lat="42.56591" lon="2.01319">
        <ele>2099.4</ele>
        <time>2019-07-31T10:45:07Z</time>
      </trkpt>
      <trkpt lat="42.56592" lon="2.0132">
        <ele>2100.8</ele>
        <time>2019-07-31T10:45:12Z</time>
      </trkpt>
      <trkpt lat="42.56592" lon="2.0132">
        <ele>2100.6</ele>
        <time>2019-07-31T10:45:17Z</time>
      </trkpt>
      <trkpt lat="42.56591" lon="2.01322">
        <ele>2101</ele>
        <time>2019-07-31T10:45:22Z</time>
      </trkpt>
      <trkpt lat="42.56591" lon="2.01324">
        <ele>2102.6</ele>
        <time>2019-07-31T10:45:27Z</time>
      </trkpt>
      <trkpt lat="42.56591" lon="2.01324">
        <ele>2103.2</ele>
        <time>2019-07-31T10:45:32Z</time>
      </trkpt>
      <trkpt lat="42.56592" lon="2.01325">
        <ele>2103.6</ele>
        <time>2019-07-31T10:45:37Z</time>
      </trkpt>
      <trkpt lat="42.56592" lon="2.01329">
        <ele>2103</ele>
        <time>2019-07-31T10:45:42Z</time>
      </trkpt>
      <trkpt lat="42.56594" lon="2.01332">
        <ele>2105</ele>
        <time>2019-07-31T10:45:47Z</time>
      </trkpt>
      <trkpt lat="42.56595" lon="2.01335">
        <ele>2106</ele>
        <time>2019-07-31T10:45:52Z</time>
      </trkpt>
      <trkpt lat="42.56596" lon="2.0134">
        <ele>2104.4</ele>
        <time>2019-07-31T10:45:57Z</time>
      </trkpt>
      <trkpt lat="42.56596" lon="2.01342">
        <ele>2107.6</ele>
        <time>2019-07-31T10:46:02Z</time>
      </trkpt>
      <trkpt lat="42.56597" lon="2.01342">
        <ele>2107.6</ele>
        <time>2019-07-31T10:46:07Z</time>
      </trkpt>
      <trkpt lat="42.56597" lon="2.01343">
        <ele>2108.6</ele>
        <time>2019-07-31T10:46:37Z</time>
      </trkpt>
      <trkpt lat="42.56598" lon="2.01344">
        <ele>2105.4</ele>
        <time>2019-07-31T10:46:47Z</time>
      </trkpt>
      <trkpt lat="42.56599" lon="2.01347">
        <ele>2110</ele>
        <time>2019-07-31T10:48:37Z</time>
      </trkpt>
      <trkpt lat="42.56599" lon="2.01347">
        <ele>2111.2</ele>
        <time>2019-07-31T10:48:47Z</time>
      </trkpt>
      <trkpt lat="42.56599" lon="2.0135">
        <ele>2114.6</ele>
        <time>2019-07-31T10:48:52Z</time>
      </trkpt>
      <trkpt lat="42.56601" lon="2.01356">
        <ele>2111.6</ele>
        <time>2019-07-31T10:48:57Z</time>
      </trkpt>
      <trkpt lat="42.56602" lon="2.01361">
        <ele>2110.8</ele>
        <time>2019-07-31T10:49:02Z</time>
      </trkpt>
      <trkpt lat="42.56602" lon="2.01366">
        <ele>2112</ele>
        <time>2019-07-31T10:49:07Z</time>
      </trkpt>
      <trkpt lat="42.56599" lon="2.01371">
        <ele>2112.4</ele>
        <time>2019-07-31T10:49:12Z</time>
      </trkpt>
      <trkpt lat="42.56598" lon="2.01376">
        <ele>2112</ele>
        <time>2019-07-31T10:49:17Z</time>
      </trkpt>
      <trkpt lat="42.56599" lon="2.01385">
        <ele>2115</ele>
        <time>2019-07-31T10:49:22Z</time>
      </trkpt>
      <trkpt lat="42.56601" lon="2.01393">
        <ele>2112.2</ele>
        <time>2019-07-31T10:49:27Z</time>
      </trkpt>
      <trkpt lat="42.56603" lon="2.014">
        <ele>2111.4</ele>
        <time>2019-07-31T10:49:32Z</time>
      </trkpt>
      <trkpt lat="42.56603" lon="2.01407">
        <ele>2112.6</ele>
        <time>2019-07-31T10:49:37Z</time>
      </trkpt>
      <trkpt lat="42.56603" lon="2.0141">
        <ele>2111.8</ele>
        <time>2019-07-31T10:49:42Z</time>
      </trkpt>
      <trkpt lat="42.56602" lon="2.01415">
        <ele>2113.6</ele>
        <time>2019-07-31T10:49:47Z</time>
      </trkpt>
      <trkpt lat="42.56603" lon="2.01419">
        <ele>2114</ele>
        <time>2019-07-31T10:49:52Z</time>
      </trkpt>
      <trkpt lat="42.56604" lon="2.01422">
        <ele>2116.2</ele>
        <time>2019-07-31T10:49:57Z</time>
      </trkpt>
      <trkpt lat="42.56605" lon="2.01429">
        <ele>2115.2</ele>
        <time>2019-07-31T10:50:02Z</time>
      </trkpt>
      <trkpt lat="42.56606" lon="2.01434">
        <ele>2115.6</ele>
        <time>2019-07-31T10:50:07Z</time>
      </trkpt>
      <trkpt lat="42.56607" lon="2.01439">
        <ele>2117.2</ele>
        <time>2019-07-31T10:50:12Z</time>
      </trkpt>
      <trkpt lat="42.56608" lon="2.01444">
        <ele>2115.6</ele>
        <time>2019-07-31T10:50:17Z</time>
      </trkpt>
      <trkpt lat="42.56608" lon="2.01447">
        <ele>2116.2</ele>
        <time>2019-07-31T10:50:22Z</time>
      </trkpt>
      <trkpt lat="42.5661" lon="2.01449">
        <ele>2115.8</ele>
        <time>2019-07-31T10:50:27Z</time>
      </trkpt>
      <trkpt lat="42.56612" lon="2.01452">
        <ele>2117.4</ele>
        <time>2019-07-31T10:50:32Z</time>
      </trkpt>
      <trkpt lat="42.56613" lon="2.01456">
        <ele>2117.6</ele>
        <time>2019-07-31T10:50:37Z</time>
      </trkpt>
      <trkpt lat="42.56615" lon="2.0146">
        <ele>2120.8</ele>
        <time>2019-07-31T10:50:42Z</time>
      </trkpt>
      <trkpt lat="42.56617" lon="2.01466">
        <ele>2122.8</ele>
        <time>2019-07-31T10:50:47Z</time>
      </trkpt>
      <trkpt lat="42.56616" lon="2.0147">
        <ele>2125.2</ele>
        <time>2019-07-31T10:50:52Z</time>
      </trkpt>
      <trkpt lat="42.56618" lon="2.01474">
        <ele>2124</ele>
        <time>2019-07-31T10:50:57Z</time>
      </trkpt>
      <trkpt lat="42.5662" lon="2.01478">
        <ele>2127.2</ele>
        <time>2019-07-31T10:51:02Z</time>
      </trkpt>
      <trkpt lat="42.56621" lon="2.01483">
        <ele>2126.8</ele>
        <time>2019-07-31T10:51:07Z</time>
      </trkpt>
      <trkpt lat="42.56622" lon="2.01487">
        <ele>2127.6</ele>
        <time>2019-07-31T10:51:12Z</time>
      </trkpt>
      <trkpt lat="42.56624" lon="2.01489">
        <ele>2129</ele>
        <time>2019-07-31T10:51:17Z</time>
      </trkpt>
      <trkpt lat="42.56625" lon="2.0149">
        <ele>2130.2</ele>
        <time>2019-07-31T10:51:22Z</time>
      </trkpt>
      <trkpt lat="42.56626" lon="2.01494">
        <ele>2129</ele>
        <time>2019-07-31T10:51:27Z</time>
      </trkpt>
      <trkpt lat="42.56627" lon="2.01497">
        <ele>2131.8</ele>
        <time>2019-07-31T10:51:32Z</time>
      </trkpt>
      <trkpt lat="42.56629" lon="2.01502">
        <ele>2132.6</ele>
        <time>2019-07-31T10:51:37Z</time>
      </trkpt>
      <trkpt lat="42.5663" lon="2.01507">
        <ele>2134.4</ele>
        <time>2019-07-31T10:51:42Z</time>
      </trkpt>
      <trkpt lat="42.56632" lon="2.01511">
        <ele>2129.2</ele>
        <time>2019-07-31T10:51:47Z</time>
      </trkpt>
      <trkpt lat="42.56634" lon="2.01516">
        <ele>2131.2</ele>
        <time>2019-07-31T10:51:52Z</time>
      </trkpt>
      <trkpt lat="42.56637" lon="2.01522">
        <ele>2133.2</ele>
        <time>2019-07-31T10:51:57Z</time>
      </trkpt>
      <trkpt lat="42.56638" lon="2.01528">
        <ele>2136.4</ele>
        <time>2019-07-31T10:52:02Z</time>
      </trkpt>
      <trkpt lat="42.56639" lon="2.01534">
        <ele>2133.4</ele>
        <time>2019-07-31T10:52:07Z</time>
      </trkpt>
      <trkpt lat="42.5664" lon="2.0154">
        <ele>2137</ele>
        <time>2019-07-31T10:52:12Z</time>
      </trkpt>
      <trkpt lat="42.56641" lon="2.01543">
        <ele>2135</ele>
        <time>2019-07-31T10:52:17Z</time>
      </trkpt>
      <trkpt lat="42.56644" lon="2.01549">
        <ele>2136.6</ele>
        <time>2019-07-31T10:52:22Z</time>
      </trkpt>
      <trkpt lat="42.56647" lon="2.01555">
        <ele>2136.8</ele>
        <time>2019-07-31T10:52:27Z</time>
      </trkpt>
      <trkpt lat="42.56651" lon="2.0156">
        <ele>2137</ele>
        <time>2019-07-31T10:52:32Z</time>
      </trkpt>
      <trkpt lat="42.56655" lon="2.01566">
        <ele>2137.4</ele>
        <time>2019-07-31T10:52:37Z</time>
      </trkpt>
      <trkpt lat="42.56657" lon="2.01572">
        <ele>2134.6</ele>
        <time>2019-07-31T10:52:42Z</time>
      </trkpt>
      <trkpt lat="42.56658" lon="2.01577">
        <ele>2135.2</ele>
        <time>2019-07-31T10:52:47Z</time>
      </trkpt>
      <trkpt lat="42.56661" lon="2.01583">
        <ele>2137.6</ele>
        <time>2019-07-31T10:52:52Z</time>
      </trkpt>
      <trkpt lat="42.56665" lon="2.01588">
        <ele>2136</ele>
        <time>2019-07-31T10:52:57Z</time>
      </trkpt>
      <trkpt lat="42.56667" lon="2.01594">
        <ele>2139.6</ele>
        <time>2019-07-31T10:53:02Z</time>
      </trkpt>
      <trkpt lat="42.56672" lon="2.01599">
        <ele>2138</ele>
        <time>2019-07-31T10:53:07Z</time>
      </trkpt>
      <trkpt lat="42.56674" lon="2.01604">
        <ele>2137.6</ele>
        <time>2019-07-31T10:53:12Z</time>
      </trkpt>
      <trkpt lat="42.56676" lon="2.01608">
        <ele>2140</ele>
        <time>2019-07-31T10:53:17Z</time>
      </trkpt>
      <trkpt lat="42.56679" lon="2.01613">
        <ele>2141.6</ele>
        <time>2019-07-31T10:53:22Z</time>
      </trkpt>
      <trkpt lat="42.5668" lon="2.01617">
        <ele>2143.4</ele>
        <time>2019-07-31T10:53:27Z</time>
      </trkpt>
      <trkpt lat="42.56682" lon="2.01621">
        <ele>2142.8</ele>
        <time>2019-07-31T10:53:32Z</time>
      </trkpt>
      <trkpt lat="42.56681" lon="2.01624">
        <ele>2142.8</ele>
        <time>2019-07-31T10:53:37Z</time>
      </trkpt>
      <trkpt lat="42.56683" lon="2.01628">
        <ele>2143.2</ele>
        <time>2019-07-31T10:53:42Z</time>
      </trkpt>
      <trkpt lat="42.56685" lon="2.01632">
        <ele>2145.4</ele>
        <time>2019-07-31T10:53:47Z</time>
      </trkpt>
      <trkpt lat="42.56687" lon="2.01637">
        <ele>2146.4</ele>
        <time>2019-07-31T10:53:52Z</time>
      </trkpt>
      <trkpt lat="42.56689" lon="2.01642">
        <ele>2147.6</ele>
        <time>2019-07-31T10:53:57Z</time>
      </trkpt>
      <trkpt lat="42.56689" lon="2.01646">
        <ele>2148.4</ele>
        <time>2019-07-31T10:54:02Z</time>
      </trkpt>
      <trkpt lat="42.56689" lon="2.0165">
        <ele>2150</ele>
        <time>2019-07-31T10:54:07Z</time>
      </trkpt>
      <trkpt lat="42.56691" lon="2.01652">
        <ele>2149.2</ele>
        <time>2019-07-31T10:54:12Z</time>
      </trkpt>
      <trkpt lat="42.56692" lon="2.01655">
        <ele>2150.4</ele>
        <time>2019-07-31T10:54:17Z</time>
      </trkpt>
      <trkpt lat="42.56694" lon="2.01658">
        <ele>2151.6</ele>
        <time>2019-07-31T10:54:22Z</time>
      </trkpt>
      <trkpt lat="42.56694" lon="2.01659">
        <ele>2151</ele>
        <time>2019-07-31T10:54:27Z</time>
      </trkpt>
      <trkpt lat="42.56694" lon="2.01661">
        <ele>2150</ele>
        <time>2019-07-31T10:54:32Z</time>
      </trkpt>
      <trkpt lat="42.56694" lon="2.01663">
        <ele>2150.4</ele>
        <time>2019-07-31T10:54:37Z</time>
      </trkpt>
      <trkpt lat="42.56693" lon="2.01666">
        <ele>2152.4</ele>
        <time>2019-07-31T10:54:42Z</time>
      </trkpt>
      <trkpt lat="42.56694" lon="2.01669">
        <ele>2154.6</ele>
        <time>2019-07-31T10:54:47Z</time>
      </trkpt>
      <trkpt lat="42.56696" lon="2.01672">
        <ele>2153.4</ele>
        <time>2019-07-31T10:54:52Z</time>
      </trkpt>
      <trkpt lat="42.56696" lon="2.01675">
        <ele>2155.8</ele>
        <time>2019-07-31T10:54:57Z</time>
      </trkpt>
      <trkpt lat="42.56696" lon="2.01677">
        <ele>2155.2</ele>
        <time>2019-07-31T10:55:02Z</time>
      </trkpt>
      <trkpt lat="42.56697" lon="2.01678">
        <ele>2155.2</ele>
        <time>2019-07-31T10:55:07Z</time>
      </trkpt>
      <trkpt lat="42.56697" lon="2.01683">
        <ele>2156.4</ele>
        <time>2019-07-31T10:55:12Z</time>
      </trkpt>
      <trkpt lat="42.56699" lon="2.01688">
        <ele>2157</ele>
        <time>2019-07-31T10:55:17Z</time>
      </trkpt>
      <trkpt lat="42.56701" lon="2.01691">
        <ele>2156.8</ele>
        <time>2019-07-31T10:55:22Z</time>
      </trkpt>
      <trkpt lat="42.56702" lon="2.01695">
        <ele>2155</ele>
        <time>2019-07-31T10:55:27Z</time>
      </trkpt>
      <trkpt lat="42.56704" lon="2.01698">
        <ele>2156</ele>
        <time>2019-07-31T10:55:32Z</time>
      </trkpt>
      <trkpt lat="42.56704" lon="2.01702">
        <ele>2153.4</ele>
        <time>2019-07-31T10:55:37Z</time>
      </trkpt>
      <trkpt lat="42.56703" lon="2.01706">
        <ele>2154.6</ele>
        <time>2019-07-31T10:55:42Z</time>
      </trkpt>
      <trkpt lat="42.56703" lon="2.01708">
        <ele>2154.6</ele>
        <time>2019-07-31T10:55:47Z</time>
      </trkpt>
      <trkpt lat="42.56704" lon="2.01708">
        <ele>2154.6</ele>
        <time>2019-07-31T10:55:52Z</time>
      </trkpt>
      <trkpt lat="42.56705" lon="2.01711">
        <ele>2154.2</ele>
        <time>2019-07-31T10:55:57Z</time>
      </trkpt>
      <trkpt lat="42.56705" lon="2.01714">
        <ele>2150.2</ele>
        <time>2019-07-31T10:56:02Z</time>
      </trkpt>
      <trkpt lat="42.56706" lon="2.01717">
        <ele>2154.4</ele>
        <time>2019-07-31T10:56:07Z</time>
      </trkpt>
      <trkpt lat="42.56706" lon="2.01721">
        <ele>2156.8</ele>
        <time>2019-07-31T10:56:12Z</time>
      </trkpt>
      <trkpt lat="42.56709" lon="2.01725">
        <ele>2158</ele>
        <time>2019-07-31T10:56:17Z</time>
      </trkpt>
      <trkpt lat="42.56711" lon="2.01728">
        <ele>2159</ele>
        <time>2019-07-31T10:56:22Z</time>
      </trkpt>
      <trkpt lat="42.56713" lon="2.01732">
        <ele>2161.6</ele>
        <time>2019-07-31T10:56:27Z</time>
      </trkpt>
      <trkpt lat="42.56714" lon="2.01735">
        <ele>2157.8</ele>
        <time>2019-07-31T10:56:32Z</time>
      </trkpt>
      <trkpt lat="42.56714" lon="2.01738">
        <ele>2159.4</ele>
        <time>2019-07-31T10:56:37Z</time>
      </trkpt>
      <trkpt lat="42.56715" lon="2.01741">
        <ele>2159</ele>
        <time>2019-07-31T10:56:42Z</time>
      </trkpt>
      <trkpt lat="42.56716" lon="2.01743">
        <ele>2156.2</ele>
        <time>2019-07-31T10:56:47Z</time>
      </trkpt>
      <trkpt lat="42.56718" lon="2.01744">
        <ele>2157.4</ele>
        <time>2019-07-31T10:56:52Z</time>
      </trkpt>
      <trkpt lat="42.56719" lon="2.01746">
        <ele>2161.6</ele>
        <time>2019-07-31T10:56:57Z</time>
      </trkpt>
      <trkpt lat="42.5672" lon="2.0175">
        <ele>2161.2</ele>
        <time>2019-07-31T10:57:02Z</time>
      </trkpt>
      <trkpt lat="42.56721" lon="2.01752">
        <ele>2161.6</ele>
        <time>2019-07-31T10:57:07Z</time>
      </trkpt>
      <trkpt lat="42.56722" lon="2.01754">
        <ele>2163.4</ele>
        <time>2019-07-31T10:57:12Z</time>
      </trkpt>
      <trkpt lat="42.56723" lon="2.01758">
        <ele>2166</ele>
        <time>2019-07-31T10:57:17Z</time>
      </trkpt>
      <trkpt lat="42.56724" lon="2.01763">
        <ele>2166.2</ele>
        <time>2019-07-31T10:57:22Z</time>
      </trkpt>
      <trkpt lat="42.56724" lon="2.01767">
        <ele>2165</ele>
        <time>2019-07-31T10:57:27Z</time>
      </trkpt>
      <trkpt lat="42.56723" lon="2.01771">
        <ele>2165.8</ele>
        <time>2019-07-31T10:57:32Z</time>
      </trkpt>
      <trkpt lat="42.56724" lon="2.01774">
        <ele>2166.4</ele>
        <time>2019-07-31T10:57:37Z</time>
      </trkpt>
      <trkpt lat="42.56724" lon="2.01777">
        <ele>2165.6</ele>
        <time>2019-07-31T10:57:42Z</time>
      </trkpt>
      <trkpt lat="42.56725" lon="2.01782">
        <ele>2165.8</ele>
        <time>2019-07-31T10:57:48Z</time>
      </trkpt>
      <trkpt lat="42.56724" lon="2.01786">
        <ele>2169.2</ele>
        <time>2019-07-31T10:57:53Z</time>
      </trkpt>
      <trkpt lat="42.56725" lon="2.01789">
        <ele>2170.6</ele>
        <time>2019-07-31T10:57:58Z</time>
      </trkpt>
      <trkpt lat="42.56725" lon="2.01791">
        <ele>2167.2</ele>
        <time>2019-07-31T10:58:03Z</time>
      </trkpt>
      <trkpt lat="42.56726" lon="2.01792">
        <ele>2169.6</ele>
        <time>2019-07-31T10:58:08Z</time>
      </trkpt>
      <trkpt lat="42.56728" lon="2.01796">
        <ele>2174.2</ele>
        <time>2019-07-31T10:58:13Z</time>
      </trkpt>
      <trkpt lat="42.56729" lon="2.01802">
        <ele>2173</ele>
        <time>2019-07-31T10:58:18Z</time>
      </trkpt>
      <trkpt lat="42.5673" lon="2.01808">
        <ele>2171.2</ele>
        <time>2019-07-31T10:58:23Z</time>
      </trkpt>
      <trkpt lat="42.56732" lon="2.01814">
        <ele>2169.6</ele>
        <time>2019-07-31T10:58:28Z</time>
      </trkpt>
      <trkpt lat="42.56733" lon="2.01819">
        <ele>2173.2</ele>
        <time>2019-07-31T10:58:33Z</time>
      </trkpt>
      <trkpt lat="42.56735" lon="2.01823">
        <ele>2173.8</ele>
        <time>2019-07-31T10:58:38Z</time>
      </trkpt>
      <trkpt lat="42.56735" lon="2.01826">
        <ele>2175.8</ele>
        <time>2019-07-31T10:58:43Z</time>
      </trkpt>
      <trkpt lat="42.56736" lon="2.0183">
        <ele>2177.8</ele>
        <time>2019-07-31T10:58:48Z</time>
      </trkpt>
      <trkpt lat="42.56737" lon="2.01834">
        <ele>2176</ele>
        <time>2019-07-31T10:58:53Z</time>
      </trkpt>
      <trkpt lat="42.56739" lon="2.01837">
        <ele>2175.6</ele>
        <time>2019-07-31T10:58:58Z</time>
      </trkpt>
      <trkpt lat="42.56739" lon="2.0184">
        <ele>2175.8</ele>
        <time>2019-07-31T10:59:03Z</time>
      </trkpt>
      <trkpt lat="42.5674" lon="2.01843">
        <ele>2178.6</ele>
        <time>2019-07-31T10:59:08Z</time>
      </trkpt>
      <trkpt lat="42.5674" lon="2.01847">
        <ele>2180.2</ele>
        <time>2019-07-31T10:59:13Z</time>
      </trkpt>
      <trkpt lat="42.56741" lon="2.0185">
        <ele>2179.6</ele>
        <time>2019-07-31T10:59:18Z</time>
      </trkpt>
      <trkpt lat="42.56743" lon="2.01853">
        <ele>2181.6</ele>
        <time>2019-07-31T10:59:23Z</time>
      </trkpt>
      <trkpt lat="42.56745" lon="2.01858">
        <ele>2182</ele>
        <time>2019-07-31T10:59:28Z</time>
      </trkpt>
      <trkpt lat="42.56745" lon="2.01864">
        <ele>2183.2</ele>
        <time>2019-07-31T10:59:33Z</time>
      </trkpt>
      <trkpt lat="42.56746" lon="2.01869">
        <ele>2182.6</ele>
        <time>2019-07-31T10:59:38Z</time>
      </trkpt>
      <trkpt lat="42.56749" lon="2.01872">
        <ele>2179.6</ele>
        <time>2019-07-31T10:59:43Z</time>
      </trkpt>
      <trkpt lat="42.5675" lon="2.01879">
        <ele>2179.4</ele>
        <time>2019-07-31T10:59:48Z</time>
      </trkpt>
      <trkpt lat="42.56752" lon="2.01885">
        <ele>2183.8</ele>
        <time>2019-07-31T10:59:53Z</time>
      </trkpt>
      <trkpt lat="42.56753" lon="2.0189">
        <ele>2181.6</ele>
        <time>2019-07-31T10:59:58Z</time>
      </trkpt>
      <trkpt lat="42.56754" lon="2.01895">
        <ele>2185.4</ele>
        <time>2019-07-31T11:00:03Z</time>
      </trkpt>
      <trkpt lat="42.56755" lon="2.01901">
        <ele>2184</ele>
        <time>2019-07-31T11:00:08Z</time>
      </trkpt>
      <trkpt lat="42.56756" lon="2.01907">
        <ele>2182.4</ele>
        <time>2019-07-31T11:00:13Z</time>
      </trkpt>
      <trkpt lat="42.56758" lon="2.01912">
        <ele>2183.8</ele>
        <time>2019-07-31T11:00:18Z</time>
      </trkpt>
      <trkpt lat="42.5676" lon="2.01916">
        <ele>2185.8</ele>
        <time>2019-07-31T11:00:23Z</time>
      </trkpt>
      <trkpt lat="42.56761" lon="2.0192">
        <ele>2184.6</ele>
        <time>2019-07-31T11:00:28Z</time>
      </trkpt>
      <trkpt lat="42.56761" lon="2.01924">
        <ele>2188</ele>
        <time>2019-07-31T11:00:33Z</time>
      </trkpt>
      <trkpt lat="42.56761" lon="2.01928">
        <ele>2184.2</ele>
        <time>2019-07-31T11:00:38Z</time>
      </trkpt>
      <trkpt lat="42.5676" lon="2.01932">
        <ele>2185.8</ele>
        <time>2019-07-31T11:00:43Z</time>
      </trkpt>
      <trkpt lat="42.5676" lon="2.01936">
        <ele>2185.4</ele>
        <time>2019-07-31T11:00:48Z</time>
      </trkpt>
      <trkpt lat="42.56762" lon="2.0194">
        <ele>2188.4</ele>
        <time>2019-07-31T11:00:53Z</time>
      </trkpt>
      <trkpt lat="42.56763" lon="2.01945">
        <ele>2185.4</ele>
        <time>2019-07-31T11:00:58Z</time>
      </trkpt>
      <trkpt lat="42.56764" lon="2.01949">
        <ele>2187</ele>
        <time>2019-07-31T11:01:03Z</time>
      </trkpt>
      <trkpt lat="42.56763" lon="2.01952">
        <ele>2185.8</ele>
        <time>2019-07-31T11:01:08Z</time>
      </trkpt>
      <trkpt lat="42.56765" lon="2.01957">
        <ele>2183.8</ele>
        <time>2019-07-31T11:01:13Z</time>
      </trkpt>
      <trkpt lat="42.56768" lon="2.01961">
        <ele>2187.8</ele>
        <time>2019-07-31T11:01:18Z</time>
      </trkpt>
      <trkpt lat="42.56769" lon="2.01966">
        <ele>2185.2</ele>
        <time>2019-07-31T11:01:23Z</time>
      </trkpt>
      <trkpt lat="42.56772" lon="2.01971">
        <ele>2183.8</ele>
        <time>2019-07-31T11:01:28Z</time>
      </trkpt>
      <trkpt lat="42.56774" lon="2.01976">
        <ele>2183.6</ele>
        <time>2019-07-31T11:01:33Z</time>
      </trkpt>
      <trkpt lat="42.56776" lon="2.01982">
        <ele>2185.6</ele>
        <time>2019-07-31T11:01:38Z</time>
      </trkpt>
      <trkpt lat="42.56779" lon="2.01987">
        <ele>2184.6</ele>
        <time>2019-07-31T11:01:43Z</time>
      </trkpt>
      <trkpt lat="42.56782" lon="2.01991">
        <ele>2184.2</ele>
        <time>2019-07-31T11:01:48Z</time>
      </trkpt>
      <trkpt lat="42.56785" lon="2.01995">
        <ele>2186.6</ele>
        <time>2019-07-31T11:01:53Z</time>
      </trkpt>
      <trkpt lat="42.56788" lon="2.01998">
        <ele>2189.6</ele>
        <time>2019-07-31T11:01:58Z</time>
      </trkpt>
      <trkpt lat="42.56791" lon="2.02002">
        <ele>2186.6</ele>
        <time>2019-07-31T11:02:03Z</time>
      </trkpt>
      <trkpt lat="42.56794" lon="2.02006">
        <ele>2188.2</ele>
        <time>2019-07-31T11:02:08Z</time>
      </trkpt>
      <trkpt lat="42.56797" lon="2.02009">
        <ele>2187.4</ele>
        <time>2019-07-31T11:02:13Z</time>
      </trkpt>
      <trkpt lat="42.56799" lon="2.02013">
        <ele>2186.8</ele>
        <time>2019-07-31T11:02:18Z</time>
      </trkpt>
      <trkpt lat="42.56801" lon="2.02017">
        <ele>2183.8</ele>
        <time>2019-07-31T11:02:23Z</time>
      </trkpt>
      <trkpt lat="42.56801" lon="2.0202">
        <ele>2185.2</ele>
        <time>2019-07-31T11:02:28Z</time>
      </trkpt>
      <trkpt lat="42.56801" lon="2.02022">
        <ele>2184.6</ele>
        <time>2019-07-31T11:02:33Z</time>
      </trkpt>
      <trkpt lat="42.56803" lon="2.02025">
        <ele>2184.8</ele>
        <time>2019-07-31T11:02:38Z</time>
      </trkpt>
      <trkpt lat="42.56805" lon="2.02029">
        <ele>2185.2</ele>
        <time>2019-07-31T11:02:43Z</time>
      </trkpt>
      <trkpt lat="42.56806" lon="2.02033">
        <ele>2182.6</ele>
        <time>2019-07-31T11:02:48Z</time>
      </trkpt>
      <trkpt lat="42.56807" lon="2.02037">
        <ele>2183.8</ele>
        <time>2019-07-31T11:02:53Z</time>
      </trkpt>
      <trkpt lat="42.56809" lon="2.02041">
        <ele>2182.2</ele>
        <time>2019-07-31T11:02:58Z</time>
      </trkpt>
      <trkpt lat="42.56808" lon="2.02047">
        <ele>2183</ele>
        <time>2019-07-31T11:03:03Z</time>
      </trkpt>
      <trkpt lat="42.56808" lon="2.02053">
        <ele>2181</ele>
        <time>2019-07-31T11:03:08Z</time>
      </trkpt>
      <trkpt lat="42.56808" lon="2.02059">
        <ele>2180.8</ele>
        <time>2019-07-31T11:03:13Z</time>
      </trkpt>
      <trkpt lat="42.5681" lon="2.02065">
        <ele>2179.8</ele>
        <time>2019-07-31T11:03:18Z</time>
      </trkpt>
      <trkpt lat="42.56811" lon="2.02071">
        <ele>2178.8</ele>
        <time>2019-07-31T11:03:23Z</time>
      </trkpt>
      <trkpt lat="42.56813" lon="2.02077">
        <ele>2182</ele>
        <time>2019-07-31T11:03:28Z</time>
      </trkpt>
      <trkpt lat="42.56815" lon="2.02082">
        <ele>2180.6</ele>
        <time>2019-07-31T11:03:33Z</time>
      </trkpt>
      <trkpt lat="42.56816" lon="2.02088">
        <ele>2177</ele>
        <time>2019-07-31T11:03:38Z</time>
      </trkpt>
      <trkpt lat="42.56818" lon="2.02094">
        <ele>2175.8</ele>
        <time>2019-07-31T11:03:43Z</time>
      </trkpt>
      <trkpt lat="42.5682" lon="2.02099">
        <ele>2179.2</ele>
        <time>2019-07-31T11:03:48Z</time>
      </trkpt>
      <trkpt lat="42.5682" lon="2.02102">
        <ele>2179.8</ele>
        <time>2019-07-31T11:03:53Z</time>
      </trkpt>
      <trkpt lat="42.56821" lon="2.02106">
        <ele>2179.6</ele>
        <time>2019-07-31T11:03:58Z</time>
      </trkpt>
      <trkpt lat="42.56821" lon="2.02106">
        <ele>2178.2</ele>
        <time>2019-07-31T11:04:08Z</time>
      </trkpt>
      <trkpt lat="42.56822" lon="2.02107">
        <ele>2178.6</ele>
        <time>2019-07-31T11:04:13Z</time>
      </trkpt>
      <trkpt lat="42.56823" lon="2.02109">
        <ele>2177.6</ele>
        <time>2019-07-31T11:04:18Z</time>
      </trkpt>
      <trkpt lat="42.56824" lon="2.02114">
        <ele>2176.8</ele>
        <time>2019-07-31T11:04:23Z</time>
      </trkpt>
      <trkpt lat="42.56825" lon="2.02115">
        <ele>2175.4</ele>
        <time>2019-07-31T11:04:28Z</time>
      </trkpt>
      <trkpt lat="42.56825" lon="2.02115">
        <ele>2175.6</ele>
        <time>2019-07-31T11:04:33Z</time>
      </trkpt>
      <trkpt lat="42.56827" lon="2.02121">
        <ele>2172.4</ele>
        <time>2019-07-31T11:04:38Z</time>
      </trkpt>
      <trkpt lat="42.5683" lon="2.02128">
        <ele>2173.4</ele>
        <time>2019-07-31T11:04:43Z</time>
      </trkpt>
      <trkpt lat="42.56832" lon="2.02134">
        <ele>2172.8</ele>
        <time>2019-07-31T11:04:48Z</time>
      </trkpt>
      <trkpt lat="42.56833" lon="2.02139">
        <ele>2170.2</ele>
        <time>2019-07-31T11:04:53Z</time>
      </trkpt>
      <trkpt lat="42.56833" lon="2.02142">
        <ele>2174.8</ele>
        <time>2019-07-31T11:04:58Z</time>
      </trkpt>
      <trkpt lat="42.56834" lon="2.02147">
        <ele>2174.2</ele>
        <time>2019-07-31T11:05:03Z</time>
      </trkpt>
      <trkpt lat="42.56835" lon="2.0215">
        <ele>2173.4</ele>
        <time>2019-07-31T11:05:08Z</time>
      </trkpt>
      <trkpt lat="42.56837" lon="2.02153">
        <ele>2173</ele>
        <time>2019-07-31T11:05:13Z</time>
      </trkpt>
      <trkpt lat="42.56837" lon="2.02156">
        <ele>2172.8</ele>
        <time>2019-07-31T11:05:18Z</time>
      </trkpt>
      <trkpt lat="42.56839" lon="2.02159">
        <ele>2172</ele>
        <time>2019-07-31T11:05:23Z</time>
      </trkpt>
      <trkpt lat="42.56838" lon="2.02164">
        <ele>2169.8</ele>
        <time>2019-07-31T11:05:28Z</time>
      </trkpt>
      <trkpt lat="42.56837" lon="2.02168">
        <ele>2170.4</ele>
        <time>2019-07-31T11:05:33Z</time>
      </trkpt>
      <trkpt lat="42.56838" lon="2.02171">
        <ele>2167.4</ele>
        <time>2019-07-31T11:05:38Z</time>
      </trkpt>
      <trkpt lat="42.5684" lon="2.02175">
        <ele>2168</ele>
        <time>2019-07-31T11:05:43Z</time>
      </trkpt>
      <trkpt lat="42.5684" lon="2.0218">
        <ele>2166.2</ele>
        <time>2019-07-31T11:05:48Z</time>
      </trkpt>
      <trkpt lat="42.56841" lon="2.02184">
        <ele>2164.4</ele>
        <time>2019-07-31T11:05:53Z</time>
      </trkpt>
      <trkpt lat="42.56842" lon="2.02189">
        <ele>2165.8</ele>
        <time>2019-07-31T11:05:58Z</time>
      </trkpt>
      <trkpt lat="42.56844" lon="2.02193">
        <ele>2164.2</ele>
        <time>2019-07-31T11:06:03Z</time>
      </trkpt>
      <trkpt lat="42.56845" lon="2.02195">
        <ele>2165.6</ele>
        <time>2019-07-31T11:06:08Z</time>
      </trkpt>
      <trkpt lat="42.56849" lon="2.02199">
        <ele>2166.6</ele>
        <time>2019-07-31T11:06:13Z</time>
      </trkpt>
      <trkpt lat="42.56851" lon="2.02204">
        <ele>2165.4</ele>
        <time>2019-07-31T11:06:18Z</time>
      </trkpt>
      <trkpt lat="42.56854" lon="2.0221">
        <ele>2163.6</ele>
        <time>2019-07-31T11:06:23Z</time>
      </trkpt>
      <trkpt lat="42.56856" lon="2.02215">
        <ele>2165.2</ele>
        <time>2019-07-31T11:06:28Z</time>
      </trkpt>
      <trkpt lat="42.56858" lon="2.0222">
        <ele>2165</ele>
        <time>2019-07-31T11:06:33Z</time>
      </trkpt>
      <trkpt lat="42.56861" lon="2.02225">
        <ele>2166.4</ele>
        <time>2019-07-31T11:06:38Z</time>
      </trkpt>
      <trkpt lat="42.56863" lon="2.02229">
        <ele>2167.2</ele>
        <time>2019-07-31T11:06:43Z</time>
      </trkpt>
      <trkpt lat="42.56865" lon="2.02234">
        <ele>2164</ele>
        <time>2019-07-31T11:06:48Z</time>
      </trkpt>
      <trkpt lat="42.56868" lon="2.02237">
        <ele>2162.6</ele>
        <time>2019-07-31T11:06:53Z</time>
      </trkpt>
      <trkpt lat="42.56869" lon="2.02241">
        <ele>2162.6</ele>
        <time>2019-07-31T11:06:58Z</time>
      </trkpt>
      <trkpt lat="42.56869" lon="2.02245">
        <ele>2160.6</ele>
        <time>2019-07-31T11:07:03Z</time>
      </trkpt>
      <trkpt lat="42.56871" lon="2.02249">
        <ele>2161.2</ele>
        <time>2019-07-31T11:07:08Z</time>
      </trkpt>
      <trkpt lat="42.56871" lon="2.02252">
        <ele>2159.6</ele>
        <time>2019-07-31T11:07:13Z</time>
      </trkpt>
      <trkpt lat="42.56872" lon="2.02254">
        <ele>2159</ele>
        <time>2019-07-31T11:07:23Z</time>
      </trkpt>
      <trkpt lat="42.56873" lon="2.02255">
        <ele>2158.8</ele>
        <time>2019-07-31T11:07:28Z</time>
      </trkpt>
      <trkpt lat="42.56873" lon="2.02257">
        <ele>2158.6</ele>
        <time>2019-07-31T11:08:43Z</time>
      </trkpt>
      <trkpt lat="42.56874" lon="2.02256">
        <ele>2159.8</ele>
        <time>2019-07-31T11:34:19Z</time>
      </trkpt>
      <trkpt lat="42.56875" lon="2.02256">
        <ele>2160.6</ele>
        <time>2019-07-31T11:34:24Z</time>
      </trkpt>
      <trkpt lat="42.56875" lon="2.02255">
        <ele>2160.2</ele>
        <time>2019-07-31T11:37:00Z</time>
      </trkpt>
      <trkpt lat="42.56878" lon="2.02259">
        <ele>2160.2</ele>
        <time>2019-07-31T11:37:40Z</time>
      </trkpt>
      <trkpt lat="42.56881" lon="2.02262">
        <ele>2160.6</ele>
        <time>2019-07-31T11:37:45Z</time>
      </trkpt>
      <trkpt lat="42.56885" lon="2.02265">
        <ele>2159.4</ele>
        <time>2019-07-31T11:37:50Z</time>
      </trkpt>
      <trkpt lat="42.56887" lon="2.02263">
        <ele>2159.6</ele>
        <time>2019-07-31T11:37:55Z</time>
      </trkpt>
      <trkpt lat="42.56887" lon="2.02263">
        <ele>2159</ele>
        <time>2019-07-31T11:38:05Z</time>
      </trkpt>
      <trkpt lat="42.56888" lon="2.02262">
        <ele>2157</ele>
        <time>2019-07-31T11:38:10Z</time>
      </trkpt>
      <trkpt lat="42.56889" lon="2.02262">
        <ele>2156.2</ele>
        <time>2019-07-31T11:38:15Z</time>
      </trkpt>
      <trkpt lat="42.56893" lon="2.02259">
        <ele>2157</ele>
        <time>2019-07-31T11:38:20Z</time>
      </trkpt>
      <trkpt lat="42.56894" lon="2.02255">
        <ele>2158.2</ele>
        <time>2019-07-31T11:38:25Z</time>
      </trkpt>
      <trkpt lat="42.56897" lon="2.02253">
        <ele>2158.4</ele>
        <time>2019-07-31T11:38:30Z</time>
      </trkpt>
      <trkpt lat="42.569" lon="2.02252">
        <ele>2159.2</ele>
        <time>2019-07-31T11:38:35Z</time>
      </trkpt>
      <trkpt lat="42.56904" lon="2.02249">
        <ele>2161.4</ele>
        <time>2019-07-31T11:38:40Z</time>
      </trkpt>
      <trkpt lat="42.56909" lon="2.02246">
        <ele>2164.8</ele>
        <time>2019-07-31T11:38:45Z</time>
      </trkpt>
      <trkpt lat="42.56913" lon="2.02245">
        <ele>2165</ele>
        <time>2019-07-31T11:38:50Z</time>
      </trkpt>
      <trkpt lat="42.56917" lon="2.02244">
        <ele>2161.6</ele>
        <time>2019-07-31T11:38:55Z</time>
      </trkpt>
      <trkpt lat="42.5692" lon="2.02243">
        <ele>2162.6</ele>
        <time>2019-07-31T11:39:00Z</time>
      </trkpt>
      <trkpt lat="42.5692" lon="2.02243">
        <ele>2161.8</ele>
        <time>2019-07-31T11:39:15Z</time>
      </trkpt>
      <trkpt lat="42.56922" lon="2.02239">
        <ele>2160.4</ele>
        <time>2019-07-31T11:39:20Z</time>
      </trkpt>
      <trkpt lat="42.56924" lon="2.02236">
        <ele>2160.4</ele>
        <time>2019-07-31T11:39:25Z</time>
      </trkpt>
      <trkpt lat="42.56927" lon="2.02231">
        <ele>2163.4</ele>
        <time>2019-07-31T11:39:30Z</time>
      </trkpt>
      <trkpt lat="42.56929" lon="2.02229">
        <ele>2163.2</ele>
        <time>2019-07-31T11:39:35Z</time>
      </trkpt>
      <trkpt lat="42.56931" lon="2.02226">
        <ele>2164.6</ele>
        <time>2019-07-31T11:39:40Z</time>
      </trkpt>
      <trkpt lat="42.56936" lon="2.02221">
        <ele>2165</ele>
        <time>2019-07-31T11:39:45Z</time>
      </trkpt>
      <trkpt lat="42.56938" lon="2.02218">
        <ele>2164.2</ele>
        <time>2019-07-31T11:39:50Z</time>
      </trkpt>
      <trkpt lat="42.56941" lon="2.02214">
        <ele>2164.8</ele>
        <time>2019-07-31T11:39:55Z</time>
      </trkpt>
      <trkpt lat="42.56941" lon="2.02213">
        <ele>2164.8</ele>
        <time>2019-07-31T11:40:05Z</time>
      </trkpt>
      <trkpt lat="42.56944" lon="2.0221">
        <ele>2164.8</ele>
        <time>2019-07-31T11:40:10Z</time>
      </trkpt>
      <trkpt lat="42.56945" lon="2.02203">
        <ele>2167.4</ele>
        <time>2019-07-31T11:40:15Z</time>
      </trkpt>
      <trkpt lat="42.56947" lon="2.02196">
        <ele>2164</ele>
        <time>2019-07-31T11:40:20Z</time>
      </trkpt>
      <trkpt lat="42.5695" lon="2.02187">
        <ele>2166</ele>
        <time>2019-07-31T11:40:25Z</time>
      </trkpt>
      <trkpt lat="42.56953" lon="2.02176">
        <ele>2168.4</ele>
        <time>2019-07-31T11:40:30Z</time>
      </trkpt>
      <trkpt lat="42.56956" lon="2.02167">
        <ele>2166.4</ele>
        <time>2019-07-31T11:40:35Z</time>
      </trkpt>
      <trkpt lat="42.56959" lon="2.02158">
        <ele>2166.2</ele>
        <time>2019-07-31T11:40:40Z</time>
      </trkpt>
      <trkpt lat="42.56963" lon="2.02151">
        <ele>2166.8</ele>
        <time>2019-07-31T11:40:45Z</time>
      </trkpt>
      <trkpt lat="42.56967" lon="2.02147">
        <ele>2167</ele>
        <time>2019-07-31T11:40:50Z</time>
      </trkpt>
      <trkpt lat="42.5697" lon="2.02145">
        <ele>2167</ele>
        <time>2019-07-31T11:40:55Z</time>
      </trkpt>
      <trkpt lat="42.56973" lon="2.02142">
        <ele>2169.2</ele>
        <time>2019-07-31T11:41:00Z</time>
      </trkpt>
      <trkpt lat="42.56976" lon="2.02138">
        <ele>2166</ele>
        <time>2019-07-31T11:41:05Z</time>
      </trkpt>
      <trkpt lat="42.5698" lon="2.02135">
        <ele>2169.6</ele>
        <time>2019-07-31T11:41:10Z</time>
      </trkpt>
      <trkpt lat="42.56981" lon="2.02132">
        <ele>2166.4</ele>
        <time>2019-07-31T11:41:15Z</time>
      </trkpt>
      <trkpt lat="42.56984" lon="2.0213">
        <ele>2170</ele>
        <time>2019-07-31T11:41:20Z</time>
      </trkpt>
      <trkpt lat="42.56987" lon="2.02128">
        <ele>2169.2</ele>
        <time>2019-07-31T11:41:25Z</time>
      </trkpt>
      <trkpt lat="42.5699" lon="2.02124">
        <ele>2171.4</ele>
        <time>2019-07-31T11:41:30Z</time>
      </trkpt>
      <trkpt lat="42.56993" lon="2.02116">
        <ele>2168.8</ele>
        <time>2019-07-31T11:41:35Z</time>
      </trkpt>
      <trkpt lat="42.56996" lon="2.02112">
        <ele>2169.6</ele>
        <time>2019-07-31T11:41:40Z</time>
      </trkpt>
      <trkpt lat="42.56999" lon="2.0211">
        <ele>2169.4</ele>
        <time>2019-07-31T11:41:45Z</time>
      </trkpt>
      <trkpt lat="42.57002" lon="2.02107">
        <ele>2169.4</ele>
        <time>2019-07-31T11:41:50Z</time>
      </trkpt>
      <trkpt lat="42.57007" lon="2.02103">
        <ele>2168.8</ele>
        <time>2019-07-31T11:41:55Z</time>
      </trkpt>
      <trkpt lat="42.57011" lon="2.021">
        <ele>2171.2</ele>
        <time>2019-07-31T11:42:00Z</time>
      </trkpt>
      <trkpt lat="42.57016" lon="2.02097">
        <ele>2169.2</ele>
        <time>2019-07-31T11:42:05Z</time>
      </trkpt>
      <trkpt lat="42.5702" lon="2.02093">
        <ele>2168.6</ele>
        <time>2019-07-31T11:42:10Z</time>
      </trkpt>
      <trkpt lat="42.57025" lon="2.02091">
        <ele>2167.8</ele>
        <time>2019-07-31T11:42:15Z</time>
      </trkpt>
      <trkpt lat="42.5703" lon="2.02088">
        <ele>2168.6</ele>
        <time>2019-07-31T11:42:20Z</time>
      </trkpt>
      <trkpt lat="42.57034" lon="2.02088">
        <ele>2168.4</ele>
        <time>2019-07-31T11:42:25Z</time>
      </trkpt>
      <trkpt lat="42.57038" lon="2.02088">
        <ele>2167</ele>
        <time>2019-07-31T11:42:30Z</time>
      </trkpt>
      <trkpt lat="42.57043" lon="2.02089">
        <ele>2169</ele>
        <time>2019-07-31T11:42:35Z</time>
      </trkpt>
      <trkpt lat="42.57047" lon="2.0209">
        <ele>2170.6</ele>
        <time>2019-07-31T11:42:40Z</time>
      </trkpt>
      <trkpt lat="42.5705" lon="2.02089">
        <ele>2170.6</ele>
        <time>2019-07-31T11:42:45Z</time>
      </trkpt>
      <trkpt lat="42.57054" lon="2.02088">
        <ele>2169.4</ele>
        <time>2019-07-31T11:42:50Z</time>
      </trkpt>
      <trkpt lat="42.57057" lon="2.02085">
        <ele>2169</ele>
        <time>2019-07-31T11:42:55Z</time>
      </trkpt>
      <trkpt lat="42.57061" lon="2.02083">
        <ele>2169</ele>
        <time>2019-07-31T11:43:00Z</time>
      </trkpt>
      <trkpt lat="42.57064" lon="2.02079">
        <ele>2168.2</ele>
        <time>2019-07-31T11:43:05Z</time>
      </trkpt>
      <trkpt lat="42.57068" lon="2.02078">
        <ele>2167.4</ele>
        <time>2019-07-31T11:43:10Z</time>
      </trkpt>
      <trkpt lat="42.57072" lon="2.02076">
        <ele>2168.8</ele>
        <time>2019-07-31T11:43:15Z</time>
      </trkpt>
      <trkpt lat="42.57077" lon="2.02074">
        <ele>2169.8</ele>
        <time>2019-07-31T11:43:20Z</time>
      </trkpt>
      <trkpt lat="42.5708" lon="2.02072">
        <ele>2170.8</ele>
        <time>2019-07-31T11:43:25Z</time>
      </trkpt>
      <trkpt lat="42.57084" lon="2.0207">
        <ele>2170.8</ele>
        <time>2019-07-31T11:43:30Z</time>
      </trkpt>
      <trkpt lat="42.57087" lon="2.02068">
        <ele>2170.6</ele>
        <time>2019-07-31T11:43:35Z</time>
      </trkpt>
      <trkpt lat="42.5709" lon="2.02068">
        <ele>2169.8</ele>
        <time>2019-07-31T11:43:40Z</time>
      </trkpt>
      <trkpt lat="42.57092" lon="2.02067">
        <ele>2169</ele>
        <time>2019-07-31T11:43:45Z</time>
      </trkpt>
      <trkpt lat="42.57094" lon="2.02066">
        <ele>2171.2</ele>
        <time>2019-07-31T11:43:50Z</time>
      </trkpt>
      <trkpt lat="42.57096" lon="2.02063">
        <ele>2173</ele>
        <time>2019-07-31T11:43:55Z</time>
      </trkpt>
      <trkpt lat="42.57098" lon="2.02059">
        <ele>2170.2</ele>
        <time>2019-07-31T11:44:00Z</time>
      </trkpt>
      <trkpt lat="42.57099" lon="2.02056">
        <ele>2170</ele>
        <time>2019-07-31T11:44:05Z</time>
      </trkpt>
      <trkpt lat="42.571" lon="2.02052">
        <ele>2170.6</ele>
        <time>2019-07-31T11:44:10Z</time>
      </trkpt>
      <trkpt lat="42.57101" lon="2.02047">
        <ele>2168.8</ele>
        <time>2019-07-31T11:44:15Z</time>
      </trkpt>
      <trkpt lat="42.57102" lon="2.02043">
        <ele>2172.2</ele>
        <time>2019-07-31T11:44:20Z</time>
      </trkpt>
      <trkpt lat="42.57104" lon="2.0204">
        <ele>2171.6</ele>
        <time>2019-07-31T11:44:25Z</time>
      </trkpt>
      <trkpt lat="42.57106" lon="2.02037">
        <ele>2171.2</ele>
        <time>2019-07-31T11:44:30Z</time>
      </trkpt>
      <trkpt lat="42.57108" lon="2.02034">
        <ele>2170</ele>
        <time>2019-07-31T11:44:35Z</time>
      </trkpt>
      <trkpt lat="42.5711" lon="2.02032">
        <ele>2173.4</ele>
        <time>2019-07-31T11:44:40Z</time>
      </trkpt>
      <trkpt lat="42.57112" lon="2.02029">
        <ele>2174.8</ele>
        <time>2019-07-31T11:44:45Z</time>
      </trkpt>
      <trkpt lat="42.57113" lon="2.02026">
        <ele>2174.6</ele>
        <time>2019-07-31T11:44:50Z</time>
      </trkpt>
      <trkpt lat="42.57116" lon="2.02025">
        <ele>2176.8</ele>
        <time>2019-07-31T11:44:55Z</time>
      </trkpt>
      <trkpt lat="42.57118" lon="2.02021">
        <ele>2177.2</ele>
        <time>2019-07-31T11:45:00Z</time>
      </trkpt>
      <trkpt lat="42.57121" lon="2.0202">
        <ele>2174.4</ele>
        <time>2019-07-31T11:45:05Z</time>
      </trkpt>
      <trkpt lat="42.57124" lon="2.02018">
        <ele>2174.6</ele>
        <time>2019-07-31T11:45:10Z</time>
      </trkpt>
      <trkpt lat="42.57127" lon="2.02016">
        <ele>2176.8</ele>
        <time>2019-07-31T11:45:15Z</time>
      </trkpt>
      <trkpt lat="42.57131" lon="2.02013">
        <ele>2174</ele>
        <time>2019-07-31T11:45:20Z</time>
      </trkpt>
      <trkpt lat="42.57134" lon="2.02009">
        <ele>2176.2</ele>
        <time>2019-07-31T11:45:25Z</time>
      </trkpt>
      <trkpt lat="42.57138" lon="2.02006">
        <ele>2175.8</ele>
        <time>2019-07-31T11:45:30Z</time>
      </trkpt>
      <trkpt lat="42.57143" lon="2.02003">
        <ele>2178.2</ele>
        <time>2019-07-31T11:45:35Z</time>
      </trkpt>
      <trkpt lat="42.57147" lon="2.01998">
        <ele>2177.4</ele>
        <time>2019-07-31T11:45:40Z</time>
      </trkpt>
      <trkpt lat="42.5715" lon="2.01993">
        <ele>2177.6</ele>
        <time>2019-07-31T11:45:45Z</time>
      </trkpt>
      <trkpt lat="42.57152" lon="2.01987">
        <ele>2177.8</ele>
        <time>2019-07-31T11:45:50Z</time>
      </trkpt>
      <trkpt lat="42.57154" lon="2.01982">
        <ele>2180.4</ele>
        <time>2019-07-31T11:45:55Z</time>
      </trkpt>
      <trkpt lat="42.57158" lon="2.01979">
        <ele>2178</ele>
        <time>2019-07-31T11:46:00Z</time>
      </trkpt>
      <trkpt lat="42.57162" lon="2.01977">
        <ele>2180.2</ele>
        <time>2019-07-31T11:46:05Z</time>
      </trkpt>
      <trkpt lat="42.57166" lon="2.01976">
        <ele>2180</ele>
        <time>2019-07-31T11:46:10Z</time>
      </trkpt>
      <trkpt lat="42.5717" lon="2.01975">
        <ele>2179.6</ele>
        <time>2019-07-31T11:46:15Z</time>
      </trkpt>
      <trkpt lat="42.57174" lon="2.01972">
        <ele>2179.4</ele>
        <time>2019-07-31T11:46:20Z</time>
      </trkpt>
      <trkpt lat="42.57177" lon="2.01969">
        <ele>2179.8</ele>
        <time>2019-07-31T11:46:25Z</time>
      </trkpt>
      <trkpt lat="42.57181" lon="2.01969">
        <ele>2181</ele>
        <time>2019-07-31T11:46:30Z</time>
      </trkpt>
      <trkpt lat="42.57186" lon="2.01968">
        <ele>2179.6</ele>
        <time>2019-07-31T11:46:35Z</time>
      </trkpt>
      <trkpt lat="42.5719" lon="2.01966">
        <ele>2181.2</ele>
        <time>2019-07-31T11:46:40Z</time>
      </trkpt>
      <trkpt lat="42.57194" lon="2.01966">
        <ele>2180</ele>
        <time>2019-07-31T11:46:45Z</time>
      </trkpt>
      <trkpt lat="42.57198" lon="2.01967">
        <ele>2180.8</ele>
        <time>2019-07-31T11:46:50Z</time>
      </trkpt>
      <trkpt lat="42.57201" lon="2.01966">
        <ele>2180.2</ele>
        <time>2019-07-31T11:46:55Z</time>
      </trkpt>
      <trkpt lat="42.57204" lon="2.01968">
        <ele>2181.6</ele>
        <time>2019-07-31T11:47:00Z</time>
      </trkpt>
      <trkpt lat="42.57209" lon="2.01969">
        <ele>2181.2</ele>
        <time>2019-07-31T11:47:05Z</time>
      </trkpt>
      <trkpt lat="42.57213" lon="2.01969">
        <ele>2181.8</ele>
        <time>2019-07-31T11:47:10Z</time>
      </trkpt>
      <trkpt lat="42.57218" lon="2.01969">
        <ele>2180</ele>
        <time>2019-07-31T11:47:15Z</time>
      </trkpt>
      <trkpt lat="42.57223" lon="2.0197">
        <ele>2181.2</ele>
        <time>2019-07-31T11:47:20Z</time>
      </trkpt>
      <trkpt lat="42.57227" lon="2.01971">
        <ele>2182.4</ele>
        <time>2019-07-31T11:47:25Z</time>
      </trkpt>
      <trkpt lat="42.5723" lon="2.01971">
        <ele>2180.4</ele>
        <time>2019-07-31T11:47:30Z</time>
      </trkpt>
      <trkpt lat="42.57234" lon="2.01973">
        <ele>2182.6</ele>
        <time>2019-07-31T11:47:35Z</time>
      </trkpt>
      <trkpt lat="42.57237" lon="2.01973">
        <ele>2181.2</ele>
        <time>2019-07-31T11:47:40Z</time>
      </trkpt>
      <trkpt lat="42.57241" lon="2.01973">
        <ele>2180</ele>
        <time>2019-07-31T11:47:45Z</time>
      </trkpt>
      <trkpt lat="42.57245" lon="2.01973">
        <ele>2180.8</ele>
        <time>2019-07-31T11:47:50Z</time>
      </trkpt>
      <trkpt lat="42.5725" lon="2.01972">
        <ele>2181.8</ele>
        <time>2019-07-31T11:47:55Z</time>
      </trkpt>
      <trkpt lat="42.57254" lon="2.0197">
        <ele>2181.8</ele>
        <time>2019-07-31T11:48:00Z</time>
      </trkpt>
      <trkpt lat="42.57259" lon="2.01969">
        <ele>2180.6</ele>
        <time>2019-07-31T11:48:05Z</time>
      </trkpt>
      <trkpt lat="42.57263" lon="2.01968">
        <ele>2180.2</ele>
        <time>2019-07-31T11:48:10Z</time>
      </trkpt>
      <trkpt lat="42.57267" lon="2.01966">
        <ele>2183.6</ele>
        <time>2019-07-31T11:48:15Z</time>
      </trkpt>
      <trkpt lat="42.5727" lon="2.01966">
        <ele>2179</ele>
        <time>2019-07-31T11:48:20Z</time>
      </trkpt>
      <trkpt lat="42.57273" lon="2.01965">
        <ele>2182.8</ele>
        <time>2019-07-31T11:48:25Z</time>
      </trkpt>
      <trkpt lat="42.57275" lon="2.01966">
        <ele>2181.2</ele>
        <time>2019-07-31T11:48:30Z</time>
      </trkpt>
      <trkpt lat="42.57276" lon="2.01966">
        <ele>2181</ele>
        <time>2019-07-31T11:48:35Z</time>
      </trkpt>
      <trkpt lat="42.57278" lon="2.01965">
        <ele>2184.8</ele>
        <time>2019-07-31T11:48:40Z</time>
      </trkpt>
      <trkpt lat="42.57282" lon="2.01966">
        <ele>2184.4</ele>
        <time>2019-07-31T11:48:45Z</time>
      </trkpt>
      <trkpt lat="42.57285" lon="2.01967">
        <ele>2182</ele>
        <time>2019-07-31T11:48:50Z</time>
      </trkpt>
      <trkpt lat="42.57289" lon="2.01966">
        <ele>2182.4</ele>
        <time>2019-07-31T11:48:55Z</time>
      </trkpt>
      <trkpt lat="42.57291" lon="2.01966">
        <ele>2184.6</ele>
        <time>2019-07-31T11:49:00Z</time>
      </trkpt>
      <trkpt lat="42.57293" lon="2.01967">
        <ele>2182.4</ele>
        <time>2019-07-31T11:49:05Z</time>
      </trkpt>
      <trkpt lat="42.57295" lon="2.01968">
        <ele>2183</ele>
        <time>2019-07-31T11:49:10Z</time>
      </trkpt>
      <trkpt lat="42.57298" lon="2.01968">
        <ele>2185</ele>
        <time>2019-07-31T11:49:15Z</time>
      </trkpt>
      <trkpt lat="42.57299" lon="2.01967">
        <ele>2187.4</ele>
        <time>2019-07-31T11:49:20Z</time>
      </trkpt>
      <trkpt lat="42.57301" lon="2.01968">
        <ele>2187.2</ele>
        <time>2019-07-31T11:49:25Z</time>
      </trkpt>
      <trkpt lat="42.57303" lon="2.01967">
        <ele>2186.4</ele>
        <time>2019-07-31T11:49:30Z</time>
      </trkpt>
      <trkpt lat="42.57304" lon="2.01969">
        <ele>2191.4</ele>
        <time>2019-07-31T11:49:35Z</time>
      </trkpt>
      <trkpt lat="42.57306" lon="2.01971">
        <ele>2190.4</ele>
        <time>2019-07-31T11:49:40Z</time>
      </trkpt>
      <trkpt lat="42.57309" lon="2.01969">
        <ele>2189</ele>
        <time>2019-07-31T11:49:45Z</time>
      </trkpt>
      <trkpt lat="42.57312" lon="2.01969">
        <ele>2191.2</ele>
        <time>2019-07-31T11:49:50Z</time>
      </trkpt>
      <trkpt lat="42.57315" lon="2.01969">
        <ele>2189.6</ele>
        <time>2019-07-31T11:49:55Z</time>
      </trkpt>
      <trkpt lat="42.57318" lon="2.01969">
        <ele>2190.4</ele>
        <time>2019-07-31T11:50:00Z</time>
      </trkpt>
      <trkpt lat="42.57321" lon="2.01969">
        <ele>2190</ele>
        <time>2019-07-31T11:50:05Z</time>
      </trkpt>
      <trkpt lat="42.57322" lon="2.01969">
        <ele>2193.8</ele>
        <time>2019-07-31T11:50:10Z</time>
      </trkpt>
      <trkpt lat="42.57325" lon="2.01968">
        <ele>2193</ele>
        <time>2019-07-31T11:50:15Z</time>
      </trkpt>
      <trkpt lat="42.57328" lon="2.01967">
        <ele>2195.2</ele>
        <time>2019-07-31T11:50:20Z</time>
      </trkpt>
      <trkpt lat="42.57331" lon="2.01966">
        <ele>2194.8</ele>
        <time>2019-07-31T11:50:25Z</time>
      </trkpt>
      <trkpt lat="42.57333" lon="2.01964">
        <ele>2193.6</ele>
        <time>2019-07-31T11:50:30Z</time>
      </trkpt>
      <trkpt lat="42.57336" lon="2.01961">
        <ele>2193.6</ele>
        <time>2019-07-31T11:50:35Z</time>
      </trkpt>
      <trkpt lat="42.57339" lon="2.01959">
        <ele>2194.4</ele>
        <time>2019-07-31T11:50:40Z</time>
      </trkpt>
      <trkpt lat="42.57341" lon="2.01956">
        <ele>2195.2</ele>
        <time>2019-07-31T11:50:45Z</time>
      </trkpt>
      <trkpt lat="42.57344" lon="2.01953">
        <ele>2196.8</ele>
        <time>2019-07-31T11:50:50Z</time>
      </trkpt>
      <trkpt lat="42.57347" lon="2.01949">
        <ele>2197.2</ele>
        <time>2019-07-31T11:50:55Z</time>
      </trkpt>
      <trkpt lat="42.5735" lon="2.01946">
        <ele>2198.6</ele>
        <time>2019-07-31T11:51:00Z</time>
      </trkpt>
      <trkpt lat="42.57353" lon="2.01941">
        <ele>2199.4</ele>
        <time>2019-07-31T11:51:05Z</time>
      </trkpt>
      <trkpt lat="42.57355" lon="2.01936">
        <ele>2199.4</ele>
        <time>2019-07-31T11:51:10Z</time>
      </trkpt>
      <trkpt lat="42.57358" lon="2.01935">
        <ele>2198.4</ele>
        <time>2019-07-31T11:51:15Z</time>
      </trkpt>
      <trkpt lat="42.5736" lon="2.01933">
        <ele>2198.8</ele>
        <time>2019-07-31T11:51:20Z</time>
      </trkpt>
      <trkpt lat="42.57362" lon="2.0193">
        <ele>2199.8</ele>
        <time>2019-07-31T11:51:25Z</time>
      </trkpt>
      <trkpt lat="42.57365" lon="2.01927">
        <ele>2197.4</ele>
        <time>2019-07-31T11:51:30Z</time>
      </trkpt>
      <trkpt lat="42.57367" lon="2.01925">
        <ele>2196.2</ele>
        <time>2019-07-31T11:51:35Z</time>
      </trkpt>
      <trkpt lat="42.5737" lon="2.01922">
        <ele>2197.4</ele>
        <time>2019-07-31T11:51:40Z</time>
      </trkpt>
      <trkpt lat="42.57373" lon="2.01918">
        <ele>2197.8</ele>
        <time>2019-07-31T11:51:45Z</time>
      </trkpt>
      <trkpt lat="42.57376" lon="2.01914">
        <ele>2198.2</ele>
        <time>2019-07-31T11:51:50Z</time>
      </trkpt>
      <trkpt lat="42.57379" lon="2.0191">
        <ele>2197.4</ele>
        <time>2019-07-31T11:51:55Z</time>
      </trkpt>
      <trkpt lat="42.57381" lon="2.01906">
        <ele>2198.4</ele>
        <time>2019-07-31T11:52:00Z</time>
      </trkpt>
      <trkpt lat="42.57384" lon="2.01902">
        <ele>2199.4</ele>
        <time>2019-07-31T11:52:05Z</time>
      </trkpt>
      <trkpt lat="42.57387" lon="2.01899">
        <ele>2197</ele>
        <time>2019-07-31T11:52:10Z</time>
      </trkpt>
      <trkpt lat="42.57389" lon="2.01894">
        <ele>2198.6</ele>
        <time>2019-07-31T11:52:15Z</time>
      </trkpt>
      <trkpt lat="42.57392" lon="2.0189">
        <ele>2198.6</ele>
        <time>2019-07-31T11:52:20Z</time>
      </trkpt>
      <trkpt lat="42.57394" lon="2.01885">
        <ele>2196.8</ele>
        <time>2019-07-31T11:52:25Z</time>
      </trkpt>
      <trkpt lat="42.57396" lon="2.01881">
        <ele>2199</ele>
        <time>2019-07-31T11:52:30Z</time>
      </trkpt>
      <trkpt lat="42.57399" lon="2.01877">
        <ele>2200</ele>
        <time>2019-07-31T11:52:35Z</time>
      </trkpt>
      <trkpt lat="42.57402" lon="2.01873">
        <ele>2196.6</ele>
        <time>2019-07-31T11:52:40Z</time>
      </trkpt>
      <trkpt lat="42.57404" lon="2.0187">
        <ele>2197.4</ele>
        <time>2019-07-31T11:52:45Z</time>
      </trkpt>
      <trkpt lat="42.57406" lon="2.01865">
        <ele>2200.6</ele>
        <time>2019-07-31T11:52:50Z</time>
      </trkpt>
      <trkpt lat="42.57409" lon="2.01859">
        <ele>2198.8</ele>
        <time>2019-07-31T11:52:55Z</time>
      </trkpt>
      <trkpt lat="42.57412" lon="2.01855">
        <ele>2196.2</ele>
        <time>2019-07-31T11:53:00Z</time>
      </trkpt>
      <trkpt lat="42.57415" lon="2.01852">
        <ele>2193</ele>
        <time>2019-07-31T11:53:05Z</time>
      </trkpt>
      <trkpt lat="42.57418" lon="2.01848">
        <ele>2192.4</ele>
        <time>2019-07-31T11:53:10Z</time>
      </trkpt>
      <trkpt lat="42.5742" lon="2.01844">
        <ele>2193.2</ele>
        <time>2019-07-31T11:53:15Z</time>
      </trkpt>
      <trkpt lat="42.57422" lon="2.01841">
        <ele>2191.2</ele>
        <time>2019-07-31T11:53:20Z</time>
      </trkpt>
      <trkpt lat="42.57425" lon="2.01839">
        <ele>2191.4</ele>
        <time>2019-07-31T11:53:25Z</time>
      </trkpt>
      <trkpt lat="42.57427" lon="2.01838">
        <ele>2190</ele>
        <time>2019-07-31T11:53:30Z</time>
      </trkpt>
      <trkpt lat="42.57428" lon="2.01834">
        <ele>2191.4</ele>
        <time>2019-07-31T11:53:35Z</time>
      </trkpt>
      <trkpt lat="42.5743" lon="2.01831">
        <ele>2190.6</ele>
        <time>2019-07-31T11:53:40Z</time>
      </trkpt>
      <trkpt lat="42.57433" lon="2.01828">
        <ele>2191.6</ele>
        <time>2019-07-31T11:53:45Z</time>
      </trkpt>
      <trkpt lat="42.57437" lon="2.01825">
        <ele>2189.2</ele>
        <time>2019-07-31T11:53:50Z</time>
      </trkpt>
      <trkpt lat="42.5744" lon="2.0182">
        <ele>2188.2</ele>
        <time>2019-07-31T11:53:55Z</time>
      </trkpt>
      <trkpt lat="42.57444" lon="2.01817">
        <ele>2187.8</ele>
        <time>2019-07-31T11:54:00Z</time>
      </trkpt>
      <trkpt lat="42.57447" lon="2.01813">
        <ele>2186.6</ele>
        <time>2019-07-31T11:54:05Z</time>
      </trkpt>
      <trkpt lat="42.5745" lon="2.0181">
        <ele>2187</ele>
        <time>2019-07-31T11:54:10Z</time>
      </trkpt>
      <trkpt lat="42.57454" lon="2.01809">
        <ele>2186.8</ele>
        <time>2019-07-31T11:54:15Z</time>
      </trkpt>
      <trkpt lat="42.57457" lon="2.01807">
        <ele>2184.6</ele>
        <time>2019-07-31T11:54:20Z</time>
      </trkpt>
      <trkpt lat="42.5746" lon="2.01805">
        <ele>2184.6</ele>
        <time>2019-07-31T11:54:25Z</time>
      </trkpt>
      <trkpt lat="42.57465" lon="2.01804">
        <ele>2184.6</ele>
        <time>2019-07-31T11:54:30Z</time>
      </trkpt>
      <trkpt lat="42.5747" lon="2.01803">
        <ele>2184.4</ele>
        <time>2019-07-31T11:54:35Z</time>
      </trkpt>
      <trkpt lat="42.57473" lon="2.01802">
        <ele>2183.4</ele>
        <time>2019-07-31T11:54:40Z</time>
      </trkpt>
      <trkpt lat="42.57476" lon="2.018">
        <ele>2184.6</ele>
        <time>2019-07-31T11:54:45Z</time>
      </trkpt>
      <trkpt lat="42.57479" lon="2.01797">
        <ele>2185.6</ele>
        <time>2019-07-31T11:54:50Z</time>
      </trkpt>
      <trkpt lat="42.57482" lon="2.01793">
        <ele>2185.4</ele>
        <time>2019-07-31T11:54:55Z</time>
      </trkpt>
      <trkpt lat="42.57484" lon="2.01788">
        <ele>2186</ele>
        <time>2019-07-31T11:55:00Z</time>
      </trkpt>
      <trkpt lat="42.57486" lon="2.01783">
        <ele>2186</ele>
        <time>2019-07-31T11:55:05Z</time>
      </trkpt>
      <trkpt lat="42.57489" lon="2.01778">
        <ele>2186.6</ele>
        <time>2019-07-31T11:55:10Z</time>
      </trkpt>
      <trkpt lat="42.57493" lon="2.01776">
        <ele>2186</ele>
        <time>2019-07-31T11:55:15Z</time>
      </trkpt>
      <trkpt lat="42.57497" lon="2.01772">
        <ele>2187.8</ele>
        <time>2019-07-31T11:55:20Z</time>
      </trkpt>
      <trkpt lat="42.575" lon="2.01768">
        <ele>2184.8</ele>
        <time>2019-07-31T11:55:25Z</time>
      </trkpt>
      <trkpt lat="42.57503" lon="2.01764">
        <ele>2184</ele>
        <time>2019-07-31T11:55:30Z</time>
      </trkpt>
      <trkpt lat="42.57505" lon="2.0176">
        <ele>2182.4</ele>
        <time>2019-07-31T11:55:35Z</time>
      </trkpt>
      <trkpt lat="42.57509" lon="2.01756">
        <ele>2182.2</ele>
        <time>2019-07-31T11:55:40Z</time>
      </trkpt>
      <trkpt lat="42.57513" lon="2.01752">
        <ele>2182.4</ele>
        <time>2019-07-31T11:55:45Z</time>
      </trkpt>
      <trkpt lat="42.57517" lon="2.01748">
        <ele>2183.6</ele>
        <time>2019-07-31T11:55:50Z</time>
      </trkpt>
      <trkpt lat="42.5752" lon="2.01745">
        <ele>2180.8</ele>
        <time>2019-07-31T11:55:55Z</time>
      </trkpt>
      <trkpt lat="42.57524" lon="2.01745">
        <ele>2180.6</ele>
        <time>2019-07-31T11:56:00Z</time>
      </trkpt>
      <trkpt lat="42.57528" lon="2.01748">
        <ele>2181.8</ele>
        <time>2019-07-31T11:56:05Z</time>
      </trkpt>
      <trkpt lat="42.57531" lon="2.01752">
        <ele>2181.6</ele>
        <time>2019-07-31T11:56:10Z</time>
      </trkpt>
      <trkpt lat="42.57534" lon="2.01757">
        <ele>2179.6</ele>
        <time>2019-07-31T11:56:15Z</time>
      </trkpt>
      <trkpt lat="42.57537" lon="2.0176">
        <ele>2183.6</ele>
        <time>2019-07-31T11:56:20Z</time>
      </trkpt>
      <trkpt lat="42.57539" lon="2.01762">
        <ele>2180.6</ele>
        <time>2019-07-31T11:56:25Z</time>
      </trkpt>
      <trkpt lat="42.57539" lon="2.01763">
        <ele>2181.4</ele>
        <time>2019-07-31T11:56:40Z</time>
      </trkpt>
      <trkpt lat="42.57541" lon="2.01766">
        <ele>2183.2</ele>
        <time>2019-07-31T11:58:00Z</time>
      </trkpt>
      <trkpt lat="42.57545" lon="2.01766">
        <ele>2183.2</ele>
        <time>2019-07-31T11:58:05Z</time>
      </trkpt>
      <trkpt lat="42.57549" lon="2.01766">
        <ele>2182</ele>
        <time>2019-07-31T11:58:10Z</time>
      </trkpt>
      <trkpt lat="42.57552" lon="2.01766">
        <ele>2181.8</ele>
        <time>2019-07-31T11:58:15Z</time>
      </trkpt>
      <trkpt lat="42.57555" lon="2.01767">
        <ele>2184.2</ele>
        <time>2019-07-31T11:58:20Z</time>
      </trkpt>
      <trkpt lat="42.57556" lon="2.01767">
        <ele>2182.8</ele>
        <time>2019-07-31T11:58:25Z</time>
      </trkpt>
      <trkpt lat="42.57559" lon="2.01768">
        <ele>2183.6</ele>
        <time>2019-07-31T11:58:30Z</time>
      </trkpt>
      <trkpt lat="42.57561" lon="2.01768">
        <ele>2184.6</ele>
        <time>2019-07-31T11:58:35Z</time>
      </trkpt>
      <trkpt lat="42.57564" lon="2.01767">
        <ele>2184.8</ele>
        <time>2019-07-31T11:58:40Z</time>
      </trkpt>
      <trkpt lat="42.57567" lon="2.01767">
        <ele>2184.8</ele>
        <time>2019-07-31T11:58:45Z</time>
      </trkpt>
      <trkpt lat="42.5757" lon="2.01767">
        <ele>2187.6</ele>
        <time>2019-07-31T11:58:50Z</time>
      </trkpt>
      <trkpt lat="42.57574" lon="2.01767">
        <ele>2186</ele>
        <time>2019-07-31T11:58:55Z</time>
      </trkpt>
      <trkpt lat="42.57577" lon="2.01765">
        <ele>2187.8</ele>
        <time>2019-07-31T11:59:00Z</time>
      </trkpt>
      <trkpt lat="42.57579" lon="2.01765">
        <ele>2188.6</ele>
        <time>2019-07-31T11:59:05Z</time>
      </trkpt>
      <trkpt lat="42.57581" lon="2.01763">
        <ele>2188.4</ele>
        <time>2019-07-31T11:59:10Z</time>
      </trkpt>
      <trkpt lat="42.57581" lon="2.0176">
        <ele>2189.8</ele>
        <time>2019-07-31T11:59:15Z</time>
      </trkpt>
      <trkpt lat="42.57583" lon="2.01758">
        <ele>2188.6</ele>
        <time>2019-07-31T11:59:20Z</time>
      </trkpt>
      <trkpt lat="42.57584" lon="2.01756">
        <ele>2187.6</ele>
        <time>2019-07-31T11:59:25Z</time>
      </trkpt>
      <trkpt lat="42.57585" lon="2.01755">
        <ele>2190</ele>
        <time>2019-07-31T11:59:30Z</time>
      </trkpt>
      <trkpt lat="42.57588" lon="2.01755">
        <ele>2191</ele>
        <time>2019-07-31T11:59:35Z</time>
      </trkpt>
      <trkpt lat="42.5759" lon="2.01755">
        <ele>2192.4</ele>
        <time>2019-07-31T11:59:40Z</time>
      </trkpt>
      <trkpt lat="42.57593" lon="2.01753">
        <ele>2194</ele>
        <time>2019-07-31T11:59:45Z</time>
      </trkpt>
      <trkpt lat="42.57595" lon="2.01752">
        <ele>2194.6</ele>
        <time>2019-07-31T11:59:50Z</time>
      </trkpt>
      <trkpt lat="42.57595" lon="2.01751">
        <ele>2194.6</ele>
        <time>2019-07-31T11:59:55Z</time>
      </trkpt>
      <trkpt lat="42.57595" lon="2.0175">
        <ele>2194.2</ele>
        <time>2019-07-31T12:00:10Z</time>
      </trkpt>
      <trkpt lat="42.57596" lon="2.0175">
        <ele>2193.8</ele>
        <time>2019-07-31T12:00:20Z</time>
      </trkpt>
      <trkpt lat="42.57597" lon="2.01749">
        <ele>2193</ele>
        <time>2019-07-31T12:00:25Z</time>
      </trkpt>
      <trkpt lat="42.57599" lon="2.01746">
        <ele>2192.8</ele>
        <time>2019-07-31T12:00:35Z</time>
      </trkpt>
      <trkpt lat="42.57601" lon="2.01744">
        <ele>2194</ele>
        <time>2019-07-31T12:00:40Z</time>
      </trkpt>
      <trkpt lat="42.57604" lon="2.01744">
        <ele>2196.4</ele>
        <time>2019-07-31T12:00:45Z</time>
      </trkpt>
      <trkpt lat="42.57604" lon="2.01741">
        <ele>2195.4</ele>
        <time>2019-07-31T12:00:50Z</time>
      </trkpt>
      <trkpt lat="42.57606" lon="2.0174">
        <ele>2197.4</ele>
        <time>2019-07-31T12:00:55Z</time>
      </trkpt>
      <trkpt lat="42.57608" lon="2.01738">
        <ele>2198</ele>
        <time>2019-07-31T12:01:00Z</time>
      </trkpt>
      <trkpt lat="42.57611" lon="2.01736">
        <ele>2201</ele>
        <time>2019-07-31T12:01:05Z</time>
      </trkpt>
      <trkpt lat="42.57613" lon="2.01734">
        <ele>2200.6</ele>
        <time>2019-07-31T12:01:10Z</time>
      </trkpt>
      <trkpt lat="42.57615" lon="2.01731">
        <ele>2195.2</ele>
        <time>2019-07-31T12:01:16Z</time>
      </trkpt>
      <trkpt lat="42.57618" lon="2.01729">
        <ele>2203.4</ele>
        <time>2019-07-31T12:01:21Z</time>
      </trkpt>
      <trkpt lat="42.5762" lon="2.01725">
        <ele>2202</ele>
        <time>2019-07-31T12:01:26Z</time>
      </trkpt>
      <trkpt lat="42.57622" lon="2.01722">
        <ele>2202.2</ele>
        <time>2019-07-31T12:01:31Z</time>
      </trkpt>
      <trkpt lat="42.57624" lon="2.01718">
        <ele>2203.4</ele>
        <time>2019-07-31T12:01:36Z</time>
      </trkpt>
      <trkpt lat="42.57625" lon="2.01714">
        <ele>2203.8</ele>
        <time>2019-07-31T12:01:41Z</time>
      </trkpt>
      <trkpt lat="42.57625" lon="2.01708">
        <ele>2206.8</ele>
        <time>2019-07-31T12:01:47Z</time>
      </trkpt>
      <trkpt lat="42.57626" lon="2.01704">
        <ele>2206</ele>
        <time>2019-07-31T12:01:52Z</time>
      </trkpt>
      <trkpt lat="42.57626" lon="2.01699">
        <ele>2207.2</ele>
        <time>2019-07-31T12:01:57Z</time>
      </trkpt>
      <trkpt lat="42.57627" lon="2.01696">
        <ele>2205.2</ele>
        <time>2019-07-31T12:02:02Z</time>
      </trkpt>
      <trkpt lat="42.57627" lon="2.01691">
        <ele>2206.4</ele>
        <time>2019-07-31T12:02:07Z</time>
      </trkpt>
      <trkpt lat="42.57628" lon="2.01688">
        <ele>2207.8</ele>
        <time>2019-07-31T12:02:12Z</time>
      </trkpt>
      <trkpt lat="42.57629" lon="2.01684">
        <ele>2208.8</ele>
        <time>2019-07-31T12:02:17Z</time>
      </trkpt>
      <trkpt lat="42.57631" lon="2.01682">
        <ele>2208</ele>
        <time>2019-07-31T12:02:22Z</time>
      </trkpt>
      <trkpt lat="42.57633" lon="2.0168">
        <ele>2209.2</ele>
        <time>2019-07-31T12:02:27Z</time>
      </trkpt>
      <trkpt lat="42.57635" lon="2.01677">
        <ele>2208.8</ele>
        <time>2019-07-31T12:02:32Z</time>
      </trkpt>
      <trkpt lat="42.57638" lon="2.01675">
        <ele>2209.8</ele>
        <time>2019-07-31T12:02:37Z</time>
      </trkpt>
      <trkpt lat="42.57639" lon="2.01669">
        <ele>2209</ele>
        <time>2019-07-31T12:02:42Z</time>
      </trkpt>
      <trkpt lat="42.57642" lon="2.01665">
        <ele>2209.8</ele>
        <time>2019-07-31T12:02:47Z</time>
      </trkpt>
      <trkpt lat="42.57645" lon="2.0166">
        <ele>2208.4</ele>
        <time>2019-07-31T12:02:52Z</time>
      </trkpt>
      <trkpt lat="42.57645" lon="2.01659">
        <ele>2211.2</ele>
        <time>2019-07-31T12:02:57Z</time>
      </trkpt>
      <trkpt lat="42.57645" lon="2.01659">
        <ele>2210.6</ele>
        <time>2019-07-31T12:03:07Z</time>
      </trkpt>
      <trkpt lat="42.57646" lon="2.01657">
        <ele>2212.4</ele>
        <time>2019-07-31T12:03:12Z</time>
      </trkpt>
      <trkpt lat="42.57648" lon="2.01654">
        <ele>2211.8</ele>
        <time>2019-07-31T12:03:17Z</time>
      </trkpt>
      <trkpt lat="42.5765" lon="2.01648">
        <ele>2210.4</ele>
        <time>2019-07-31T12:03:22Z</time>
      </trkpt>
      <trkpt lat="42.57652" lon="2.01643">
        <ele>2210.6</ele>
        <time>2019-07-31T12:03:27Z</time>
      </trkpt>
      <trkpt lat="42.57654" lon="2.0164">
        <ele>2210.2</ele>
        <time>2019-07-31T12:03:32Z</time>
      </trkpt>
      <trkpt lat="42.57655" lon="2.01636">
        <ele>2212.2</ele>
        <time>2019-07-31T12:03:37Z</time>
      </trkpt>
      <trkpt lat="42.57657" lon="2.01631">
        <ele>2213</ele>
        <time>2019-07-31T12:03:42Z</time>
      </trkpt>
      <trkpt lat="42.57658" lon="2.01627">
        <ele>2216.4</ele>
        <time>2019-07-31T12:03:47Z</time>
      </trkpt>
      <trkpt lat="42.5766" lon="2.01623">
        <ele>2214.6</ele>
        <time>2019-07-31T12:03:52Z</time>
      </trkpt>
      <trkpt lat="42.57662" lon="2.0162">
        <ele>2214.4</ele>
        <time>2019-07-31T12:03:57Z</time>
      </trkpt>
      <trkpt lat="42.57663" lon="2.01616">
        <ele>2217.4</ele>
        <time>2019-07-31T12:04:02Z</time>
      </trkpt>
      <trkpt lat="42.57663" lon="2.01611">
        <ele>2219.4</ele>
        <time>2019-07-31T12:04:07Z</time>
      </trkpt>
      <trkpt lat="42.57663" lon="2.01605">
        <ele>2219</ele>
        <time>2019-07-31T12:04:12Z</time>
      </trkpt>
      <trkpt lat="42.57665" lon="2.016">
        <ele>2219.2</ele>
        <time>2019-07-31T12:04:17Z</time>
      </trkpt>
      <trkpt lat="42.57667" lon="2.01596">
        <ele>2217</ele>
        <time>2019-07-31T12:04:22Z</time>
      </trkpt>
      <trkpt lat="42.57669" lon="2.01591">
        <ele>2220.2</ele>
        <time>2019-07-31T12:04:27Z</time>
      </trkpt>
      <trkpt lat="42.57671" lon="2.01587">
        <ele>2220.4</ele>
        <time>2019-07-31T12:04:32Z</time>
      </trkpt>
      <trkpt lat="42.57673" lon="2.01583">
        <ele>2224.2</ele>
        <time>2019-07-31T12:04:37Z</time>
      </trkpt>
      <trkpt lat="42.57675" lon="2.0158">
        <ele>2221.6</ele>
        <time>2019-07-31T12:04:42Z</time>
      </trkpt>
      <trkpt lat="42.57677" lon="2.01577">
        <ele>2222.4</ele>
        <time>2019-07-31T12:04:47Z</time>
      </trkpt>
      <trkpt lat="42.57679" lon="2.01573">
        <ele>2220.6</ele>
        <time>2019-07-31T12:04:52Z</time>
      </trkpt>
      <trkpt lat="42.57682" lon="2.01568">
        <ele>2221</ele>
        <time>2019-07-31T12:04:57Z</time>
      </trkpt>
      <trkpt lat="42.57684" lon="2.01565">
        <ele>2221</ele>
        <time>2019-07-31T12:05:02Z</time>
      </trkpt>
      <trkpt lat="42.57686" lon="2.01561">
        <ele>2222</ele>
        <time>2019-07-31T12:05:07Z</time>
      </trkpt>
      <trkpt lat="42.57689" lon="2.01557">
        <ele>2221.8</ele>
        <time>2019-07-31T12:05:12Z</time>
      </trkpt>
      <trkpt lat="42.57691" lon="2.01554">
        <ele>2222</ele>
        <time>2019-07-31T12:05:17Z</time>
      </trkpt>
      <trkpt lat="42.57694" lon="2.0155">
        <ele>2222</ele>
        <time>2019-07-31T12:05:22Z</time>
      </trkpt>
      <trkpt lat="42.57695" lon="2.01546">
        <ele>2222.4</ele>
        <time>2019-07-31T12:05:27Z</time>
      </trkpt>
      <trkpt lat="42.57698" lon="2.01544">
        <ele>2225.8</ele>
        <time>2019-07-31T12:05:32Z</time>
      </trkpt>
      <trkpt lat="42.57699" lon="2.0154">
        <ele>2226</ele>
        <time>2019-07-31T12:05:37Z</time>
      </trkpt>
      <trkpt lat="42.57701" lon="2.01536">
        <ele>2225</ele>
        <time>2019-07-31T12:05:42Z</time>
      </trkpt>
      <trkpt lat="42.57702" lon="2.01531">
        <ele>2226.2</ele>
        <time>2019-07-31T12:05:47Z</time>
      </trkpt>
      <trkpt lat="42.57703" lon="2.01527">
        <ele>2223.4</ele>
        <time>2019-07-31T12:05:52Z</time>
      </trkpt>
      <trkpt lat="42.57705" lon="2.01524">
        <ele>2225.8</ele>
        <time>2019-07-31T12:05:57Z</time>
      </trkpt>
      <trkpt lat="42.57706" lon="2.01519">
        <ele>2226.6</ele>
        <time>2019-07-31T12:06:02Z</time>
      </trkpt>
      <trkpt lat="42.57706" lon="2.01514">
        <ele>2226.8</ele>
        <time>2019-07-31T12:06:07Z</time>
      </trkpt>
      <trkpt lat="42.57706" lon="2.01508">
        <ele>2227.4</ele>
        <time>2019-07-31T12:06:12Z</time>
      </trkpt>
      <trkpt lat="42.57705" lon="2.01503">
        <ele>2228.6</ele>
        <time>2019-07-31T12:06:17Z</time>
      </trkpt>
      <trkpt lat="42.57705" lon="2.01499">
        <ele>2228</ele>
        <time>2019-07-31T12:06:22Z</time>
      </trkpt>
      <trkpt lat="42.57705" lon="2.01495">
        <ele>2227</ele>
        <time>2019-07-31T12:06:27Z</time>
      </trkpt>
      <trkpt lat="42.57705" lon="2.01491">
        <ele>2226.2</ele>
        <time>2019-07-31T12:06:32Z</time>
      </trkpt>
      <trkpt lat="42.57706" lon="2.01487">
        <ele>2227.6</ele>
        <time>2019-07-31T12:06:37Z</time>
      </trkpt>
      <trkpt lat="42.57708" lon="2.01484">
        <ele>2227</ele>
        <time>2019-07-31T12:06:42Z</time>
      </trkpt>
      <trkpt lat="42.5771" lon="2.0148">
        <ele>2226</ele>
        <time>2019-07-31T12:06:47Z</time>
      </trkpt>
      <trkpt lat="42.57712" lon="2.01477">
        <ele>2227.6</ele>
        <time>2019-07-31T12:06:52Z</time>
      </trkpt>
      <trkpt lat="42.57712" lon="2.01474">
        <ele>2226.6</ele>
        <time>2019-07-31T12:06:57Z</time>
      </trkpt>
      <trkpt lat="42.57714" lon="2.0147">
        <ele>2228</ele>
        <time>2019-07-31T12:07:02Z</time>
      </trkpt>
      <trkpt lat="42.57716" lon="2.01467">
        <ele>2228.4</ele>
        <time>2019-07-31T12:07:07Z</time>
      </trkpt>
      <trkpt lat="42.57718" lon="2.01464">
        <ele>2228</ele>
        <time>2019-07-31T12:07:12Z</time>
      </trkpt>
      <trkpt lat="42.57718" lon="2.0146">
        <ele>2224.8</ele>
        <time>2019-07-31T12:07:17Z</time>
      </trkpt>
      <trkpt lat="42.5772" lon="2.01457">
        <ele>2226.4</ele>
        <time>2019-07-31T12:07:23Z</time>
      </trkpt>
      <trkpt lat="42.5772" lon="2.01453">
        <ele>2224</ele>
        <time>2019-07-31T12:07:28Z</time>
      </trkpt>
      <trkpt lat="42.57723" lon="2.0145">
        <ele>2224.2</ele>
        <time>2019-07-31T12:07:33Z</time>
      </trkpt>
      <trkpt lat="42.57724" lon="2.01448">
        <ele>2223.8</ele>
        <time>2019-07-31T12:07:38Z</time>
      </trkpt>
      <trkpt lat="42.57724" lon="2.01446">
        <ele>2223.6</ele>
        <time>2019-07-31T12:07:43Z</time>
      </trkpt>
      <trkpt lat="42.57724" lon="2.01446">
        <ele>2222.6</ele>
        <time>2019-07-31T12:08:03Z</time>
      </trkpt>
      <trkpt lat="42.57726" lon="2.01443">
        <ele>2222.6</ele>
        <time>2019-07-31T12:08:08Z</time>
      </trkpt>
      <trkpt lat="42.57729" lon="2.01439">
        <ele>2221.4</ele>
        <time>2019-07-31T12:08:13Z</time>
      </trkpt>
      <trkpt lat="42.57732" lon="2.01435">
        <ele>2220.4</ele>
        <time>2019-07-31T12:08:18Z</time>
      </trkpt>
      <trkpt lat="42.57734" lon="2.0143">
        <ele>2219.2</ele>
        <time>2019-07-31T12:08:23Z</time>
      </trkpt>
      <trkpt lat="42.57736" lon="2.01426">
        <ele>2219.4</ele>
        <time>2019-07-31T12:08:28Z</time>
      </trkpt>
      <trkpt lat="42.57737" lon="2.01422">
        <ele>2219.2</ele>
        <time>2019-07-31T12:08:33Z</time>
      </trkpt>
      <trkpt lat="42.5774" lon="2.0142">
        <ele>2217.6</ele>
        <time>2019-07-31T12:08:38Z</time>
      </trkpt>
      <trkpt lat="42.57742" lon="2.01417">
        <ele>2217</ele>
        <time>2019-07-31T12:08:43Z</time>
      </trkpt>
      <trkpt lat="42.57745" lon="2.01414">
        <ele>2218.6</ele>
        <time>2019-07-31T12:08:48Z</time>
      </trkpt>
      <trkpt lat="42.57747" lon="2.01411">
        <ele>2217.8</ele>
        <time>2019-07-31T12:08:53Z</time>
      </trkpt>
      <trkpt lat="42.5775" lon="2.01408">
        <ele>2215.8</ele>
        <time>2019-07-31T12:08:58Z</time>
      </trkpt>
      <trkpt lat="42.57751" lon="2.01404">
        <ele>2216.2</ele>
        <time>2019-07-31T12:09:03Z</time>
      </trkpt>
      <trkpt lat="42.57752" lon="2.01402">
        <ele>2214.8</ele>
        <time>2019-07-31T12:09:08Z</time>
      </trkpt>
      <trkpt lat="42.57753" lon="2.01401">
        <ele>2215.8</ele>
        <time>2019-07-31T12:09:13Z</time>
      </trkpt>
      <trkpt lat="42.57756" lon="2.014">
        <ele>2211.6</ele>
        <time>2019-07-31T12:09:18Z</time>
      </trkpt>
      <trkpt lat="42.57758" lon="2.01396">
        <ele>2212</ele>
        <time>2019-07-31T12:09:23Z</time>
      </trkpt>
      <trkpt lat="42.5776" lon="2.01393">
        <ele>2209</ele>
        <time>2019-07-31T12:09:28Z</time>
      </trkpt>
      <trkpt lat="42.57762" lon="2.0139">
        <ele>2211.4</ele>
        <time>2019-07-31T12:09:33Z</time>
      </trkpt>
      <trkpt lat="42.57764" lon="2.01388">
        <ele>2209.6</ele>
        <time>2019-07-31T12:09:38Z</time>
      </trkpt>
      <trkpt lat="42.57766" lon="2.01388">
        <ele>2211</ele>
        <time>2019-07-31T12:09:43Z</time>
      </trkpt>
      <trkpt lat="42.57769" lon="2.01385">
        <ele>2208</ele>
        <time>2019-07-31T12:09:48Z</time>
      </trkpt>
      <trkpt lat="42.5777" lon="2.01384">
        <ele>2211</ele>
        <time>2019-07-31T12:09:53Z</time>
      </trkpt>
      <trkpt lat="42.57772" lon="2.01382">
        <ele>2210</ele>
        <time>2019-07-31T12:09:58Z</time>
      </trkpt>
      <trkpt lat="42.57772" lon="2.01381">
        <ele>2205.6</ele>
        <time>2019-07-31T12:10:03Z</time>
      </trkpt>
      <trkpt lat="42.57774" lon="2.01379">
        <ele>2205.6</ele>
        <time>2019-07-31T12:10:08Z</time>
      </trkpt>
      <trkpt lat="42.57775" lon="2.01377">
        <ele>2204.8</ele>
        <time>2019-07-31T12:10:13Z</time>
      </trkpt>
      <trkpt lat="42.57775" lon="2.01375">
        <ele>2205</ele>
        <time>2019-07-31T12:10:18Z</time>
      </trkpt>
      <trkpt lat="42.57776" lon="2.01374">
        <ele>2206</ele>
        <time>2019-07-31T12:10:23Z</time>
      </trkpt>
      <trkpt lat="42.57777" lon="2.01374">
        <ele>2207.2</ele>
        <time>2019-07-31T12:10:28Z</time>
      </trkpt>
      <trkpt lat="42.57779" lon="2.01373">
        <ele>2205.8</ele>
        <time>2019-07-31T12:10:33Z</time>
      </trkpt>
      <trkpt lat="42.57782" lon="2.01373">
        <ele>2204.2</ele>
        <time>2019-07-31T12:10:43Z</time>
      </trkpt>
      <trkpt lat="42.57783" lon="2.01372">
        <ele>2202.6</ele>
        <time>2019-07-31T12:10:48Z</time>
      </trkpt>
      <trkpt lat="42.57787" lon="2.01371">
        <ele>2203.6</ele>
        <time>2019-07-31T12:10:53Z</time>
      </trkpt>
      <trkpt lat="42.57789" lon="2.01371">
        <ele>2203.8</ele>
        <time>2019-07-31T12:10:58Z</time>
      </trkpt>
      <trkpt lat="42.57789" lon="2.01371">
        <ele>2201.2</ele>
        <time>2019-07-31T12:12:03Z</time>
      </trkpt>
      <trkpt lat="42.57789" lon="2.0137">
        <ele>2202</ele>
        <time>2019-07-31T12:12:08Z</time>
      </trkpt>
      <trkpt lat="42.57792" lon="2.01369">
        <ele>2200.2</ele>
        <time>2019-07-31T12:12:13Z</time>
      </trkpt>
      <trkpt lat="42.57795" lon="2.01369">
        <ele>2199.2</ele>
        <time>2019-07-31T12:12:18Z</time>
      </trkpt>
      <trkpt lat="42.57799" lon="2.01368">
        <ele>2199.4</ele>
        <time>2019-07-31T12:12:23Z</time>
      </trkpt>
      <trkpt lat="42.57802" lon="2.01365">
        <ele>2201.2</ele>
        <time>2019-07-31T12:12:28Z</time>
      </trkpt>
      <trkpt lat="42.57806" lon="2.01363">
        <ele>2197.6</ele>
        <time>2019-07-31T12:12:33Z</time>
      </trkpt>
      <trkpt lat="42.57811" lon="2.01361">
        <ele>2195.8</ele>
        <time>2019-07-31T12:12:38Z</time>
      </trkpt>
      <trkpt lat="42.57815" lon="2.0136">
        <ele>2192.6</ele>
        <time>2019-07-31T12:12:43Z</time>
      </trkpt>
      <trkpt lat="42.5782" lon="2.01359">
        <ele>2193.2</ele>
        <time>2019-07-31T12:12:48Z</time>
      </trkpt>
      <trkpt lat="42.57824" lon="2.01357">
        <ele>2196.8</ele>
        <time>2019-07-31T12:12:53Z</time>
      </trkpt>
      <trkpt lat="42.57829" lon="2.01355">
        <ele>2193.8</ele>
        <time>2019-07-31T12:12:58Z</time>
      </trkpt>
      <trkpt lat="42.57833" lon="2.01355">
        <ele>2194.6</ele>
        <time>2019-07-31T12:13:03Z</time>
      </trkpt>
      <trkpt lat="42.57836" lon="2.01354">
        <ele>2191.2</ele>
        <time>2019-07-31T12:13:08Z</time>
      </trkpt>
      <trkpt lat="42.57842" lon="2.01353">
        <ele>2192</ele>
        <time>2019-07-31T12:13:13Z</time>
      </trkpt>
      <trkpt lat="42.57847" lon="2.01351">
        <ele>2190.2</ele>
        <time>2019-07-31T12:13:18Z</time>
      </trkpt>
      <trkpt lat="42.57851" lon="2.01348">
        <ele>2192.2</ele>
        <time>2019-07-31T12:13:23Z</time>
      </trkpt>
      <trkpt lat="42.57853" lon="2.01347">
        <ele>2192.4</ele>
        <time>2019-07-31T12:13:28Z</time>
      </trkpt>
      <trkpt lat="42.57854" lon="2.01346">
        <ele>2195</ele>
        <time>2019-07-31T12:13:33Z</time>
      </trkpt>
      <trkpt lat="42.57858" lon="2.01343">
        <ele>2192.4</ele>
        <time>2019-07-31T12:13:38Z</time>
      </trkpt>
      <trkpt lat="42.57862" lon="2.0134">
        <ele>2193.6</ele>
        <time>2019-07-31T12:13:43Z</time>
      </trkpt>
      <trkpt lat="42.57866" lon="2.01337">
        <ele>2193.2</ele>
        <time>2019-07-31T12:13:48Z</time>
      </trkpt>
      <trkpt lat="42.57871" lon="2.01333">
        <ele>2193.2</ele>
        <time>2019-07-31T12:13:53Z</time>
      </trkpt>
      <trkpt lat="42.57875" lon="2.01329">
        <ele>2190.8</ele>
        <time>2019-07-31T12:13:58Z</time>
      </trkpt>
      <trkpt lat="42.57879" lon="2.01325">
        <ele>2191.6</ele>
        <time>2019-07-31T12:14:03Z</time>
      </trkpt>
      <trkpt lat="42.57883" lon="2.01322">
        <ele>2192.8</ele>
        <time>2019-07-31T12:14:08Z</time>
      </trkpt>
      <trkpt lat="42.57887" lon="2.01318">
        <ele>2195</ele>
        <time>2019-07-31T12:14:13Z</time>
      </trkpt>
      <trkpt lat="42.57892" lon="2.01316">
        <ele>2192.6</ele>
        <time>2019-07-31T12:14:18Z</time>
      </trkpt>
      <trkpt lat="42.57893" lon="2.01316">
        <ele>2191</ele>
        <time>2019-07-31T12:14:23Z</time>
      </trkpt>
      <trkpt lat="42.57894" lon="2.01316">
        <ele>2190.8</ele>
        <time>2019-07-31T12:14:33Z</time>
      </trkpt>
      <trkpt lat="42.57895" lon="2.01315">
        <ele>2193</ele>
        <time>2019-07-31T12:14:38Z</time>
      </trkpt>
      <trkpt lat="42.57895" lon="2.01315">
        <ele>2190.2</ele>
        <time>2019-07-31T12:15:03Z</time>
      </trkpt>
      <trkpt lat="42.57896" lon="2.01314">
        <ele>2189.8</ele>
        <time>2019-07-31T12:15:08Z</time>
      </trkpt>
      <trkpt lat="42.57896" lon="2.01314">
        <ele>2190.6</ele>
        <time>2019-07-31T12:15:18Z</time>
      </trkpt>
      <trkpt lat="42.57902" lon="2.01314">
        <ele>2191.6</ele>
        <time>2019-07-31T12:15:23Z</time>
      </trkpt>
      <trkpt lat="42.57907" lon="2.01315">
        <ele>2188.8</ele>
        <time>2019-07-31T12:15:28Z</time>
      </trkpt>
      <trkpt lat="42.57911" lon="2.01317">
        <ele>2187.8</ele>
        <time>2019-07-31T12:15:33Z</time>
      </trkpt>
      <trkpt lat="42.57915" lon="2.01318">
        <ele>2189.8</ele>
        <time>2019-07-31T12:15:38Z</time>
      </trkpt>
      <trkpt lat="42.5792" lon="2.01319">
        <ele>2191</ele>
        <time>2019-07-31T12:15:43Z</time>
      </trkpt>
      <trkpt lat="42.57925" lon="2.0132">
        <ele>2190.2</ele>
        <time>2019-07-31T12:15:48Z</time>
      </trkpt>
      <trkpt lat="42.5793" lon="2.0132">
        <ele>2187.8</ele>
        <time>2019-07-31T12:15:53Z</time>
      </trkpt>
      <trkpt lat="42.57934" lon="2.01321">
        <ele>2189.4</ele>
        <time>2019-07-31T12:15:58Z</time>
      </trkpt>
      <trkpt lat="42.57939" lon="2.01319">
        <ele>2187.2</ele>
        <time>2019-07-31T12:16:03Z</time>
      </trkpt>
      <trkpt lat="42.57945" lon="2.01318">
        <ele>2187.6</ele>
        <time>2019-07-31T12:16:08Z</time>
      </trkpt>
      <trkpt lat="42.5795" lon="2.01317">
        <ele>2187</ele>
        <time>2019-07-31T12:16:13Z</time>
      </trkpt>
      <trkpt lat="42.57955" lon="2.01318">
        <ele>2189.8</ele>
        <time>2019-07-31T12:16:18Z</time>
      </trkpt>
      <trkpt lat="42.5796" lon="2.01318">
        <ele>2189.4</ele>
        <time>2019-07-31T12:16:23Z</time>
      </trkpt>
      <trkpt lat="42.57964" lon="2.01319">
        <ele>2186.8</ele>
        <time>2019-07-31T12:16:28Z</time>
      </trkpt>
      <trkpt lat="42.57968" lon="2.01316">
        <ele>2188.8</ele>
        <time>2019-07-31T12:16:33Z</time>
      </trkpt>
      <trkpt lat="42.57972" lon="2.01312">
        <ele>2190.2</ele>
        <time>2019-07-31T12:16:38Z</time>
      </trkpt>
      <trkpt lat="42.57976" lon="2.0131">
        <ele>2188.8</ele>
        <time>2019-07-31T12:16:43Z</time>
      </trkpt>
      <trkpt lat="42.5798" lon="2.01308">
        <ele>2188</ele>
        <time>2019-07-31T12:16:48Z</time>
      </trkpt>
      <trkpt lat="42.57984" lon="2.01305">
        <ele>2190.6</ele>
        <time>2019-07-31T12:16:53Z</time>
      </trkpt>
      <trkpt lat="42.57989" lon="2.01302">
        <ele>2190</ele>
        <time>2019-07-31T12:16:58Z</time>
      </trkpt>
      <trkpt lat="42.57993" lon="2.013">
        <ele>2191</ele>
        <time>2019-07-31T12:17:03Z</time>
      </trkpt>
      <trkpt lat="42.57997" lon="2.01297">
        <ele>2190.2</ele>
        <time>2019-07-31T12:17:08Z</time>
      </trkpt>
      <trkpt lat="42.58" lon="2.01296">
        <ele>2189</ele>
        <time>2019-07-31T12:17:13Z</time>
      </trkpt>
      <trkpt lat="42.58001" lon="2.01295">
        <ele>2188.8</ele>
        <time>2019-07-31T12:17:18Z</time>
      </trkpt>
      <trkpt lat="42.58005" lon="2.01289">
        <ele>2189.2</ele>
        <time>2019-07-31T12:17:23Z</time>
      </trkpt>
      <trkpt lat="42.58009" lon="2.01288">
        <ele>2189.4</ele>
        <time>2019-07-31T12:17:28Z</time>
      </trkpt>
      <trkpt lat="42.58013" lon="2.01289">
        <ele>2187.6</ele>
        <time>2019-07-31T12:17:33Z</time>
      </trkpt>
      <trkpt lat="42.58017" lon="2.01288">
        <ele>2190.2</ele>
        <time>2019-07-31T12:17:38Z</time>
      </trkpt>
      <trkpt lat="42.58022" lon="2.01286">
        <ele>2188</ele>
        <time>2019-07-31T12:17:43Z</time>
      </trkpt>
      <trkpt lat="42.58026" lon="2.01284">
        <ele>2188.6</ele>
        <time>2019-07-31T12:17:48Z</time>
      </trkpt>
      <trkpt lat="42.5803" lon="2.01283">
        <ele>2188.2</ele>
        <time>2019-07-31T12:17:53Z</time>
      </trkpt>
      <trkpt lat="42.58033" lon="2.01284">
        <ele>2189.2</ele>
        <time>2019-07-31T12:17:58Z</time>
      </trkpt>
      <trkpt lat="42.58036" lon="2.01284">
        <ele>2189.8</ele>
        <time>2019-07-31T12:18:03Z</time>
      </trkpt>
      <trkpt lat="42.58037" lon="2.01285">
        <ele>2190.6</ele>
        <time>2019-07-31T12:18:08Z</time>
      </trkpt>
      <trkpt lat="42.58042" lon="2.01286">
        <ele>2191.4</ele>
        <time>2019-07-31T12:18:13Z</time>
      </trkpt>
      <trkpt lat="42.58045" lon="2.01289">
        <ele>2190.6</ele>
        <time>2019-07-31T12:18:18Z</time>
      </trkpt>
      <trkpt lat="42.5805" lon="2.01291">
        <ele>2189</ele>
        <time>2019-07-31T12:18:23Z</time>
      </trkpt>
      <trkpt lat="42.58055" lon="2.01292">
        <ele>2187.8</ele>
        <time>2019-07-31T12:18:28Z</time>
      </trkpt>
      <trkpt lat="42.5806" lon="2.01293">
        <ele>2188</ele>
        <time>2019-07-31T12:18:33Z</time>
      </trkpt>
      <trkpt lat="42.58063" lon="2.01294">
        <ele>2187.2</ele>
        <time>2019-07-31T12:18:38Z</time>
      </trkpt>
      <trkpt lat="42.58067" lon="2.01294">
        <ele>2188.2</ele>
        <time>2019-07-31T12:18:43Z</time>
      </trkpt>
      <trkpt lat="42.58072" lon="2.01294">
        <ele>2187.2</ele>
        <time>2019-07-31T12:18:48Z</time>
      </trkpt>
      <trkpt lat="42.58077" lon="2.01295">
        <ele>2187.4</ele>
        <time>2019-07-31T12:18:53Z</time>
      </trkpt>
      <trkpt lat="42.58082" lon="2.01295">
        <ele>2188.8</ele>
        <time>2019-07-31T12:18:58Z</time>
      </trkpt>
      <trkpt lat="42.58086" lon="2.01294">
        <ele>2185.4</ele>
        <time>2019-07-31T12:19:03Z</time>
      </trkpt>
      <trkpt lat="42.58089" lon="2.01292">
        <ele>2186.4</ele>
        <time>2019-07-31T12:19:08Z</time>
      </trkpt>
      <trkpt lat="42.58093" lon="2.01289">
        <ele>2186</ele>
        <time>2019-07-31T12:19:13Z</time>
      </trkpt>
      <trkpt lat="42.58097" lon="2.01288">
        <ele>2186.6</ele>
        <time>2019-07-31T12:19:18Z</time>
      </trkpt>
      <trkpt lat="42.58101" lon="2.01289">
        <ele>2185.8</ele>
        <time>2019-07-31T12:19:23Z</time>
      </trkpt>
      <trkpt lat="42.58105" lon="2.0129">
        <ele>2188.4</ele>
        <time>2019-07-31T12:19:28Z</time>
      </trkpt>
      <trkpt lat="42.5811" lon="2.0129">
        <ele>2188.6</ele>
        <time>2019-07-31T12:19:33Z</time>
      </trkpt>
      <trkpt lat="42.58112" lon="2.01291">
        <ele>2186</ele>
        <time>2019-07-31T12:19:38Z</time>
      </trkpt>
      <trkpt lat="42.58116" lon="2.01292">
        <ele>2183.4</ele>
        <time>2019-07-31T12:19:43Z</time>
      </trkpt>
      <trkpt lat="42.58123" lon="2.01291">
        <ele>2183.2</ele>
        <time>2019-07-31T12:19:48Z</time>
      </trkpt>
      <trkpt lat="42.58127" lon="2.01288">
        <ele>2185.8</ele>
        <time>2019-07-31T12:19:53Z</time>
      </trkpt>
      <trkpt lat="42.58132" lon="2.01286">
        <ele>2183.4</ele>
        <time>2019-07-31T12:19:58Z</time>
      </trkpt>
      <trkpt lat="42.58137" lon="2.01285">
        <ele>2183.8</ele>
        <time>2019-07-31T12:20:03Z</time>
      </trkpt>
      <trkpt lat="42.58142" lon="2.01285">
        <ele>2186.2</ele>
        <time>2019-07-31T12:20:08Z</time>
      </trkpt>
      <trkpt lat="42.58145" lon="2.01285">
        <ele>2180.8</ele>
        <time>2019-07-31T12:20:13Z</time>
      </trkpt>
      <trkpt lat="42.58149" lon="2.01284">
        <ele>2180.6</ele>
        <time>2019-07-31T12:20:18Z</time>
      </trkpt>
      <trkpt lat="42.58153" lon="2.01283">
        <ele>2181</ele>
        <time>2019-07-31T12:20:23Z</time>
      </trkpt>
      <trkpt lat="42.58157" lon="2.01283">
        <ele>2179.6</ele>
        <time>2019-07-31T12:20:28Z</time>
      </trkpt>
      <trkpt lat="42.58161" lon="2.01282">
        <ele>2179.4</ele>
        <time>2019-07-31T12:20:33Z</time>
      </trkpt>
      <trkpt lat="42.58166" lon="2.01281">
        <ele>2177.8</ele>
        <time>2019-07-31T12:20:38Z</time>
      </trkpt>
      <trkpt lat="42.58169" lon="2.0128">
        <ele>2179</ele>
        <time>2019-07-31T12:20:43Z</time>
      </trkpt>
      <trkpt lat="42.58171" lon="2.01283">
        <ele>2181</ele>
        <time>2019-07-31T12:20:48Z</time>
      </trkpt>
      <trkpt lat="42.58173" lon="2.01284">
        <ele>2182.8</ele>
        <time>2019-07-31T12:20:53Z</time>
      </trkpt>
      <trkpt lat="42.58175" lon="2.01286">
        <ele>2184.2</ele>
        <time>2019-07-31T12:20:58Z</time>
      </trkpt>
      <trkpt lat="42.58178" lon="2.01288">
        <ele>2185</ele>
        <time>2019-07-31T12:21:03Z</time>
      </trkpt>
      <trkpt lat="42.58181" lon="2.0129">
        <ele>2183.8</ele>
        <time>2019-07-31T12:21:08Z</time>
      </trkpt>
      <trkpt lat="42.58186" lon="2.01292">
        <ele>2184.8</ele>
        <time>2019-07-31T12:21:13Z</time>
      </trkpt>
      <trkpt lat="42.5819" lon="2.01292">
        <ele>2184.4</ele>
        <time>2019-07-31T12:21:18Z</time>
      </trkpt>
      <trkpt lat="42.58195" lon="2.01294">
        <ele>2186</ele>
        <time>2019-07-31T12:21:23Z</time>
      </trkpt>
      <trkpt lat="42.58199" lon="2.01296">
        <ele>2185.2</ele>
        <time>2019-07-31T12:21:28Z</time>
      </trkpt>
      <trkpt lat="42.58203" lon="2.01298">
        <ele>2183.8</ele>
        <time>2019-07-31T12:21:33Z</time>
      </trkpt>
      <trkpt lat="42.58206" lon="2.013">
        <ele>2188.8</ele>
        <time>2019-07-31T12:21:38Z</time>
      </trkpt>
      <trkpt lat="42.58209" lon="2.01301">
        <ele>2189.4</ele>
        <time>2019-07-31T12:21:43Z</time>
      </trkpt>
      <trkpt lat="42.58212" lon="2.01301">
        <ele>2185.8</ele>
        <time>2019-07-31T12:21:48Z</time>
      </trkpt>
      <trkpt lat="42.58217" lon="2.01302">
        <ele>2188.4</ele>
        <time>2019-07-31T12:21:53Z</time>
      </trkpt>
      <trkpt lat="42.58221" lon="2.01301">
        <ele>2185.2</ele>
        <time>2019-07-31T12:21:58Z</time>
      </trkpt>
      <trkpt lat="42.58224" lon="2.01294">
        <ele>2185.4</ele>
        <time>2019-07-31T12:22:03Z</time>
      </trkpt>
      <trkpt lat="42.58225" lon="2.01287">
        <ele>2185</ele>
        <time>2019-07-31T12:22:08Z</time>
      </trkpt>
      <trkpt lat="42.58227" lon="2.0128">
        <ele>2185.6</ele>
        <time>2019-07-31T12:22:13Z</time>
      </trkpt>
      <trkpt lat="42.58229" lon="2.01272">
        <ele>2183.4</ele>
        <time>2019-07-31T12:22:18Z</time>
      </trkpt>
      <trkpt lat="42.5823" lon="2.01264">
        <ele>2183.6</ele>
        <time>2019-07-31T12:22:23Z</time>
      </trkpt>
      <trkpt lat="42.58231" lon="2.01257">
        <ele>2183.4</ele>
        <time>2019-07-31T12:22:28Z</time>
      </trkpt>
      <trkpt lat="42.5823" lon="2.01249">
        <ele>2183.8</ele>
        <time>2019-07-31T12:22:33Z</time>
      </trkpt>
      <trkpt lat="42.58231" lon="2.01242">
        <ele>2182</ele>
        <time>2019-07-31T12:22:38Z</time>
      </trkpt>
      <trkpt lat="42.58233" lon="2.01235">
        <ele>2183.6</ele>
        <time>2019-07-31T12:22:43Z</time>
      </trkpt>
      <trkpt lat="42.58235" lon="2.01229">
        <ele>2183.2</ele>
        <time>2019-07-31T12:22:48Z</time>
      </trkpt>
      <trkpt lat="42.58237" lon="2.01222">
        <ele>2180.2</ele>
        <time>2019-07-31T12:22:53Z</time>
      </trkpt>
      <trkpt lat="42.58239" lon="2.01216">
        <ele>2183</ele>
        <time>2019-07-31T12:22:58Z</time>
      </trkpt>
      <trkpt lat="42.5824" lon="2.0121">
        <ele>2181.8</ele>
        <time>2019-07-31T12:23:03Z</time>
      </trkpt>
      <trkpt lat="42.58241" lon="2.01203">
        <ele>2180.8</ele>
        <time>2019-07-31T12:23:08Z</time>
      </trkpt>
      <trkpt lat="42.58242" lon="2.01198">
        <ele>2180.8</ele>
        <time>2019-07-31T12:23:13Z</time>
      </trkpt>
      <trkpt lat="42.58242" lon="2.01193">
        <ele>2180.8</ele>
        <time>2019-07-31T12:23:18Z</time>
      </trkpt>
      <trkpt lat="42.58243" lon="2.01187">
        <ele>2182</ele>
        <time>2019-07-31T12:23:23Z</time>
      </trkpt>
      <trkpt lat="42.58244" lon="2.01181">
        <ele>2178.6</ele>
        <time>2019-07-31T12:23:28Z</time>
      </trkpt>
      <trkpt lat="42.58245" lon="2.01174">
        <ele>2180.6</ele>
        <time>2019-07-31T12:23:33Z</time>
      </trkpt>
      <trkpt lat="42.58247" lon="2.0117">
        <ele>2179</ele>
        <time>2019-07-31T12:23:38Z</time>
      </trkpt>
      <trkpt lat="42.58247" lon="2.01164">
        <ele>2178</ele>
        <time>2019-07-31T12:23:43Z</time>
      </trkpt>
      <trkpt lat="42.58247" lon="2.01159">
        <ele>2178.2</ele>
        <time>2019-07-31T12:23:48Z</time>
      </trkpt>
      <trkpt lat="42.58246" lon="2.01154">
        <ele>2178.4</ele>
        <time>2019-07-31T12:23:53Z</time>
      </trkpt>
      <trkpt lat="42.58244" lon="2.01149">
        <ele>2177.4</ele>
        <time>2019-07-31T12:23:58Z</time>
      </trkpt>
      <trkpt lat="42.5824" lon="2.01145">
        <ele>2175</ele>
        <time>2019-07-31T12:24:03Z</time>
      </trkpt>
      <trkpt lat="42.58237" lon="2.01142">
        <ele>2179</ele>
        <time>2019-07-31T12:24:08Z</time>
      </trkpt>
      <trkpt lat="42.58234" lon="2.01137">
        <ele>2177.8</ele>
        <time>2019-07-31T12:24:13Z</time>
      </trkpt>
      <trkpt lat="42.58232" lon="2.01131">
        <ele>2173.6</ele>
        <time>2019-07-31T12:24:18Z</time>
      </trkpt>
      <trkpt lat="42.58231" lon="2.01126">
        <ele>2173.8</ele>
        <time>2019-07-31T12:24:23Z</time>
      </trkpt>
      <trkpt lat="42.58231" lon="2.0112">
        <ele>2176</ele>
        <time>2019-07-31T12:24:28Z</time>
      </trkpt>
      <trkpt lat="42.5823" lon="2.01115">
        <ele>2172.8</ele>
        <time>2019-07-31T12:24:33Z</time>
      </trkpt>
      <trkpt lat="42.5823" lon="2.0111">
        <ele>2172</ele>
        <time>2019-07-31T12:24:38Z</time>
      </trkpt>
      <trkpt lat="42.58229" lon="2.01104">
        <ele>2169</ele>
        <time>2019-07-31T12:24:43Z</time>
      </trkpt>
      <trkpt lat="42.5823" lon="2.01099">
        <ele>2170.4</ele>
        <time>2019-07-31T12:24:48Z</time>
      </trkpt>
      <trkpt lat="42.5823" lon="2.01093">
        <ele>2170</ele>
        <time>2019-07-31T12:24:53Z</time>
      </trkpt>
      <trkpt lat="42.5823" lon="2.01087">
        <ele>2168</ele>
        <time>2019-07-31T12:24:58Z</time>
      </trkpt>
      <trkpt lat="42.5823" lon="2.01081">
        <ele>2167.8</ele>
        <time>2019-07-31T12:25:03Z</time>
      </trkpt>
      <trkpt lat="42.58228" lon="2.01076">
        <ele>2168.4</ele>
        <time>2019-07-31T12:25:08Z</time>
      </trkpt>
      <trkpt lat="42.58226" lon="2.01073">
        <ele>2168.4</ele>
        <time>2019-07-31T12:25:13Z</time>
      </trkpt>
      <trkpt lat="42.58224" lon="2.01068">
        <ele>2165.2</ele>
        <time>2019-07-31T12:25:18Z</time>
      </trkpt>
      <trkpt lat="42.58224" lon="2.01061">
        <ele>2166.4</ele>
        <time>2019-07-31T12:25:23Z</time>
      </trkpt>
      <trkpt lat="42.58222" lon="2.01055">
        <ele>2168.4</ele>
        <time>2019-07-31T12:25:28Z</time>
      </trkpt>
      <trkpt lat="42.58223" lon="2.01051">
        <ele>2163.6</ele>
        <time>2019-07-31T12:25:33Z</time>
      </trkpt>
      <trkpt lat="42.58226" lon="2.01049">
        <ele>2166.4</ele>
        <time>2019-07-31T12:25:38Z</time>
      </trkpt>
      <trkpt lat="42.58231" lon="2.01047">
        <ele>2164</ele>
        <time>2019-07-31T12:25:43Z</time>
      </trkpt>
      <trkpt lat="42.58235" lon="2.01046">
        <ele>2165.2</ele>
        <time>2019-07-31T12:25:48Z</time>
      </trkpt>
      <trkpt lat="42.58239" lon="2.01047">
        <ele>2161.8</ele>
        <time>2019-07-31T12:25:53Z</time>
      </trkpt>
      <trkpt lat="42.58242" lon="2.01048">
        <ele>2162.2</ele>
        <time>2019-07-31T12:25:58Z</time>
      </trkpt>
      <trkpt lat="42.58247" lon="2.01048">
        <ele>2161</ele>
        <time>2019-07-31T12:26:03Z</time>
      </trkpt>
      <trkpt lat="42.58253" lon="2.01046">
        <ele>2160.2</ele>
        <time>2019-07-31T12:26:08Z</time>
      </trkpt>
      <trkpt lat="42.58259" lon="2.01047">
        <ele>2160</ele>
        <time>2019-07-31T12:26:13Z</time>
      </trkpt>
      <trkpt lat="42.58265" lon="2.01048">
        <ele>2159.2</ele>
        <time>2019-07-31T12:26:18Z</time>
      </trkpt>
      <trkpt lat="42.5827" lon="2.01049">
        <ele>2155.6</ele>
        <time>2019-07-31T12:26:23Z</time>
      </trkpt>
      <trkpt lat="42.58275" lon="2.01051">
        <ele>2158.8</ele>
        <time>2019-07-31T12:26:28Z</time>
      </trkpt>
      <trkpt lat="42.5828" lon="2.01051">
        <ele>2157</ele>
        <time>2019-07-31T12:26:33Z</time>
      </trkpt>
      <trkpt lat="42.58284" lon="2.01051">
        <ele>2157.4</ele>
        <time>2019-07-31T12:26:38Z</time>
      </trkpt>
      <trkpt lat="42.5829" lon="2.01052">
        <ele>2154.2</ele>
        <time>2019-07-31T12:26:43Z</time>
      </trkpt>
      <trkpt lat="42.58295" lon="2.01052">
        <ele>2154.2</ele>
        <time>2019-07-31T12:26:48Z</time>
      </trkpt>
      <trkpt lat="42.58299" lon="2.01053">
        <ele>2153</ele>
        <time>2019-07-31T12:26:53Z</time>
      </trkpt>
      <trkpt lat="42.58302" lon="2.01053">
        <ele>2155.8</ele>
        <time>2019-07-31T12:26:58Z</time>
      </trkpt>
      <trkpt lat="42.58306" lon="2.01054">
        <ele>2152.8</ele>
        <time>2019-07-31T12:27:03Z</time>
      </trkpt>
      <trkpt lat="42.58309" lon="2.01055">
        <ele>2154.6</ele>
        <time>2019-07-31T12:27:08Z</time>
      </trkpt>
      <trkpt lat="42.58313" lon="2.01055">
        <ele>2156.4</ele>
        <time>2019-07-31T12:27:13Z</time>
      </trkpt>
      <trkpt lat="42.58317" lon="2.01056">
        <ele>2156.2</ele>
        <time>2019-07-31T12:27:18Z</time>
      </trkpt>
      <trkpt lat="42.58321" lon="2.01057">
        <ele>2155.8</ele>
        <time>2019-07-31T12:27:23Z</time>
      </trkpt>
      <trkpt lat="42.58325" lon="2.01056">
        <ele>2156</ele>
        <time>2019-07-31T12:27:28Z</time>
      </trkpt>
      <trkpt lat="42.58329" lon="2.01055">
        <ele>2156.2</ele>
        <time>2019-07-31T12:27:33Z</time>
      </trkpt>
      <trkpt lat="42.58333" lon="2.01053">
        <ele>2154.4</ele>
        <time>2019-07-31T12:27:38Z</time>
      </trkpt>
      <trkpt lat="42.58336" lon="2.01052">
        <ele>2156</ele>
        <time>2019-07-31T12:27:43Z</time>
      </trkpt>
      <trkpt lat="42.5834" lon="2.0105">
        <ele>2152.6</ele>
        <time>2019-07-31T12:27:48Z</time>
      </trkpt>
      <trkpt lat="42.58342" lon="2.01046">
        <ele>2155</ele>
        <time>2019-07-31T12:27:53Z</time>
      </trkpt>
      <trkpt lat="42.58344" lon="2.0104">
        <ele>2152</ele>
        <time>2019-07-31T12:27:58Z</time>
      </trkpt>
      <trkpt lat="42.58346" lon="2.01034">
        <ele>2153.8</ele>
        <time>2019-07-31T12:28:03Z</time>
      </trkpt>
      <trkpt lat="42.58348" lon="2.01029">
        <ele>2151.4</ele>
        <time>2019-07-31T12:28:08Z</time>
      </trkpt>
      <trkpt lat="42.5835" lon="2.01023">
        <ele>2152</ele>
        <time>2019-07-31T12:28:13Z</time>
      </trkpt>
      <trkpt lat="42.58351" lon="2.01018">
        <ele>2149.2</ele>
        <time>2019-07-31T12:28:18Z</time>
      </trkpt>
      <trkpt lat="42.58353" lon="2.01012">
        <ele>2149.8</ele>
        <time>2019-07-31T12:28:23Z</time>
      </trkpt>
      <trkpt lat="42.58354" lon="2.01007">
        <ele>2152.2</ele>
        <time>2019-07-31T12:28:28Z</time>
      </trkpt>
      <trkpt lat="42.58354" lon="2.01002">
        <ele>2152.6</ele>
        <time>2019-07-31T12:28:33Z</time>
      </trkpt>
      <trkpt lat="42.58354" lon="2.00996">
        <ele>2150.2</ele>
        <time>2019-07-31T12:28:38Z</time>
      </trkpt>
      <trkpt lat="42.58354" lon="2.0099">
        <ele>2149.6</ele>
        <time>2019-07-31T12:28:43Z</time>
      </trkpt>
      <trkpt lat="42.58354" lon="2.00984">
        <ele>2149.8</ele>
        <time>2019-07-31T12:28:48Z</time>
      </trkpt>
      <trkpt lat="42.58354" lon="2.00978">
        <ele>2150.2</ele>
        <time>2019-07-31T12:28:53Z</time>
      </trkpt>
      <trkpt lat="42.58355" lon="2.00972">
        <ele>2147.4</ele>
        <time>2019-07-31T12:28:58Z</time>
      </trkpt>
      <trkpt lat="42.58355" lon="2.00966">
        <ele>2147</ele>
        <time>2019-07-31T12:29:03Z</time>
      </trkpt>
      <trkpt lat="42.58356" lon="2.0096">
        <ele>2149.4</ele>
        <time>2019-07-31T12:29:08Z</time>
      </trkpt>
      <trkpt lat="42.58357" lon="2.00952">
        <ele>2148.6</ele>
        <time>2019-07-31T12:29:13Z</time>
      </trkpt>
      <trkpt lat="42.58358" lon="2.00946">
        <ele>2146.4</ele>
        <time>2019-07-31T12:29:18Z</time>
      </trkpt>
      <trkpt lat="42.58358" lon="2.00939">
        <ele>2148.4</ele>
        <time>2019-07-31T12:29:23Z</time>
      </trkpt>
      <trkpt lat="42.58358" lon="2.00932">
        <ele>2146.4</ele>
        <time>2019-07-31T12:29:28Z</time>
      </trkpt>
      <trkpt lat="42.58357" lon="2.00926">
        <ele>2144.2</ele>
        <time>2019-07-31T12:29:33Z</time>
      </trkpt>
      <trkpt lat="42.58356" lon="2.0092">
        <ele>2146</ele>
        <time>2019-07-31T12:29:38Z</time>
      </trkpt>
      <trkpt lat="42.58356" lon="2.00915">
        <ele>2144.2</ele>
        <time>2019-07-31T12:29:43Z</time>
      </trkpt>
      <trkpt lat="42.58357" lon="2.00909">
        <ele>2142.6</ele>
        <time>2019-07-31T12:29:48Z</time>
      </trkpt>
      <trkpt lat="42.58358" lon="2.00903">
        <ele>2140.8</ele>
        <time>2019-07-31T12:29:53Z</time>
      </trkpt>
      <trkpt lat="42.58359" lon="2.00898">
        <ele>2141</ele>
        <time>2019-07-31T12:29:58Z</time>
      </trkpt>
      <trkpt lat="42.58358" lon="2.00892">
        <ele>2139.4</ele>
        <time>2019-07-31T12:30:03Z</time>
      </trkpt>
      <trkpt lat="42.58357" lon="2.00888">
        <ele>2140.6</ele>
        <time>2019-07-31T12:30:08Z</time>
      </trkpt>
      <trkpt lat="42.58357" lon="2.00887">
        <ele>2140</ele>
        <time>2019-07-31T12:30:43Z</time>
      </trkpt>
      <trkpt lat="42.58357" lon="2.00885">
        <ele>2139.4</ele>
        <time>2019-07-31T12:30:48Z</time>
      </trkpt>
      <trkpt lat="42.58356" lon="2.00881">
        <ele>2137.8</ele>
        <time>2019-07-31T12:30:53Z</time>
      </trkpt>
      <trkpt lat="42.58355" lon="2.00877">
        <ele>2137.4</ele>
        <time>2019-07-31T12:30:58Z</time>
      </trkpt>
      <trkpt lat="42.58353" lon="2.00874">
        <ele>2134.2</ele>
        <time>2019-07-31T12:31:03Z</time>
      </trkpt>
      <trkpt lat="42.58352" lon="2.0087">
        <ele>2136.2</ele>
        <time>2019-07-31T12:31:08Z</time>
      </trkpt>
      <trkpt lat="42.58352" lon="2.00866">
        <ele>2135.4</ele>
        <time>2019-07-31T12:31:13Z</time>
      </trkpt>
      <trkpt lat="42.58351" lon="2.00862">
        <ele>2135</ele>
        <time>2019-07-31T12:31:18Z</time>
      </trkpt>
      <trkpt lat="42.58351" lon="2.00858">
        <ele>2134.2</ele>
        <time>2019-07-31T12:31:23Z</time>
      </trkpt>
      <trkpt lat="42.5835" lon="2.00853">
        <ele>2131.2</ele>
        <time>2019-07-31T12:31:28Z</time>
      </trkpt>
      <trkpt lat="42.58349" lon="2.00848">
        <ele>2130.8</ele>
        <time>2019-07-31T12:31:33Z</time>
      </trkpt>
      <trkpt lat="42.58349" lon="2.00842">
        <ele>2131.8</ele>
        <time>2019-07-31T12:31:38Z</time>
      </trkpt>
      <trkpt lat="42.58349" lon="2.00836">
        <ele>2127.4</ele>
        <time>2019-07-31T12:31:43Z</time>
      </trkpt>
      <trkpt lat="42.5835" lon="2.0083">
        <ele>2126.2</ele>
        <time>2019-07-31T12:31:48Z</time>
      </trkpt>
      <trkpt lat="42.58353" lon="2.00824">
        <ele>2126.8</ele>
        <time>2019-07-31T12:31:53Z</time>
      </trkpt>
      <trkpt lat="42.58353" lon="2.00819">
        <ele>2125.8</ele>
        <time>2019-07-31T12:31:58Z</time>
      </trkpt>
      <trkpt lat="42.58354" lon="2.00813">
        <ele>2126.6</ele>
        <time>2019-07-31T12:32:03Z</time>
      </trkpt>
      <trkpt lat="42.58355" lon="2.00807">
        <ele>2125.2</ele>
        <time>2019-07-31T12:32:08Z</time>
      </trkpt>
      <trkpt lat="42.58355" lon="2.00802">
        <ele>2122.8</ele>
        <time>2019-07-31T12:32:13Z</time>
      </trkpt>
      <trkpt lat="42.58356" lon="2.00797">
        <ele>2124.2</ele>
        <time>2019-07-31T12:32:18Z</time>
      </trkpt>
      <trkpt lat="42.58357" lon="2.00795">
        <ele>2123.8</ele>
        <time>2019-07-31T12:32:23Z</time>
      </trkpt>
      <trkpt lat="42.5836" lon="2.00792">
        <ele>2123.6</ele>
        <time>2019-07-31T12:32:28Z</time>
      </trkpt>
      <trkpt lat="42.58363" lon="2.0079">
        <ele>2119.8</ele>
        <time>2019-07-31T12:32:33Z</time>
      </trkpt>
      <trkpt lat="42.58367" lon="2.00787">
        <ele>2119.2</ele>
        <time>2019-07-31T12:32:38Z</time>
      </trkpt>
      <trkpt lat="42.58371" lon="2.00784">
        <ele>2117.8</ele>
        <time>2019-07-31T12:32:43Z</time>
      </trkpt>
      <trkpt lat="42.58373" lon="2.00783">
        <ele>2118.6</ele>
        <time>2019-07-31T12:32:48Z</time>
      </trkpt>
      <trkpt lat="42.58377" lon="2.00781">
        <ele>2122</ele>
        <time>2019-07-31T12:32:53Z</time>
      </trkpt>
      <trkpt lat="42.58381" lon="2.00779">
        <ele>2118.6</ele>
        <time>2019-07-31T12:32:58Z</time>
      </trkpt>
      <trkpt lat="42.58387" lon="2.00776">
        <ele>2120</ele>
        <time>2019-07-31T12:33:03Z</time>
      </trkpt>
      <trkpt lat="42.58394" lon="2.00769">
        <ele>2120</ele>
        <time>2019-07-31T12:33:08Z</time>
      </trkpt>
      <trkpt lat="42.58401" lon="2.00764">
        <ele>2116.2</ele>
        <time>2019-07-31T12:33:13Z</time>
      </trkpt>
      <trkpt lat="42.58402" lon="2.00759">
        <ele>2117.4</ele>
        <time>2019-07-31T12:33:18Z</time>
      </trkpt>
      <trkpt lat="42.58404" lon="2.00752">
        <ele>2117.2</ele>
        <time>2019-07-31T12:33:23Z</time>
      </trkpt>
      <trkpt lat="42.58406" lon="2.00745">
        <ele>2115.8</ele>
        <time>2019-07-31T12:33:28Z</time>
      </trkpt>
      <trkpt lat="42.58407" lon="2.00738">
        <ele>2113.6</ele>
        <time>2019-07-31T12:33:33Z</time>
      </trkpt>
      <trkpt lat="42.58409" lon="2.00732">
        <ele>2113.2</ele>
        <time>2019-07-31T12:33:38Z</time>
      </trkpt>
      <trkpt lat="42.5841" lon="2.00725">
        <ele>2111</ele>
        <time>2019-07-31T12:33:43Z</time>
      </trkpt>
      <trkpt lat="42.58413" lon="2.00721">
        <ele>2108.6</ele>
        <time>2019-07-31T12:33:48Z</time>
      </trkpt>
      <trkpt lat="42.58418" lon="2.00719">
        <ele>2109.8</ele>
        <time>2019-07-31T12:33:53Z</time>
      </trkpt>
      <trkpt lat="42.58423" lon="2.0072">
        <ele>2106.2</ele>
        <time>2019-07-31T12:33:58Z</time>
      </trkpt>
      <trkpt lat="42.58428" lon="2.0072">
        <ele>2104.4</ele>
        <time>2019-07-31T12:34:03Z</time>
      </trkpt>
      <trkpt lat="42.58432" lon="2.00719">
        <ele>2103.8</ele>
        <time>2019-07-31T12:34:08Z</time>
      </trkpt>
      <trkpt lat="42.58437" lon="2.00717">
        <ele>2105</ele>
        <time>2019-07-31T12:34:13Z</time>
      </trkpt>
      <trkpt lat="42.58441" lon="2.00712">
        <ele>2101.4</ele>
        <time>2019-07-31T12:34:18Z</time>
      </trkpt>
      <trkpt lat="42.58444" lon="2.00706">
        <ele>2102.8</ele>
        <time>2019-07-31T12:34:23Z</time>
      </trkpt>
      <trkpt lat="42.58446" lon="2.007">
        <ele>2106</ele>
        <time>2019-07-31T12:34:28Z</time>
      </trkpt>
      <trkpt lat="42.58448" lon="2.00694">
        <ele>2100.8</ele>
        <time>2019-07-31T12:34:33Z</time>
      </trkpt>
      <trkpt lat="42.58449" lon="2.00689">
        <ele>2099.2</ele>
        <time>2019-07-31T12:34:38Z</time>
      </trkpt>
      <trkpt lat="42.58451" lon="2.00683">
        <ele>2100.4</ele>
        <time>2019-07-31T12:34:43Z</time>
      </trkpt>
      <trkpt lat="42.58454" lon="2.00681">
        <ele>2100.6</ele>
        <time>2019-07-31T12:34:48Z</time>
      </trkpt>
      <trkpt lat="42.58459" lon="2.00678">
        <ele>2100.2</ele>
        <time>2019-07-31T12:34:53Z</time>
      </trkpt>
      <trkpt lat="42.58463" lon="2.00675">
        <ele>2095.6</ele>
        <time>2019-07-31T12:34:58Z</time>
      </trkpt>
      <trkpt lat="42.58466" lon="2.0067">
        <ele>2097.6</ele>
        <time>2019-07-31T12:35:03Z</time>
      </trkpt>
      <trkpt lat="42.58471" lon="2.00668">
        <ele>2097</ele>
        <time>2019-07-31T12:35:08Z</time>
      </trkpt>
      <trkpt lat="42.58472" lon="2.00663">
        <ele>2096.2</ele>
        <time>2019-07-31T12:35:13Z</time>
      </trkpt>
      <trkpt lat="42.58475" lon="2.0066">
        <ele>2098.6</ele>
        <time>2019-07-31T12:35:18Z</time>
      </trkpt>
      <trkpt lat="42.58475" lon="2.0066">
        <ele>2096.8</ele>
        <time>2019-07-31T12:35:33Z</time>
      </trkpt>
      <trkpt lat="42.58475" lon="2.00658">
        <ele>2097.4</ele>
        <time>2019-07-31T12:35:38Z</time>
      </trkpt>
      <trkpt lat="42.58476" lon="2.00654">
        <ele>2094.8</ele>
        <time>2019-07-31T12:35:43Z</time>
      </trkpt>
      <trkpt lat="42.58479" lon="2.0065">
        <ele>2094.8</ele>
        <time>2019-07-31T12:35:48Z</time>
      </trkpt>
      <trkpt lat="42.58482" lon="2.00645">
        <ele>2093.2</ele>
        <time>2019-07-31T12:35:53Z</time>
      </trkpt>
      <trkpt lat="42.58485" lon="2.00641">
        <ele>2095.2</ele>
        <time>2019-07-31T12:35:58Z</time>
      </trkpt>
      <trkpt lat="42.58487" lon="2.00636">
        <ele>2094.2</ele>
        <time>2019-07-31T12:36:03Z</time>
      </trkpt>
      <trkpt lat="42.5849" lon="2.00631">
        <ele>2093.6</ele>
        <time>2019-07-31T12:36:08Z</time>
      </trkpt>
      <trkpt lat="42.58492" lon="2.00626">
        <ele>2092.8</ele>
        <time>2019-07-31T12:36:13Z</time>
      </trkpt>
      <trkpt lat="42.58495" lon="2.00623">
        <ele>2093</ele>
        <time>2019-07-31T12:36:18Z</time>
      </trkpt>
      <trkpt lat="42.58497" lon="2.00618">
        <ele>2093.6</ele>
        <time>2019-07-31T12:36:23Z</time>
      </trkpt>
      <trkpt lat="42.58499" lon="2.00613">
        <ele>2090.2</ele>
        <time>2019-07-31T12:36:28Z</time>
      </trkpt>
      <trkpt lat="42.58501" lon="2.00608">
        <ele>2090.6</ele>
        <time>2019-07-31T12:36:33Z</time>
      </trkpt>
      <trkpt lat="42.58501" lon="2.00604">
        <ele>2092</ele>
        <time>2019-07-31T12:36:38Z</time>
      </trkpt>
      <trkpt lat="42.58502" lon="2.006">
        <ele>2090.4</ele>
        <time>2019-07-31T12:36:43Z</time>
      </trkpt>
      <trkpt lat="42.58503" lon="2.00595">
        <ele>2090</ele>
        <time>2019-07-31T12:36:48Z</time>
      </trkpt>
      <trkpt lat="42.58504" lon="2.0059">
        <ele>2089.2</ele>
        <time>2019-07-31T12:36:53Z</time>
      </trkpt>
      <trkpt lat="42.58505" lon="2.00585">
        <ele>2090</ele>
        <time>2019-07-31T12:36:58Z</time>
      </trkpt>
      <trkpt lat="42.58505" lon="2.00584">
        <ele>2089.8</ele>
        <time>2019-07-31T12:37:03Z</time>
      </trkpt>
      <trkpt lat="42.58506" lon="2.00581">
        <ele>2087.4</ele>
        <time>2019-07-31T12:37:08Z</time>
      </trkpt>
      <trkpt lat="42.58507" lon="2.00577">
        <ele>2085.6</ele>
        <time>2019-07-31T12:37:13Z</time>
      </trkpt>
      <trkpt lat="42.5851" lon="2.00572">
        <ele>2084</ele>
        <time>2019-07-31T12:37:18Z</time>
      </trkpt>
      <trkpt lat="42.58512" lon="2.0057">
        <ele>2087.6</ele>
        <time>2019-07-31T12:37:23Z</time>
      </trkpt>
      <trkpt lat="42.58514" lon="2.00566">
        <ele>2084.4</ele>
        <time>2019-07-31T12:37:28Z</time>
      </trkpt>
      <trkpt lat="42.58515" lon="2.00562">
        <ele>2083.8</ele>
        <time>2019-07-31T12:37:33Z</time>
      </trkpt>
      <trkpt lat="42.58515" lon="2.0056">
        <ele>2084.4</ele>
        <time>2019-07-31T12:37:38Z</time>
      </trkpt>
      <trkpt lat="42.58517" lon="2.00556">
        <ele>2083.4</ele>
        <time>2019-07-31T12:37:43Z</time>
      </trkpt>
      <trkpt lat="42.58518" lon="2.00554">
        <ele>2083.2</ele>
        <time>2019-07-31T12:37:48Z</time>
      </trkpt>
      <trkpt lat="42.58518" lon="2.00554">
        <ele>2083.6</ele>
        <time>2019-07-31T12:37:58Z</time>
      </trkpt>
      <trkpt lat="42.58517" lon="2.00552">
        <ele>2083.6</ele>
        <time>2019-07-31T12:38:03Z</time>
      </trkpt>
      <trkpt lat="42.58518" lon="2.00549">
        <ele>2083</ele>
        <time>2019-07-31T12:38:08Z</time>
      </trkpt>
      <trkpt lat="42.58517" lon="2.00546">
        <ele>2082.8</ele>
        <time>2019-07-31T12:38:13Z</time>
      </trkpt>
      <trkpt lat="42.58518" lon="2.00541">
        <ele>2082.6</ele>
        <time>2019-07-31T12:38:18Z</time>
      </trkpt>
      <trkpt lat="42.5852" lon="2.00539">
        <ele>2083</ele>
        <time>2019-07-31T12:38:23Z</time>
      </trkpt>
      <trkpt lat="42.5852" lon="2.00538">
        <ele>2081.2</ele>
        <time>2019-07-31T12:39:33Z</time>
      </trkpt>
      <trkpt lat="42.5852" lon="2.00537">
        <ele>2078.2</ele>
        <time>2019-07-31T12:43:39Z</time>
      </trkpt>
      <trkpt lat="42.5852" lon="2.00536">
        <ele>2078.2</ele>
        <time>2019-07-31T12:43:44Z</time>
      </trkpt>
      <trkpt lat="42.5852" lon="2.00534">
        <ele>2078</ele>
        <time>2019-07-31T12:43:54Z</time>
      </trkpt>
      <trkpt lat="42.5852" lon="2.00532">
        <ele>2078.6</ele>
        <time>2019-07-31T12:43:59Z</time>
      </trkpt>
      <trkpt lat="42.58519" lon="2.0053">
        <ele>2076.2</ele>
        <time>2019-07-31T12:44:04Z</time>
      </trkpt>
      <trkpt lat="42.58519" lon="2.00529">
        <ele>2077.4</ele>
        <time>2019-07-31T12:44:14Z</time>
      </trkpt>
      <trkpt lat="42.58519" lon="2.00528">
        <ele>2078.4</ele>
        <time>2019-07-31T12:44:29Z</time>
      </trkpt>
      <trkpt lat="42.58519" lon="2.00526">
        <ele>2078.6</ele>
        <time>2019-07-31T12:44:34Z</time>
      </trkpt>
      <trkpt lat="42.5852" lon="2.00524">
        <ele>2078</ele>
        <time>2019-07-31T12:44:39Z</time>
      </trkpt>
      <trkpt lat="42.58521" lon="2.00519">
        <ele>2077.8</ele>
        <time>2019-07-31T12:44:44Z</time>
      </trkpt>
      <trkpt lat="42.58521" lon="2.00517">
        <ele>2077.8</ele>
        <time>2019-07-31T12:44:49Z</time>
      </trkpt>
      <trkpt lat="42.58523" lon="2.00514">
        <ele>2073.6</ele>
        <time>2019-07-31T12:44:54Z</time>
      </trkpt>
      <trkpt lat="42.58521" lon="2.0051">
        <ele>2072.8</ele>
        <time>2019-07-31T12:44:59Z</time>
      </trkpt>
      <trkpt lat="42.5852" lon="2.00507">
        <ele>2074</ele>
        <time>2019-07-31T12:45:04Z</time>
      </trkpt>
      <trkpt lat="42.58521" lon="2.00502">
        <ele>2076.6</ele>
        <time>2019-07-31T12:45:09Z</time>
      </trkpt>
      <trkpt lat="42.5852" lon="2.00497">
        <ele>2079.6</ele>
        <time>2019-07-31T12:45:14Z</time>
      </trkpt>
      <trkpt lat="42.58521" lon="2.00492">
        <ele>2080</ele>
        <time>2019-07-31T12:45:19Z</time>
      </trkpt>
      <trkpt lat="42.5852" lon="2.00488">
        <ele>2079.6</ele>
        <time>2019-07-31T12:45:24Z</time>
      </trkpt>
      <trkpt lat="42.58519" lon="2.00483">
        <ele>2072.8</ele>
        <time>2019-07-31T12:45:29Z</time>
      </trkpt>
      <trkpt lat="42.58519" lon="2.00479">
        <ele>2075.6</ele>
        <time>2019-07-31T12:45:34Z</time>
      </trkpt>
      <trkpt lat="42.58518" lon="2.00474">
        <ele>2075</ele>
        <time>2019-07-31T12:45:39Z</time>
      </trkpt>
      <trkpt lat="42.58515" lon="2.00473">
        <ele>2074.6</ele>
        <time>2019-07-31T12:45:44Z</time>
      </trkpt>
      <trkpt lat="42.58515" lon="2.00471">
        <ele>2070.6</ele>
        <time>2019-07-31T12:45:59Z</time>
      </trkpt>
      <trkpt lat="42.58515" lon="2.00464">
        <ele>2071</ele>
        <time>2019-07-31T12:46:04Z</time>
      </trkpt>
      <trkpt lat="42.58517" lon="2.00457">
        <ele>2069.8</ele>
        <time>2019-07-31T12:46:09Z</time>
      </trkpt>
      <trkpt lat="42.58521" lon="2.00452">
        <ele>2069.6</ele>
        <time>2019-07-31T12:46:14Z</time>
      </trkpt>
      <trkpt lat="42.58522" lon="2.00443">
        <ele>2067.6</ele>
        <time>2019-07-31T12:46:19Z</time>
      </trkpt>
      <trkpt lat="42.58522" lon="2.00434">
        <ele>2071</ele>
        <time>2019-07-31T12:46:24Z</time>
      </trkpt>
      <trkpt lat="42.58522" lon="2.00426">
        <ele>2068.2</ele>
        <time>2019-07-31T12:46:29Z</time>
      </trkpt>
      <trkpt lat="42.58521" lon="2.0042">
        <ele>2070.6</ele>
        <time>2019-07-31T12:46:34Z</time>
      </trkpt>
      <trkpt lat="42.58521" lon="2.00413">
        <ele>2067.2</ele>
        <time>2019-07-31T12:46:39Z</time>
      </trkpt>
      <trkpt lat="42.58521" lon="2.00405">
        <ele>2070</ele>
        <time>2019-07-31T12:46:44Z</time>
      </trkpt>
      <trkpt lat="42.58522" lon="2.00399">
        <ele>2067.2</ele>
        <time>2019-07-31T12:46:49Z</time>
      </trkpt>
      <trkpt lat="42.58523" lon="2.00392">
        <ele>2069.4</ele>
        <time>2019-07-31T12:46:54Z</time>
      </trkpt>
      <trkpt lat="42.58523" lon="2.0039">
        <ele>2069.4</ele>
        <time>2019-07-31T12:47:04Z</time>
      </trkpt>
      <trkpt lat="42.58523" lon="2.00383">
        <ele>2068.4</ele>
        <time>2019-07-31T12:47:09Z</time>
      </trkpt>
      <trkpt lat="42.58523" lon="2.00374">
        <ele>2067.8</ele>
        <time>2019-07-31T12:47:14Z</time>
      </trkpt>
      <trkpt lat="42.58524" lon="2.00363">
        <ele>2069.2</ele>
        <time>2019-07-31T12:47:20Z</time>
      </trkpt>
      <trkpt lat="42.58524" lon="2.00355">
        <ele>2069</ele>
        <time>2019-07-31T12:47:25Z</time>
      </trkpt>
      <trkpt lat="42.58522" lon="2.00347">
        <ele>2070.8</ele>
        <time>2019-07-31T12:47:30Z</time>
      </trkpt>
      <trkpt lat="42.58521" lon="2.00341">
        <ele>2069.2</ele>
        <time>2019-07-31T12:47:35Z</time>
      </trkpt>
      <trkpt lat="42.58521" lon="2.00335">
        <ele>2070.6</ele>
        <time>2019-07-31T12:47:40Z</time>
      </trkpt>
      <trkpt lat="42.58519" lon="2.00329">
        <ele>2071.2</ele>
        <time>2019-07-31T12:47:45Z</time>
      </trkpt>
      <trkpt lat="42.58518" lon="2.00323">
        <ele>2071</ele>
        <time>2019-07-31T12:47:50Z</time>
      </trkpt>
      <trkpt lat="42.58517" lon="2.00317">
        <ele>2071.4</ele>
        <time>2019-07-31T12:47:55Z</time>
      </trkpt>
      <trkpt lat="42.58517" lon="2.0031">
        <ele>2072.6</ele>
        <time>2019-07-31T12:48:00Z</time>
      </trkpt>
      <trkpt lat="42.58517" lon="2.00303">
        <ele>2070.6</ele>
        <time>2019-07-31T12:48:05Z</time>
      </trkpt>
      <trkpt lat="42.58517" lon="2.00296">
        <ele>2071.4</ele>
        <time>2019-07-31T12:48:10Z</time>
      </trkpt>
      <trkpt lat="42.58518" lon="2.00288">
        <ele>2069.4</ele>
        <time>2019-07-31T12:48:15Z</time>
      </trkpt>
      <trkpt lat="42.58518" lon="2.00281">
        <ele>2072.4</ele>
        <time>2019-07-31T12:48:20Z</time>
      </trkpt>
      <trkpt lat="42.58519" lon="2.00274">
        <ele>2068.8</ele>
        <time>2019-07-31T12:48:25Z</time>
      </trkpt>
      <trkpt lat="42.58519" lon="2.00266">
        <ele>2067.6</ele>
        <time>2019-07-31T12:48:30Z</time>
      </trkpt>
      <trkpt lat="42.58519" lon="2.00258">
        <ele>2068.6</ele>
        <time>2019-07-31T12:48:35Z</time>
      </trkpt>
      <trkpt lat="42.58519" lon="2.0025">
        <ele>2069.2</ele>
        <time>2019-07-31T12:48:40Z</time>
      </trkpt>
      <trkpt lat="42.58519" lon="2.00242">
        <ele>2070</ele>
        <time>2019-07-31T12:48:45Z</time>
      </trkpt>
      <trkpt lat="42.58519" lon="2.00234">
        <ele>2068.8</ele>
        <time>2019-07-31T12:48:50Z</time>
      </trkpt>
      <trkpt lat="42.58518" lon="2.00226">
        <ele>2068.8</ele>
        <time>2019-07-31T12:48:55Z</time>
      </trkpt>
      <trkpt lat="42.58517" lon="2.00218">
        <ele>2067.8</ele>
        <time>2019-07-31T12:49:00Z</time>
      </trkpt>
      <trkpt lat="42.58516" lon="2.0021">
        <ele>2066.8</ele>
        <time>2019-07-31T12:49:05Z</time>
      </trkpt>
      <trkpt lat="42.58516" lon="2.00202">
        <ele>2064.6</ele>
        <time>2019-07-31T12:49:10Z</time>
      </trkpt>
      <trkpt lat="42.58515" lon="2.00195">
        <ele>2068.6</ele>
        <time>2019-07-31T12:49:15Z</time>
      </trkpt>
      <trkpt lat="42.58513" lon="2.00188">
        <ele>2068.4</ele>
        <time>2019-07-31T12:49:20Z</time>
      </trkpt>
      <trkpt lat="42.58511" lon="2.00182">
        <ele>2067.6</ele>
        <time>2019-07-31T12:49:25Z</time>
      </trkpt>
      <trkpt lat="42.58507" lon="2.00178">
        <ele>2071.6</ele>
        <time>2019-07-31T12:49:30Z</time>
      </trkpt>
      <trkpt lat="42.58502" lon="2.00174">
        <ele>2068.4</ele>
        <time>2019-07-31T12:49:35Z</time>
      </trkpt>
      <trkpt lat="42.58498" lon="2.00169">
        <ele>2068.2</ele>
        <time>2019-07-31T12:49:40Z</time>
      </trkpt>
      <trkpt lat="42.58494" lon="2.00163">
        <ele>2064</ele>
        <time>2019-07-31T12:49:45Z</time>
      </trkpt>
      <trkpt lat="42.5849" lon="2.00158">
        <ele>2068.2</ele>
        <time>2019-07-31T12:49:50Z</time>
      </trkpt>
      <trkpt lat="42.58486" lon="2.00153">
        <ele>2069</ele>
        <time>2019-07-31T12:49:55Z</time>
      </trkpt>
      <trkpt lat="42.58483" lon="2.00147">
        <ele>2067.2</ele>
        <time>2019-07-31T12:50:00Z</time>
      </trkpt>
      <trkpt lat="42.58479" lon="2.00142">
        <ele>2066.8</ele>
        <time>2019-07-31T12:50:05Z</time>
      </trkpt>
      <trkpt lat="42.58475" lon="2.00136">
        <ele>2066.6</ele>
        <time>2019-07-31T12:50:10Z</time>
      </trkpt>
      <trkpt lat="42.58471" lon="2.0013">
        <ele>2063.8</ele>
        <time>2019-07-31T12:50:15Z</time>
      </trkpt>
      <trkpt lat="42.58466" lon="2.00125">
        <ele>2064.6</ele>
        <time>2019-07-31T12:50:20Z</time>
      </trkpt>
      <trkpt lat="42.58462" lon="2.00119">
        <ele>2065.4</ele>
        <time>2019-07-31T12:50:25Z</time>
      </trkpt>
      <trkpt lat="42.58458" lon="2.00114">
        <ele>2064.8</ele>
        <time>2019-07-31T12:50:30Z</time>
      </trkpt>
      <trkpt lat="42.58454" lon="2.00108">
        <ele>2065.4</ele>
        <time>2019-07-31T12:50:35Z</time>
      </trkpt>
      <trkpt lat="42.5845" lon="2.00103">
        <ele>2063.4</ele>
        <time>2019-07-31T12:50:40Z</time>
      </trkpt>
      <trkpt lat="42.58446" lon="2.00098">
        <ele>2064</ele>
        <time>2019-07-31T12:50:45Z</time>
      </trkpt>
      <trkpt lat="42.58443" lon="2.00093">
        <ele>2065.6</ele>
        <time>2019-07-31T12:50:50Z</time>
      </trkpt>
      <trkpt lat="42.58439" lon="2.00087">
        <ele>2063.6</ele>
        <time>2019-07-31T12:50:55Z</time>
      </trkpt>
      <trkpt lat="42.58436" lon="2.00082">
        <ele>2063.8</ele>
        <time>2019-07-31T12:51:00Z</time>
      </trkpt>
      <trkpt lat="42.58432" lon="2.00077">
        <ele>2063.6</ele>
        <time>2019-07-31T12:51:05Z</time>
      </trkpt>
      <trkpt lat="42.58429" lon="2.00071">
        <ele>2064.2</ele>
        <time>2019-07-31T12:51:10Z</time>
      </trkpt>
      <trkpt lat="42.58427" lon="2.00065">
        <ele>2066.4</ele>
        <time>2019-07-31T12:51:15Z</time>
      </trkpt>
      <trkpt lat="42.58424" lon="2.00059">
        <ele>2065.2</ele>
        <time>2019-07-31T12:51:20Z</time>
      </trkpt>
      <trkpt lat="42.58422" lon="2.00053">
        <ele>2064.2</ele>
        <time>2019-07-31T12:51:25Z</time>
      </trkpt>
      <trkpt lat="42.58421" lon="2.0005">
        <ele>2064.4</ele>
        <time>2019-07-31T12:51:30Z</time>
      </trkpt>
      <trkpt lat="42.58419" lon="2.00046">
        <ele>2062.8</ele>
        <time>2019-07-31T12:51:35Z</time>
      </trkpt>
      <trkpt lat="42.58417" lon="2.00041">
        <ele>2063.2</ele>
        <time>2019-07-31T12:51:40Z</time>
      </trkpt>
      <trkpt lat="42.58416" lon="2.00036">
        <ele>2064.8</ele>
        <time>2019-07-31T12:51:45Z</time>
      </trkpt>
      <trkpt lat="42.58415" lon="2.00031">
        <ele>2062.6</ele>
        <time>2019-07-31T12:51:50Z</time>
      </trkpt>
      <trkpt lat="42.58416" lon="2.00024">
        <ele>2059.8</ele>
        <time>2019-07-31T12:51:55Z</time>
      </trkpt>
      <trkpt lat="42.58416" lon="2.00017">
        <ele>2061.4</ele>
        <time>2019-07-31T12:52:00Z</time>
      </trkpt>
      <trkpt lat="42.58414" lon="2.00012">
        <ele>2061.4</ele>
        <time>2019-07-31T12:52:05Z</time>
      </trkpt>
      <trkpt lat="42.58413" lon="2.00009">
        <ele>2061.6</ele>
        <time>2019-07-31T12:52:15Z</time>
      </trkpt>
      <trkpt lat="42.58412" lon="2.00007">
        <ele>2062.8</ele>
        <time>2019-07-31T12:52:20Z</time>
      </trkpt>
      <trkpt lat="42.58409" lon="2">
        <ele>2061.4</ele>
        <time>2019-07-31T12:52:25Z</time>
      </trkpt>
      <trkpt lat="42.58407" lon="1.99994">
        <ele>2061.8</ele>
        <time>2019-07-31T12:52:30Z</time>
      </trkpt>
      <trkpt lat="42.58404" lon="1.99989">
        <ele>2061.8</ele>
        <time>2019-07-31T12:52:35Z</time>
      </trkpt>
      <trkpt lat="42.58401" lon="1.99982">
        <ele>2060.4</ele>
        <time>2019-07-31T12:52:40Z</time>
      </trkpt>
      <trkpt lat="42.58399" lon="1.99975">
        <ele>2059.8</ele>
        <time>2019-07-31T12:52:45Z</time>
      </trkpt>
      <trkpt lat="42.58395" lon="1.99971">
        <ele>2060.8</ele>
        <time>2019-07-31T12:52:50Z</time>
      </trkpt>
      <trkpt lat="42.58391" lon="1.99967">
        <ele>2059</ele>
        <time>2019-07-31T12:52:55Z</time>
      </trkpt>
      <trkpt lat="42.58388" lon="1.99961">
        <ele>2060.2</ele>
        <time>2019-07-31T12:53:00Z</time>
      </trkpt>
      <trkpt lat="42.58384" lon="1.99955">
        <ele>2061.4</ele>
        <time>2019-07-31T12:53:05Z</time>
      </trkpt>
      <trkpt lat="42.5838" lon="1.99949">
        <ele>2059.4</ele>
        <time>2019-07-31T12:53:10Z</time>
      </trkpt>
      <trkpt lat="42.58376" lon="1.99944">
        <ele>2058.4</ele>
        <time>2019-07-31T12:53:15Z</time>
      </trkpt>
      <trkpt lat="42.58371" lon="1.99941">
        <ele>2061</ele>
        <time>2019-07-31T12:53:20Z</time>
      </trkpt>
      <trkpt lat="42.58369" lon="1.99939">
        <ele>2060.4</ele>
        <time>2019-07-31T12:53:25Z</time>
      </trkpt>
      <trkpt lat="42.58367" lon="1.99938">
        <ele>2060.2</ele>
        <time>2019-07-31T12:53:30Z</time>
      </trkpt>
      <trkpt lat="42.58365" lon="1.99937">
        <ele>2060.2</ele>
        <time>2019-07-31T12:54:00Z</time>
      </trkpt>
      <trkpt lat="42.58363" lon="1.99936">
        <ele>2058.6</ele>
        <time>2019-07-31T12:54:05Z</time>
      </trkpt>
      <trkpt lat="42.58361" lon="1.99936">
        <ele>2058.8</ele>
        <time>2019-07-31T12:54:36Z</time>
      </trkpt>
      <trkpt lat="42.5836" lon="1.99934">
        <ele>2058.8</ele>
        <time>2019-07-31T12:54:41Z</time>
      </trkpt>
      <trkpt lat="42.58357" lon="1.9993">
        <ele>2058.2</ele>
        <time>2019-07-31T12:54:46Z</time>
      </trkpt>
      <trkpt lat="42.58354" lon="1.99928">
        <ele>2056.8</ele>
        <time>2019-07-31T12:54:51Z</time>
      </trkpt>
      <trkpt lat="42.58352" lon="1.99927">
        <ele>2058</ele>
        <time>2019-07-31T12:54:56Z</time>
      </trkpt>
      <trkpt lat="42.58351" lon="1.99927">
        <ele>2056.8</ele>
        <time>2019-07-31T12:55:36Z</time>
      </trkpt>
      <trkpt lat="42.58349" lon="1.99926">
        <ele>2058</ele>
        <time>2019-07-31T12:55:41Z</time>
      </trkpt>
      <trkpt lat="42.58346" lon="1.99927">
        <ele>2058.4</ele>
        <time>2019-07-31T12:55:46Z</time>
      </trkpt>
      <trkpt lat="42.58342" lon="1.99928">
        <ele>2056.6</ele>
        <time>2019-07-31T12:55:51Z</time>
      </trkpt>
      <trkpt lat="42.58338" lon="1.99928">
        <ele>2053</ele>
        <time>2019-07-31T12:55:56Z</time>
      </trkpt>
      <trkpt lat="42.58333" lon="1.99928">
        <ele>2052.8</ele>
        <time>2019-07-31T12:56:01Z</time>
      </trkpt>
      <trkpt lat="42.5833" lon="1.99927">
        <ele>2053.4</ele>
        <time>2019-07-31T12:56:06Z</time>
      </trkpt>
      <trkpt lat="42.58326" lon="1.99927">
        <ele>2052.2</ele>
        <time>2019-07-31T12:56:11Z</time>
      </trkpt>
      <trkpt lat="42.58321" lon="1.99927">
        <ele>2051.6</ele>
        <time>2019-07-31T12:56:16Z</time>
      </trkpt>
      <trkpt lat="42.58315" lon="1.99926">
        <ele>2049.6</ele>
        <time>2019-07-31T12:56:21Z</time>
      </trkpt>
      <trkpt lat="42.58309" lon="1.99926">
        <ele>2053.6</ele>
        <time>2019-07-31T12:56:26Z</time>
      </trkpt>
      <trkpt lat="42.58304" lon="1.99925">
        <ele>2048.2</ele>
        <time>2019-07-31T12:56:31Z</time>
      </trkpt>
      <trkpt lat="42.58298" lon="1.99925">
        <ele>2048.4</ele>
        <time>2019-07-31T12:56:36Z</time>
      </trkpt>
      <trkpt lat="42.58291" lon="1.99925">
        <ele>2047</ele>
        <time>2019-07-31T12:56:41Z</time>
      </trkpt>
      <trkpt lat="42.58285" lon="1.99925">
        <ele>2047.4</ele>
        <time>2019-07-31T12:56:46Z</time>
      </trkpt>
      <trkpt lat="42.58279" lon="1.99925">
        <ele>2046.4</ele>
        <time>2019-07-31T12:56:51Z</time>
      </trkpt>
      <trkpt lat="42.58273" lon="1.99924">
        <ele>2048.2</ele>
        <time>2019-07-31T12:56:56Z</time>
      </trkpt>
      <trkpt lat="42.58267" lon="1.99924">
        <ele>2047</ele>
        <time>2019-07-31T12:57:01Z</time>
      </trkpt>
      <trkpt lat="42.58262" lon="1.99924">
        <ele>2044.8</ele>
        <time>2019-07-31T12:57:06Z</time>
      </trkpt>
      <trkpt lat="42.58256" lon="1.99924">
        <ele>2044</ele>
        <time>2019-07-31T12:57:11Z</time>
      </trkpt>
      <trkpt lat="42.58251" lon="1.99922">
        <ele>2042.8</ele>
        <time>2019-07-31T12:57:16Z</time>
      </trkpt>
      <trkpt lat="42.58246" lon="1.9992">
        <ele>2042.2</ele>
        <time>2019-07-31T12:57:21Z</time>
      </trkpt>
      <trkpt lat="42.58241" lon="1.9992">
        <ele>2045.2</ele>
        <time>2019-07-31T12:57:26Z</time>
      </trkpt>
      <trkpt lat="42.58235" lon="1.99922">
        <ele>2041.4</ele>
        <time>2019-07-31T12:57:31Z</time>
      </trkpt>
      <trkpt lat="42.58231" lon="1.99923">
        <ele>2041.8</ele>
        <time>2019-07-31T12:57:36Z</time>
      </trkpt>
      <trkpt lat="42.58227" lon="1.99925">
        <ele>2039.2</ele>
        <time>2019-07-31T12:57:41Z</time>
      </trkpt>
      <trkpt lat="42.58223" lon="1.99925">
        <ele>2039.4</ele>
        <time>2019-07-31T12:57:46Z</time>
      </trkpt>
      <trkpt lat="42.58219" lon="1.99923">
        <ele>2039.6</ele>
        <time>2019-07-31T12:57:51Z</time>
      </trkpt>
      <trkpt lat="42.58214" lon="1.99922">
        <ele>2041.8</ele>
        <time>2019-07-31T12:57:56Z</time>
      </trkpt>
      <trkpt lat="42.58211" lon="1.99921">
        <ele>2041.2</ele>
        <time>2019-07-31T12:58:01Z</time>
      </trkpt>
      <trkpt lat="42.58206" lon="1.9992">
        <ele>2041.8</ele>
        <time>2019-07-31T12:58:06Z</time>
      </trkpt>
      <trkpt lat="42.58204" lon="1.99919">
        <ele>2042</ele>
        <time>2019-07-31T12:58:11Z</time>
      </trkpt>
      <trkpt lat="42.58201" lon="1.99916">
        <ele>2039.8</ele>
        <time>2019-07-31T12:58:16Z</time>
      </trkpt>
      <trkpt lat="42.58199" lon="1.99912">
        <ele>2039.8</ele>
        <time>2019-07-31T12:58:21Z</time>
      </trkpt>
      <trkpt lat="42.58198" lon="1.99907">
        <ele>2039.8</ele>
        <time>2019-07-31T12:58:26Z</time>
      </trkpt>
      <trkpt lat="42.58197" lon="1.99901">
        <ele>2038.2</ele>
        <time>2019-07-31T12:58:31Z</time>
      </trkpt>
      <trkpt lat="42.58197" lon="1.99898">
        <ele>2040.8</ele>
        <time>2019-07-31T12:58:36Z</time>
      </trkpt>
      <trkpt lat="42.58197" lon="1.99896">
        <ele>2039.2</ele>
        <time>2019-07-31T12:58:41Z</time>
      </trkpt>
      <trkpt lat="42.582" lon="1.99892">
        <ele>2039.6</ele>
        <time>2019-07-31T12:58:46Z</time>
      </trkpt>
      <trkpt lat="42.58201" lon="1.99885">
        <ele>2039.4</ele>
        <time>2019-07-31T12:58:51Z</time>
      </trkpt>
      <trkpt lat="42.58203" lon="1.99879">
        <ele>2039.8</ele>
        <time>2019-07-31T12:58:56Z</time>
      </trkpt>
      <trkpt lat="42.58206" lon="1.99873">
        <ele>2038.4</ele>
        <time>2019-07-31T12:59:01Z</time>
      </trkpt>
      <trkpt lat="42.58208" lon="1.99867">
        <ele>2040.2</ele>
        <time>2019-07-31T12:59:06Z</time>
      </trkpt>
      <trkpt lat="42.58211" lon="1.99861">
        <ele>2040</ele>
        <time>2019-07-31T12:59:11Z</time>
      </trkpt>
      <trkpt lat="42.58214" lon="1.99856">
        <ele>2040.6</ele>
        <time>2019-07-31T12:59:16Z</time>
      </trkpt>
      <trkpt lat="42.58215" lon="1.99851">
        <ele>2041.4</ele>
        <time>2019-07-31T12:59:21Z</time>
      </trkpt>
      <trkpt lat="42.58216" lon="1.99847">
        <ele>2040</ele>
        <time>2019-07-31T12:59:26Z</time>
      </trkpt>
      <trkpt lat="42.58215" lon="1.99843">
        <ele>2041.8</ele>
        <time>2019-07-31T12:59:31Z</time>
      </trkpt>
      <trkpt lat="42.58214" lon="1.99841">
        <ele>2041.2</ele>
        <time>2019-07-31T12:59:36Z</time>
      </trkpt>
      <trkpt lat="42.58216" lon="1.99839">
        <ele>2040.4</ele>
        <time>2019-07-31T12:59:41Z</time>
      </trkpt>
      <trkpt lat="42.58217" lon="1.99837">
        <ele>2041</ele>
        <time>2019-07-31T12:59:46Z</time>
      </trkpt>
      <trkpt lat="42.58218" lon="1.99834">
        <ele>2042</ele>
        <time>2019-07-31T12:59:51Z</time>
      </trkpt>
      <trkpt lat="42.58219" lon="1.99828">
        <ele>2042.4</ele>
        <time>2019-07-31T12:59:56Z</time>
      </trkpt>
      <trkpt lat="42.5822" lon="1.99823">
        <ele>2041.4</ele>
        <time>2019-07-31T13:00:01Z</time>
      </trkpt>
      <trkpt lat="42.5822" lon="1.99819">
        <ele>2045.8</ele>
        <time>2019-07-31T13:00:06Z</time>
      </trkpt>
      <trkpt lat="42.58219" lon="1.99814">
        <ele>2044.8</ele>
        <time>2019-07-31T13:00:11Z</time>
      </trkpt>
      <trkpt lat="42.5822" lon="1.9981">
        <ele>2046</ele>
        <time>2019-07-31T13:00:16Z</time>
      </trkpt>
      <trkpt lat="42.58219" lon="1.99807">
        <ele>2045.8</ele>
        <time>2019-07-31T13:00:21Z</time>
      </trkpt>
      <trkpt lat="42.58219" lon="1.99804">
        <ele>2047.8</ele>
        <time>2019-07-31T13:00:26Z</time>
      </trkpt>
      <trkpt lat="42.5822" lon="1.998">
        <ele>2051</ele>
        <time>2019-07-31T13:00:31Z</time>
      </trkpt>
      <trkpt lat="42.58219" lon="1.99798">
        <ele>2050.2</ele>
        <time>2019-07-31T13:00:36Z</time>
      </trkpt>
      <trkpt lat="42.58219" lon="1.99795">
        <ele>2051.6</ele>
        <time>2019-07-31T13:00:41Z</time>
      </trkpt>
      <trkpt lat="42.58217" lon="1.99792">
        <ele>2051.4</ele>
        <time>2019-07-31T13:00:46Z</time>
      </trkpt>
      <trkpt lat="42.58215" lon="1.99788">
        <ele>2050.6</ele>
        <time>2019-07-31T13:00:51Z</time>
      </trkpt>
      <trkpt lat="42.58216" lon="1.99782">
        <ele>2050.8</ele>
        <time>2019-07-31T13:00:56Z</time>
      </trkpt>
      <trkpt lat="42.58215" lon="1.99776">
        <ele>2048.8</ele>
        <time>2019-07-31T13:01:01Z</time>
      </trkpt>
      <trkpt lat="42.58214" lon="1.99769">
        <ele>2049.8</ele>
        <time>2019-07-31T13:01:06Z</time>
      </trkpt>
      <trkpt lat="42.58215" lon="1.99763">
        <ele>2050</ele>
        <time>2019-07-31T13:01:11Z</time>
      </trkpt>
      <trkpt lat="42.58215" lon="1.99756">
        <ele>2050.2</ele>
        <time>2019-07-31T13:01:16Z</time>
      </trkpt>
      <trkpt lat="42.58217" lon="1.9975">
        <ele>2048.2</ele>
        <time>2019-07-31T13:01:21Z</time>
      </trkpt>
      <trkpt lat="42.58218" lon="1.99744">
        <ele>2049.8</ele>
        <time>2019-07-31T13:01:26Z</time>
      </trkpt>
      <trkpt lat="42.58219" lon="1.99738">
        <ele>2050.8</ele>
        <time>2019-07-31T13:01:31Z</time>
      </trkpt>
      <trkpt lat="42.58221" lon="1.99732">
        <ele>2051.4</ele>
        <time>2019-07-31T13:01:36Z</time>
      </trkpt>
      <trkpt lat="42.58223" lon="1.99727">
        <ele>2051.2</ele>
        <time>2019-07-31T13:01:41Z</time>
      </trkpt>
      <trkpt lat="42.58222" lon="1.99721">
        <ele>2051.8</ele>
        <time>2019-07-31T13:01:46Z</time>
      </trkpt>
      <trkpt lat="42.58223" lon="1.99716">
        <ele>2052.8</ele>
        <time>2019-07-31T13:01:51Z</time>
      </trkpt>
      <trkpt lat="42.58221" lon="1.99709">
        <ele>2051.8</ele>
        <time>2019-07-31T13:01:56Z</time>
      </trkpt>
      <trkpt lat="42.58222" lon="1.99702">
        <ele>2047.6</ele>
        <time>2019-07-31T13:02:01Z</time>
      </trkpt>
      <trkpt lat="42.58223" lon="1.99695">
        <ele>2051.8</ele>
        <time>2019-07-31T13:02:06Z</time>
      </trkpt>
      <trkpt lat="42.58223" lon="1.99688">
        <ele>2054</ele>
        <time>2019-07-31T13:02:11Z</time>
      </trkpt>
      <trkpt lat="42.58223" lon="1.99682">
        <ele>2055</ele>
        <time>2019-07-31T13:02:16Z</time>
      </trkpt>
      <trkpt lat="42.5822" lon="1.99676">
        <ele>2050.8</ele>
        <time>2019-07-31T13:02:21Z</time>
      </trkpt>
      <trkpt lat="42.58217" lon="1.99671">
        <ele>2053.2</ele>
        <time>2019-07-31T13:02:26Z</time>
      </trkpt>
      <trkpt lat="42.58216" lon="1.99667">
        <ele>2051.6</ele>
        <time>2019-07-31T13:02:31Z</time>
      </trkpt>
      <trkpt lat="42.58213" lon="1.99663">
        <ele>2054.6</ele>
        <time>2019-07-31T13:02:36Z</time>
      </trkpt>
      <trkpt lat="42.58212" lon="1.99656">
        <ele>2052.2</ele>
        <time>2019-07-31T13:02:41Z</time>
      </trkpt>
      <trkpt lat="42.58209" lon="1.9965">
        <ele>2053</ele>
        <time>2019-07-31T13:02:46Z</time>
      </trkpt>
      <trkpt lat="42.58207" lon="1.99644">
        <ele>2052.2</ele>
        <time>2019-07-31T13:02:51Z</time>
      </trkpt>
      <trkpt lat="42.58204" lon="1.99637">
        <ele>2053</ele>
        <time>2019-07-31T13:02:56Z</time>
      </trkpt>
      <trkpt lat="42.58202" lon="1.99632">
        <ele>2051.6</ele>
        <time>2019-07-31T13:03:01Z</time>
      </trkpt>
      <trkpt lat="42.582" lon="1.99624">
        <ele>2049.6</ele>
        <time>2019-07-31T13:03:06Z</time>
      </trkpt>
      <trkpt lat="42.58199" lon="1.99616">
        <ele>2051</ele>
        <time>2019-07-31T13:03:11Z</time>
      </trkpt>
      <trkpt lat="42.58197" lon="1.99609">
        <ele>2053.8</ele>
        <time>2019-07-31T13:03:16Z</time>
      </trkpt>
      <trkpt lat="42.58196" lon="1.99601">
        <ele>2053.2</ele>
        <time>2019-07-31T13:03:21Z</time>
      </trkpt>
      <trkpt lat="42.58193" lon="1.99595">
        <ele>2054.8</ele>
        <time>2019-07-31T13:03:26Z</time>
      </trkpt>
      <trkpt lat="42.5819" lon="1.9959">
        <ele>2051.6</ele>
        <time>2019-07-31T13:03:31Z</time>
      </trkpt>
      <trkpt lat="42.58188" lon="1.99585">
        <ele>2051.2</ele>
        <time>2019-07-31T13:03:36Z</time>
      </trkpt>
      <trkpt lat="42.58186" lon="1.9958">
        <ele>2054.4</ele>
        <time>2019-07-31T13:03:41Z</time>
      </trkpt>
      <trkpt lat="42.58183" lon="1.99574">
        <ele>2053.4</ele>
        <time>2019-07-31T13:03:46Z</time>
      </trkpt>
      <trkpt lat="42.5818" lon="1.99567">
        <ele>2056.2</ele>
        <time>2019-07-31T13:03:51Z</time>
      </trkpt>
      <trkpt lat="42.58176" lon="1.99561">
        <ele>2053.8</ele>
        <time>2019-07-31T13:03:56Z</time>
      </trkpt>
      <trkpt lat="42.58173" lon="1.99554">
        <ele>2055</ele>
        <time>2019-07-31T13:04:01Z</time>
      </trkpt>
      <trkpt lat="42.5817" lon="1.99549">
        <ele>2052.8</ele>
        <time>2019-07-31T13:04:06Z</time>
      </trkpt>
      <trkpt lat="42.58168" lon="1.99543">
        <ele>2052.2</ele>
        <time>2019-07-31T13:04:11Z</time>
      </trkpt>
      <trkpt lat="42.58165" lon="1.99539">
        <ele>2056</ele>
        <time>2019-07-31T13:04:16Z</time>
      </trkpt>
      <trkpt lat="42.58161" lon="1.99539">
        <ele>2056</ele>
        <time>2019-07-31T13:04:21Z</time>
      </trkpt>
      <trkpt lat="42.58157" lon="1.99537">
        <ele>2055</ele>
        <time>2019-07-31T13:04:26Z</time>
      </trkpt>
      <trkpt lat="42.58153" lon="1.99535">
        <ele>2055.4</ele>
        <time>2019-07-31T13:04:31Z</time>
      </trkpt>
      <trkpt lat="42.5815" lon="1.99532">
        <ele>2052.2</ele>
        <time>2019-07-31T13:04:36Z</time>
      </trkpt>
      <trkpt lat="42.58146" lon="1.99527">
        <ele>2051.6</ele>
        <time>2019-07-31T13:04:41Z</time>
      </trkpt>
      <trkpt lat="42.58142" lon="1.99523">
        <ele>2054.6</ele>
        <time>2019-07-31T13:04:46Z</time>
      </trkpt>
      <trkpt lat="42.5814" lon="1.9952">
        <ele>2055.8</ele>
        <time>2019-07-31T13:04:51Z</time>
      </trkpt>
      <trkpt lat="42.58136" lon="1.99518">
        <ele>2055.8</ele>
        <time>2019-07-31T13:04:56Z</time>
      </trkpt>
      <trkpt lat="42.58133" lon="1.99518">
        <ele>2054.4</ele>
        <time>2019-07-31T13:05:01Z</time>
      </trkpt>
      <trkpt lat="42.58129" lon="1.99519">
        <ele>2055.8</ele>
        <time>2019-07-31T13:05:06Z</time>
      </trkpt>
      <trkpt lat="42.58125" lon="1.99519">
        <ele>2057.2</ele>
        <time>2019-07-31T13:05:11Z</time>
      </trkpt>
      <trkpt lat="42.58121" lon="1.99517">
        <ele>2055.6</ele>
        <time>2019-07-31T13:05:16Z</time>
      </trkpt>
      <trkpt lat="42.58117" lon="1.99517">
        <ele>2054.8</ele>
        <time>2019-07-31T13:05:21Z</time>
      </trkpt>
      <trkpt lat="42.58113" lon="1.99517">
        <ele>2056.8</ele>
        <time>2019-07-31T13:05:26Z</time>
      </trkpt>
      <trkpt lat="42.5811" lon="1.99518">
        <ele>2053.2</ele>
        <time>2019-07-31T13:05:31Z</time>
      </trkpt>
      <trkpt lat="42.58104" lon="1.99521">
        <ele>2055</ele>
        <time>2019-07-31T13:05:36Z</time>
      </trkpt>
      <trkpt lat="42.58099" lon="1.99524">
        <ele>2055.8</ele>
        <time>2019-07-31T13:05:41Z</time>
      </trkpt>
      <trkpt lat="42.58094" lon="1.99528">
        <ele>2057.8</ele>
        <time>2019-07-31T13:05:46Z</time>
      </trkpt>
      <trkpt lat="42.58093" lon="1.99531">
        <ele>2054.6</ele>
        <time>2019-07-31T13:05:51Z</time>
      </trkpt>
      <trkpt lat="42.58091" lon="1.99535">
        <ele>2054.4</ele>
        <time>2019-07-31T13:05:56Z</time>
      </trkpt>
      <trkpt lat="42.58089" lon="1.99538">
        <ele>2053.6</ele>
        <time>2019-07-31T13:06:01Z</time>
      </trkpt>
      <trkpt lat="42.58088" lon="1.99541">
        <ele>2055.2</ele>
        <time>2019-07-31T13:06:06Z</time>
      </trkpt>
      <trkpt lat="42.58085" lon="1.99543">
        <ele>2050.8</ele>
        <time>2019-07-31T13:06:11Z</time>
      </trkpt>
      <trkpt lat="42.58084" lon="1.99546">
        <ele>2053.6</ele>
        <time>2019-07-31T13:06:16Z</time>
      </trkpt>
      <trkpt lat="42.58083" lon="1.99549">
        <ele>2053</ele>
        <time>2019-07-31T13:06:21Z</time>
      </trkpt>
      <trkpt lat="42.5808" lon="1.99553">
        <ele>2054</ele>
        <time>2019-07-31T13:06:26Z</time>
      </trkpt>
      <trkpt lat="42.58078" lon="1.99554">
        <ele>2052</ele>
        <time>2019-07-31T13:06:31Z</time>
      </trkpt>
      <trkpt lat="42.58076" lon="1.99554">
        <ele>2053.4</ele>
        <time>2019-07-31T13:06:36Z</time>
      </trkpt>
      <trkpt lat="42.58072" lon="1.99554">
        <ele>2054</ele>
        <time>2019-07-31T13:06:41Z</time>
      </trkpt>
      <trkpt lat="42.58069" lon="1.99553">
        <ele>2054.8</ele>
        <time>2019-07-31T13:06:46Z</time>
      </trkpt>
      <trkpt lat="42.58065" lon="1.99551">
        <ele>2053</ele>
        <time>2019-07-31T13:06:51Z</time>
      </trkpt>
      <trkpt lat="42.5806" lon="1.99553">
        <ele>2053.4</ele>
        <time>2019-07-31T13:06:56Z</time>
      </trkpt>
      <trkpt lat="42.58057" lon="1.99553">
        <ele>2052.4</ele>
        <time>2019-07-31T13:07:01Z</time>
      </trkpt>
      <trkpt lat="42.58052" lon="1.99552">
        <ele>2054.4</ele>
        <time>2019-07-31T13:07:06Z</time>
      </trkpt>
      <trkpt lat="42.58048" lon="1.99553">
        <ele>2058.2</ele>
        <time>2019-07-31T13:07:11Z</time>
      </trkpt>
      <trkpt lat="42.58044" lon="1.99555">
        <ele>2051</ele>
        <time>2019-07-31T13:07:16Z</time>
      </trkpt>
      <trkpt lat="42.58038" lon="1.99556">
        <ele>2053.2</ele>
        <time>2019-07-31T13:07:21Z</time>
      </trkpt>
      <trkpt lat="42.58033" lon="1.99556">
        <ele>2052.6</ele>
        <time>2019-07-31T13:07:26Z</time>
      </trkpt>
      <trkpt lat="42.58029" lon="1.99556">
        <ele>2052.8</ele>
        <time>2019-07-31T13:07:31Z</time>
      </trkpt>
      <trkpt lat="42.58024" lon="1.99557">
        <ele>2051.6</ele>
        <time>2019-07-31T13:07:36Z</time>
      </trkpt>
      <trkpt lat="42.5802" lon="1.99554">
        <ele>2055.4</ele>
        <time>2019-07-31T13:07:41Z</time>
      </trkpt>
      <trkpt lat="42.58017" lon="1.99552">
        <ele>2050</ele>
        <time>2019-07-31T13:07:46Z</time>
      </trkpt>
      <trkpt lat="42.58014" lon="1.99553">
        <ele>2051.6</ele>
        <time>2019-07-31T13:07:51Z</time>
      </trkpt>
      <trkpt lat="42.58011" lon="1.99551">
        <ele>2056.4</ele>
        <time>2019-07-31T13:07:56Z</time>
      </trkpt>
      <trkpt lat="42.58008" lon="1.99549">
        <ele>2054.2</ele>
        <time>2019-07-31T13:08:01Z</time>
      </trkpt>
      <trkpt lat="42.58003" lon="1.99548">
        <ele>2052.8</ele>
        <time>2019-07-31T13:08:06Z</time>
      </trkpt>
      <trkpt lat="42.58" lon="1.99545">
        <ele>2052</ele>
        <time>2019-07-31T13:08:11Z</time>
      </trkpt>
      <trkpt lat="42.57997" lon="1.99542">
        <ele>2051.4</ele>
        <time>2019-07-31T13:08:16Z</time>
      </trkpt>
      <trkpt lat="42.57993" lon="1.99539">
        <ele>2053.4</ele>
        <time>2019-07-31T13:08:21Z</time>
      </trkpt>
      <trkpt lat="42.57989" lon="1.99537">
        <ele>2051.8</ele>
        <time>2019-07-31T13:08:26Z</time>
      </trkpt>
      <trkpt lat="42.57984" lon="1.99534">
        <ele>2052</ele>
        <time>2019-07-31T13:08:31Z</time>
      </trkpt>
      <trkpt lat="42.57979" lon="1.99531">
        <ele>2050</ele>
        <time>2019-07-31T13:08:36Z</time>
      </trkpt>
      <trkpt lat="42.57974" lon="1.99527">
        <ele>2049.2</ele>
        <time>2019-07-31T13:08:41Z</time>
      </trkpt>
      <trkpt lat="42.57969" lon="1.99523">
        <ele>2052.2</ele>
        <time>2019-07-31T13:08:46Z</time>
      </trkpt>
      <trkpt lat="42.57963" lon="1.99519">
        <ele>2054</ele>
        <time>2019-07-31T13:08:51Z</time>
      </trkpt>
      <trkpt lat="42.57958" lon="1.99516">
        <ele>2054.2</ele>
        <time>2019-07-31T13:08:56Z</time>
      </trkpt>
      <trkpt lat="42.57953" lon="1.99513">
        <ele>2050.8</ele>
        <time>2019-07-31T13:09:01Z</time>
      </trkpt>
      <trkpt lat="42.57948" lon="1.9951">
        <ele>2051</ele>
        <time>2019-07-31T13:09:06Z</time>
      </trkpt>
      <trkpt lat="42.57944" lon="1.99507">
        <ele>2054</ele>
        <time>2019-07-31T13:09:11Z</time>
      </trkpt>
      <trkpt lat="42.57943" lon="1.99508">
        <ele>2054.8</ele>
        <time>2019-07-31T13:09:16Z</time>
      </trkpt>
      <trkpt lat="42.57935" lon="1.99508">
        <ele>2054.2</ele>
        <time>2019-07-31T13:09:26Z</time>
      </trkpt>
      <trkpt lat="42.57933" lon="1.99505">
        <ele>2051.6</ele>
        <time>2019-07-31T13:09:31Z</time>
      </trkpt>
      <trkpt lat="42.57932" lon="1.99501">
        <ele>2054.8</ele>
        <time>2019-07-31T13:09:36Z</time>
      </trkpt>
      <trkpt lat="42.5793" lon="1.99498">
        <ele>2052</ele>
        <time>2019-07-31T13:09:41Z</time>
      </trkpt>
      <trkpt lat="42.57928" lon="1.99495">
        <ele>2049.4</ele>
        <time>2019-07-31T13:09:46Z</time>
      </trkpt>
      <trkpt lat="42.57927" lon="1.99491">
        <ele>2051</ele>
        <time>2019-07-31T13:09:51Z</time>
      </trkpt>
      <trkpt lat="42.57927" lon="1.99488">
        <ele>2046.2</ele>
        <time>2019-07-31T13:09:56Z</time>
      </trkpt>
      <trkpt lat="42.57926" lon="1.99486">
        <ele>2048.2</ele>
        <time>2019-07-31T13:10:01Z</time>
      </trkpt>
      <trkpt lat="42.57925" lon="1.99482">
        <ele>2046</ele>
        <time>2019-07-31T13:10:06Z</time>
      </trkpt>
      <trkpt lat="42.57924" lon="1.9948">
        <ele>2043.6</ele>
        <time>2019-07-31T13:10:11Z</time>
      </trkpt>
      <trkpt lat="42.57922" lon="1.99477">
        <ele>2041</ele>
        <time>2019-07-31T13:10:16Z</time>
      </trkpt>
      <trkpt lat="42.57919" lon="1.99471">
        <ele>2040.8</ele>
        <time>2019-07-31T13:10:21Z</time>
      </trkpt>
      <trkpt lat="42.57914" lon="1.99466">
        <ele>2042.4</ele>
        <time>2019-07-31T13:10:26Z</time>
      </trkpt>
      <trkpt lat="42.57908" lon="1.99464">
        <ele>2043.8</ele>
        <time>2019-07-31T13:10:31Z</time>
      </trkpt>
      <trkpt lat="42.57902" lon="1.99461">
        <ele>2041.4</ele>
        <time>2019-07-31T13:10:36Z</time>
      </trkpt>
      <trkpt lat="42.57897" lon="1.99458">
        <ele>2041.2</ele>
        <time>2019-07-31T13:10:41Z</time>
      </trkpt>
      <trkpt lat="42.57892" lon="1.99454">
        <ele>2045</ele>
        <time>2019-07-31T13:10:46Z</time>
      </trkpt>
      <trkpt lat="42.57887" lon="1.99451">
        <ele>2043.6</ele>
        <time>2019-07-31T13:10:51Z</time>
      </trkpt>
      <trkpt lat="42.57882" lon="1.99448">
        <ele>2041.8</ele>
        <time>2019-07-31T13:10:56Z</time>
      </trkpt>
      <trkpt lat="42.57878" lon="1.99443">
        <ele>2040.6</ele>
        <time>2019-07-31T13:11:01Z</time>
      </trkpt>
      <trkpt lat="42.57876" lon="1.99436">
        <ele>2039</ele>
        <time>2019-07-31T13:11:06Z</time>
      </trkpt>
      <trkpt lat="42.57872" lon="1.9943">
        <ele>2042</ele>
        <time>2019-07-31T13:11:11Z</time>
      </trkpt>
      <trkpt lat="42.57868" lon="1.99426">
        <ele>2040</ele>
        <time>2019-07-31T13:11:16Z</time>
      </trkpt>
      <trkpt lat="42.57864" lon="1.99421">
        <ele>2038.4</ele>
        <time>2019-07-31T13:11:21Z</time>
      </trkpt>
      <trkpt lat="42.5786" lon="1.99416">
        <ele>2036.2</ele>
        <time>2019-07-31T13:11:26Z</time>
      </trkpt>
      <trkpt lat="42.57858" lon="1.99413">
        <ele>2038.2</ele>
        <time>2019-07-31T13:11:31Z</time>
      </trkpt>
      <trkpt lat="42.57854" lon="1.99408">
        <ele>2039.4</ele>
        <time>2019-07-31T13:11:36Z</time>
      </trkpt>
      <trkpt lat="42.5785" lon="1.99406">
        <ele>2039.8</ele>
        <time>2019-07-31T13:11:41Z</time>
      </trkpt>
      <trkpt lat="42.57846" lon="1.99404">
        <ele>2038</ele>
        <time>2019-07-31T13:11:46Z</time>
      </trkpt>
      <trkpt lat="42.57843" lon="1.99403">
        <ele>2038.6</ele>
        <time>2019-07-31T13:11:51Z</time>
      </trkpt>
      <trkpt lat="42.57841" lon="1.99403">
        <ele>2037.2</ele>
        <time>2019-07-31T13:11:56Z</time>
      </trkpt>
      <trkpt lat="42.57838" lon="1.99405">
        <ele>2034.4</ele>
        <time>2019-07-31T13:12:01Z</time>
      </trkpt>
      <trkpt lat="42.57835" lon="1.99402">
        <ele>2033.4</ele>
        <time>2019-07-31T13:12:06Z</time>
      </trkpt>
      <trkpt lat="42.57831" lon="1.994">
        <ele>2035</ele>
        <time>2019-07-31T13:12:11Z</time>
      </trkpt>
      <trkpt lat="42.57826" lon="1.99399">
        <ele>2036</ele>
        <time>2019-07-31T13:12:16Z</time>
      </trkpt>
      <trkpt lat="42.57821" lon="1.99398">
        <ele>2034</ele>
        <time>2019-07-31T13:12:21Z</time>
      </trkpt>
      <trkpt lat="42.57815" lon="1.99396">
        <ele>2032.8</ele>
        <time>2019-07-31T13:12:26Z</time>
      </trkpt>
      <trkpt lat="42.5781" lon="1.99394">
        <ele>2035.2</ele>
        <time>2019-07-31T13:12:31Z</time>
      </trkpt>
      <trkpt lat="42.57804" lon="1.99392">
        <ele>2035.2</ele>
        <time>2019-07-31T13:12:36Z</time>
      </trkpt>
      <trkpt lat="42.57798" lon="1.9939">
        <ele>2033.4</ele>
        <time>2019-07-31T13:12:41Z</time>
      </trkpt>
      <trkpt lat="42.57793" lon="1.99387">
        <ele>2035</ele>
        <time>2019-07-31T13:12:46Z</time>
      </trkpt>
      <trkpt lat="42.57787" lon="1.99387">
        <ele>2035.2</ele>
        <time>2019-07-31T13:12:51Z</time>
      </trkpt>
      <trkpt lat="42.57782" lon="1.99385">
        <ele>2033.2</ele>
        <time>2019-07-31T13:12:56Z</time>
      </trkpt>
      <trkpt lat="42.57776" lon="1.99383">
        <ele>2032.4</ele>
        <time>2019-07-31T13:13:01Z</time>
      </trkpt>
      <trkpt lat="42.57771" lon="1.99383">
        <ele>2034.2</ele>
        <time>2019-07-31T13:13:06Z</time>
      </trkpt>
      <trkpt lat="42.57765" lon="1.99381">
        <ele>2031.6</ele>
        <time>2019-07-31T13:13:11Z</time>
      </trkpt>
      <trkpt lat="42.57759" lon="1.99382">
        <ele>2033.6</ele>
        <time>2019-07-31T13:13:16Z</time>
      </trkpt>
      <trkpt lat="42.57754" lon="1.99384">
        <ele>2033.4</ele>
        <time>2019-07-31T13:13:21Z</time>
      </trkpt>
      <trkpt lat="42.5775" lon="1.99384">
        <ele>2033.4</ele>
        <time>2019-07-31T13:13:26Z</time>
      </trkpt>
      <trkpt lat="42.57744" lon="1.99384">
        <ele>2031.4</ele>
        <time>2019-07-31T13:13:31Z</time>
      </trkpt>
      <trkpt lat="42.5774" lon="1.99383">
        <ele>2033</ele>
        <time>2019-07-31T13:13:36Z</time>
      </trkpt>
      <trkpt lat="42.57734" lon="1.99382">
        <ele>2031.8</ele>
        <time>2019-07-31T13:13:41Z</time>
      </trkpt>
      <trkpt lat="42.57728" lon="1.99383">
        <ele>2031.2</ele>
        <time>2019-07-31T13:13:46Z</time>
      </trkpt>
      <trkpt lat="42.57723" lon="1.99384">
        <ele>2028.8</ele>
        <time>2019-07-31T13:13:51Z</time>
      </trkpt>
      <trkpt lat="42.57718" lon="1.99384">
        <ele>2030.2</ele>
        <time>2019-07-31T13:13:56Z</time>
      </trkpt>
      <trkpt lat="42.57713" lon="1.99386">
        <ele>2035.6</ele>
        <time>2019-07-31T13:14:01Z</time>
      </trkpt>
      <trkpt lat="42.57709" lon="1.99387">
        <ele>2031.2</ele>
        <time>2019-07-31T13:14:06Z</time>
      </trkpt>
      <trkpt lat="42.57704" lon="1.99389">
        <ele>2032.6</ele>
        <time>2019-07-31T13:14:11Z</time>
      </trkpt>
      <trkpt lat="42.57699" lon="1.9939">
        <ele>2031.4</ele>
        <time>2019-07-31T13:14:16Z</time>
      </trkpt>
      <trkpt lat="42.57695" lon="1.99388">
        <ele>2033</ele>
        <time>2019-07-31T13:14:21Z</time>
      </trkpt>
      <trkpt lat="42.5769" lon="1.99389">
        <ele>2031.4</ele>
        <time>2019-07-31T13:14:26Z</time>
      </trkpt>
      <trkpt lat="42.57685" lon="1.9939">
        <ele>2029.2</ele>
        <time>2019-07-31T13:14:31Z</time>
      </trkpt>
      <trkpt lat="42.57681" lon="1.99394">
        <ele>2029.6</ele>
        <time>2019-07-31T13:14:36Z</time>
      </trkpt>
      <trkpt lat="42.57677" lon="1.99397">
        <ele>2029.2</ele>
        <time>2019-07-31T13:14:41Z</time>
      </trkpt>
      <trkpt lat="42.57674" lon="1.99402">
        <ele>2030</ele>
        <time>2019-07-31T13:14:46Z</time>
      </trkpt>
      <trkpt lat="42.57671" lon="1.99405">
        <ele>2030.8</ele>
        <time>2019-07-31T13:14:51Z</time>
      </trkpt>
      <trkpt lat="42.57668" lon="1.99408">
        <ele>2033.2</ele>
        <time>2019-07-31T13:14:56Z</time>
      </trkpt>
      <trkpt lat="42.57667" lon="1.99408">
        <ele>2033.2</ele>
        <time>2019-07-31T13:15:01Z</time>
      </trkpt>
      <trkpt lat="42.57667" lon="1.99408">
        <ele>2033.6</ele>
        <time>2019-07-31T13:15:16Z</time>
      </trkpt>
      <trkpt lat="42.57664" lon="1.99409">
        <ele>2036</ele>
        <time>2019-07-31T13:15:21Z</time>
      </trkpt>
      <trkpt lat="42.57661" lon="1.99411">
        <ele>2037</ele>
        <time>2019-07-31T13:15:26Z</time>
      </trkpt>
      <trkpt lat="42.57659" lon="1.99417">
        <ele>2035.2</ele>
        <time>2019-07-31T13:15:31Z</time>
      </trkpt>
      <trkpt lat="42.57655" lon="1.99423">
        <ele>2034.6</ele>
        <time>2019-07-31T13:15:36Z</time>
      </trkpt>
      <trkpt lat="42.57654" lon="1.99423">
        <ele>2034.2</ele>
        <time>2019-07-31T13:15:46Z</time>
      </trkpt>
      <trkpt lat="42.57654" lon="1.99422">
        <ele>2034.8</ele>
        <time>2019-07-31T13:15:51Z</time>
      </trkpt>
      <trkpt lat="42.57649" lon="1.99417">
        <ele>2036</ele>
        <time>2019-07-31T13:15:56Z</time>
      </trkpt>
      <trkpt lat="42.57645" lon="1.99415">
        <ele>2035.8</ele>
        <time>2019-07-31T13:16:01Z</time>
      </trkpt>
      <trkpt lat="42.57641" lon="1.99409">
        <ele>2034.8</ele>
        <time>2019-07-31T13:16:06Z</time>
      </trkpt>
      <trkpt lat="42.57637" lon="1.99404">
        <ele>2037.2</ele>
        <time>2019-07-31T13:16:11Z</time>
      </trkpt>
      <trkpt lat="42.57632" lon="1.994">
        <ele>2033.8</ele>
        <time>2019-07-31T13:16:16Z</time>
      </trkpt>
      <trkpt lat="42.57626" lon="1.99401">
        <ele>2033.4</ele>
        <time>2019-07-31T13:16:21Z</time>
      </trkpt>
      <trkpt lat="42.57621" lon="1.99403">
        <ele>2032.4</ele>
        <time>2019-07-31T13:16:26Z</time>
      </trkpt>
      <trkpt lat="42.57618" lon="1.99403">
        <ele>2033.2</ele>
        <time>2019-07-31T13:16:31Z</time>
      </trkpt>
      <trkpt lat="42.57613" lon="1.99405">
        <ele>2031</ele>
        <time>2019-07-31T13:16:36Z</time>
      </trkpt>
      <trkpt lat="42.57607" lon="1.99407">
        <ele>2029.2</ele>
        <time>2019-07-31T13:16:41Z</time>
      </trkpt>
      <trkpt lat="42.57602" lon="1.99407">
        <ele>2030.4</ele>
        <time>2019-07-31T13:16:46Z</time>
      </trkpt>
      <trkpt lat="42.57596" lon="1.99406">
        <ele>2027.6</ele>
        <time>2019-07-31T13:16:51Z</time>
      </trkpt>
      <trkpt lat="42.5759" lon="1.99405">
        <ele>2029.8</ele>
        <time>2019-07-31T13:16:56Z</time>
      </trkpt>
      <trkpt lat="42.57585" lon="1.99405">
        <ele>2030.6</ele>
        <time>2019-07-31T13:17:01Z</time>
      </trkpt>
      <trkpt lat="42.57581" lon="1.99402">
        <ele>2030.6</ele>
        <time>2019-07-31T13:17:06Z</time>
      </trkpt>
      <trkpt lat="42.57576" lon="1.99398">
        <ele>2032.4</ele>
        <time>2019-07-31T13:17:11Z</time>
      </trkpt>
      <trkpt lat="42.57573" lon="1.99397">
        <ele>2032.6</ele>
        <time>2019-07-31T13:17:16Z</time>
      </trkpt>
      <trkpt lat="42.57567" lon="1.99394">
        <ele>2032.2</ele>
        <time>2019-07-31T13:17:21Z</time>
      </trkpt>
      <trkpt lat="42.57561" lon="1.9939">
        <ele>2030.6</ele>
        <time>2019-07-31T13:17:26Z</time>
      </trkpt>
      <trkpt lat="42.57557" lon="1.99388">
        <ele>2029.6</ele>
        <time>2019-07-31T13:17:31Z</time>
      </trkpt>
      <trkpt lat="42.57552" lon="1.99385">
        <ele>2030</ele>
        <time>2019-07-31T13:17:36Z</time>
      </trkpt>
      <trkpt lat="42.57548" lon="1.99383">
        <ele>2031.4</ele>
        <time>2019-07-31T13:17:41Z</time>
      </trkpt>
      <trkpt lat="42.57542" lon="1.9938">
        <ele>2032.2</ele>
        <time>2019-07-31T13:17:46Z</time>
      </trkpt>
      <trkpt lat="42.57537" lon="1.99378">
        <ele>2029.2</ele>
        <time>2019-07-31T13:17:51Z</time>
      </trkpt>
      <trkpt lat="42.57532" lon="1.99374">
        <ele>2029.8</ele>
        <time>2019-07-31T13:17:56Z</time>
      </trkpt>
      <trkpt lat="42.57527" lon="1.9937">
        <ele>2029.2</ele>
        <time>2019-07-31T13:18:01Z</time>
      </trkpt>
      <trkpt lat="42.57522" lon="1.99369">
        <ele>2029.6</ele>
        <time>2019-07-31T13:18:06Z</time>
      </trkpt>
      <trkpt lat="42.57517" lon="1.99367">
        <ele>2030.6</ele>
        <time>2019-07-31T13:18:11Z</time>
      </trkpt>
      <trkpt lat="42.57512" lon="1.99363">
        <ele>2030.8</ele>
        <time>2019-07-31T13:18:16Z</time>
      </trkpt>
      <trkpt lat="42.57506" lon="1.99362">
        <ele>2031.2</ele>
        <time>2019-07-31T13:18:21Z</time>
      </trkpt>
      <trkpt lat="42.57502" lon="1.99361">
        <ele>2031.6</ele>
        <time>2019-07-31T13:18:26Z</time>
      </trkpt>
      <trkpt lat="42.57496" lon="1.9936">
        <ele>2028</ele>
        <time>2019-07-31T13:18:31Z</time>
      </trkpt>
      <trkpt lat="42.57491" lon="1.99358">
        <ele>2029.4</ele>
        <time>2019-07-31T13:18:36Z</time>
      </trkpt>
      <trkpt lat="42.57486" lon="1.99356">
        <ele>2031.8</ele>
        <time>2019-07-31T13:18:41Z</time>
      </trkpt>
      <trkpt lat="42.57482" lon="1.99354">
        <ele>2031</ele>
        <time>2019-07-31T13:18:46Z</time>
      </trkpt>
      <trkpt lat="42.57477" lon="1.99351">
        <ele>2030.4</ele>
        <time>2019-07-31T13:18:51Z</time>
      </trkpt>
      <trkpt lat="42.57473" lon="1.99348">
        <ele>2029.2</ele>
        <time>2019-07-31T13:18:56Z</time>
      </trkpt>
      <trkpt lat="42.57469" lon="1.99345">
        <ele>2032.4</ele>
        <time>2019-07-31T13:19:01Z</time>
      </trkpt>
      <trkpt lat="42.57465" lon="1.99341">
        <ele>2032</ele>
        <time>2019-07-31T13:19:07Z</time>
      </trkpt>
      <trkpt lat="42.5746" lon="1.99339">
        <ele>2033.4</ele>
        <time>2019-07-31T13:19:12Z</time>
      </trkpt>
      <trkpt lat="42.57456" lon="1.99335">
        <ele>2034.8</ele>
        <time>2019-07-31T13:19:17Z</time>
      </trkpt>
      <trkpt lat="42.57452" lon="1.99331">
        <ele>2035.4</ele>
        <time>2019-07-31T13:19:22Z</time>
      </trkpt>
      <trkpt lat="42.5745" lon="1.99327">
        <ele>2035.4</ele>
        <time>2019-07-31T13:19:27Z</time>
      </trkpt>
      <trkpt lat="42.57449" lon="1.99324">
        <ele>2034</ele>
        <time>2019-07-31T13:19:32Z</time>
      </trkpt>
      <trkpt lat="42.57447" lon="1.9932">
        <ele>2036</ele>
        <time>2019-07-31T13:19:37Z</time>
      </trkpt>
      <trkpt lat="42.57442" lon="1.99319">
        <ele>2034.4</ele>
        <time>2019-07-31T13:19:42Z</time>
      </trkpt>
      <trkpt lat="42.57439" lon="1.99317">
        <ele>2034.8</ele>
        <time>2019-07-31T13:19:47Z</time>
      </trkpt>
      <trkpt lat="42.57436" lon="1.99315">
        <ele>2035.4</ele>
        <time>2019-07-31T13:19:52Z</time>
      </trkpt>
      <trkpt lat="42.57432" lon="1.99314">
        <ele>2037.6</ele>
        <time>2019-07-31T13:19:57Z</time>
      </trkpt>
      <trkpt lat="42.5743" lon="1.99311">
        <ele>2037.2</ele>
        <time>2019-07-31T13:20:02Z</time>
      </trkpt>
      <trkpt lat="42.57428" lon="1.99307">
        <ele>2039.6</ele>
        <time>2019-07-31T13:20:07Z</time>
      </trkpt>
      <trkpt lat="42.57425" lon="1.99304">
        <ele>2038.4</ele>
        <time>2019-07-31T13:20:12Z</time>
      </trkpt>
      <trkpt lat="42.57421" lon="1.99299">
        <ele>2042.4</ele>
        <time>2019-07-31T13:20:17Z</time>
      </trkpt>
      <trkpt lat="42.57418" lon="1.99296">
        <ele>2038.8</ele>
        <time>2019-07-31T13:20:22Z</time>
      </trkpt>
      <trkpt lat="42.57413" lon="1.99294">
        <ele>2040.6</ele>
        <time>2019-07-31T13:20:27Z</time>
      </trkpt>
      <trkpt lat="42.57408" lon="1.99293">
        <ele>2040.2</ele>
        <time>2019-07-31T13:20:32Z</time>
      </trkpt>
      <trkpt lat="42.57403" lon="1.9929">
        <ele>2040.4</ele>
        <time>2019-07-31T13:20:37Z</time>
      </trkpt>
      <trkpt lat="42.57399" lon="1.99287">
        <ele>2039.6</ele>
        <time>2019-07-31T13:20:42Z</time>
      </trkpt>
      <trkpt lat="42.57394" lon="1.99286">
        <ele>2041.4</ele>
        <time>2019-07-31T13:20:47Z</time>
      </trkpt>
      <trkpt lat="42.5739" lon="1.99286">
        <ele>2041.2</ele>
        <time>2019-07-31T13:20:52Z</time>
      </trkpt>
      <trkpt lat="42.57381" lon="1.99286">
        <ele>2041.8</ele>
        <time>2019-07-31T13:20:57Z</time>
      </trkpt>
      <trkpt lat="42.57375" lon="1.99286">
        <ele>2042.6</ele>
        <time>2019-07-31T13:21:02Z</time>
      </trkpt>
      <trkpt lat="42.5737" lon="1.99285">
        <ele>2043.4</ele>
        <time>2019-07-31T13:21:07Z</time>
      </trkpt>
      <trkpt lat="42.57367" lon="1.99284">
        <ele>2044.2</ele>
        <time>2019-07-31T13:21:12Z</time>
      </trkpt>
      <trkpt lat="42.57363" lon="1.99283">
        <ele>2044.8</ele>
        <time>2019-07-31T13:21:17Z</time>
      </trkpt>
      <trkpt lat="42.5736" lon="1.99282">
        <ele>2046.2</ele>
        <time>2019-07-31T13:21:22Z</time>
      </trkpt>
      <trkpt lat="42.57356" lon="1.99279">
        <ele>2045.6</ele>
        <time>2019-07-31T13:21:27Z</time>
      </trkpt>
      <trkpt lat="42.57352" lon="1.99277">
        <ele>2044.2</ele>
        <time>2019-07-31T13:21:32Z</time>
      </trkpt>
      <trkpt lat="42.57347" lon="1.99274">
        <ele>2045.8</ele>
        <time>2019-07-31T13:21:37Z</time>
      </trkpt>
      <trkpt lat="42.57344" lon="1.99272">
        <ele>2048</ele>
        <time>2019-07-31T13:21:42Z</time>
      </trkpt>
      <trkpt lat="42.57339" lon="1.99269">
        <ele>2047.2</ele>
        <time>2019-07-31T13:21:47Z</time>
      </trkpt>
      <trkpt lat="42.57336" lon="1.99267">
        <ele>2045.8</ele>
        <time>2019-07-31T13:21:52Z</time>
      </trkpt>
      <trkpt lat="42.57334" lon="1.99265">
        <ele>2046.8</ele>
        <time>2019-07-31T13:21:57Z</time>
      </trkpt>
      <trkpt lat="42.57331" lon="1.99264">
        <ele>2047.8</ele>
        <time>2019-07-31T13:22:02Z</time>
      </trkpt>
      <trkpt lat="42.57327" lon="1.99263">
        <ele>2049.2</ele>
        <time>2019-07-31T13:22:07Z</time>
      </trkpt>
      <trkpt lat="42.57324" lon="1.99263">
        <ele>2050.2</ele>
        <time>2019-07-31T13:22:12Z</time>
      </trkpt>
      <trkpt lat="42.57318" lon="1.99263">
        <ele>2046.4</ele>
        <time>2019-07-31T13:22:17Z</time>
      </trkpt>
      <trkpt lat="42.57315" lon="1.99263">
        <ele>2047.4</ele>
        <time>2019-07-31T13:22:22Z</time>
      </trkpt>
      <trkpt lat="42.57308" lon="1.99264">
        <ele>2047.2</ele>
        <time>2019-07-31T13:22:27Z</time>
      </trkpt>
      <trkpt lat="42.57303" lon="1.99263">
        <ele>2047.6</ele>
        <time>2019-07-31T13:22:32Z</time>
      </trkpt>
      <trkpt lat="42.57299" lon="1.99264">
        <ele>2048.4</ele>
        <time>2019-07-31T13:22:37Z</time>
      </trkpt>
      <trkpt lat="42.5729" lon="1.99266">
        <ele>2045.6</ele>
        <time>2019-07-31T13:22:42Z</time>
      </trkpt>
      <trkpt lat="42.57286" lon="1.99266">
        <ele>2047.4</ele>
        <time>2019-07-31T13:22:47Z</time>
      </trkpt>
      <trkpt lat="42.57285" lon="1.99267">
        <ele>2046.6</ele>
        <time>2019-07-31T13:22:52Z</time>
      </trkpt>
      <trkpt lat="42.57284" lon="1.99268">
        <ele>2048.4</ele>
        <time>2019-07-31T13:22:57Z</time>
      </trkpt>
      <trkpt lat="42.5728" lon="1.9927">
        <ele>2047.4</ele>
        <time>2019-07-31T13:23:02Z</time>
      </trkpt>
      <trkpt lat="42.57276" lon="1.99271">
        <ele>2046.2</ele>
        <time>2019-07-31T13:23:07Z</time>
      </trkpt>
      <trkpt lat="42.57272" lon="1.99272">
        <ele>2046</ele>
        <time>2019-07-31T13:23:12Z</time>
      </trkpt>
      <trkpt lat="42.57271" lon="1.99275">
        <ele>2048.4</ele>
        <time>2019-07-31T13:23:17Z</time>
      </trkpt>
      <trkpt lat="42.57269" lon="1.99276">
        <ele>2047.8</ele>
        <time>2019-07-31T13:23:22Z</time>
      </trkpt>
      <trkpt lat="42.57264" lon="1.99277">
        <ele>2048</ele>
        <time>2019-07-31T13:23:27Z</time>
      </trkpt>
      <trkpt lat="42.5726" lon="1.99281">
        <ele>2050.2</ele>
        <time>2019-07-31T13:23:32Z</time>
      </trkpt>
      <trkpt lat="42.57255" lon="1.99286">
        <ele>2050</ele>
        <time>2019-07-31T13:23:37Z</time>
      </trkpt>
      <trkpt lat="42.57251" lon="1.99292">
        <ele>2051.2</ele>
        <time>2019-07-31T13:23:42Z</time>
      </trkpt>
      <trkpt lat="42.57249" lon="1.99294">
        <ele>2050</ele>
        <time>2019-07-31T13:23:47Z</time>
      </trkpt>
      <trkpt lat="42.57245" lon="1.99298">
        <ele>2050</ele>
        <time>2019-07-31T13:23:52Z</time>
      </trkpt>
      <trkpt lat="42.57242" lon="1.99304">
        <ele>2050.4</ele>
        <time>2019-07-31T13:23:57Z</time>
      </trkpt>
      <trkpt lat="42.57239" lon="1.99309">
        <ele>2051.2</ele>
        <time>2019-07-31T13:24:02Z</time>
      </trkpt>
      <trkpt lat="42.57236" lon="1.99312">
        <ele>2051.2</ele>
        <time>2019-07-31T13:24:07Z</time>
      </trkpt>
      <trkpt lat="42.57234" lon="1.99315">
        <ele>2051</ele>
        <time>2019-07-31T13:24:12Z</time>
      </trkpt>
      <trkpt lat="42.5723" lon="1.99319">
        <ele>2052</ele>
        <time>2019-07-31T13:24:17Z</time>
      </trkpt>
      <trkpt lat="42.57226" lon="1.99322">
        <ele>2051.2</ele>
        <time>2019-07-31T13:24:22Z</time>
      </trkpt>
      <trkpt lat="42.57226" lon="1.99325">
        <ele>2049.4</ele>
        <time>2019-07-31T13:24:27Z</time>
      </trkpt>
      <trkpt lat="42.57224" lon="1.99328">
        <ele>2049.8</ele>
        <time>2019-07-31T13:24:32Z</time>
      </trkpt>
      <trkpt lat="42.57222" lon="1.99329">
        <ele>2046</ele>
        <time>2019-07-31T13:24:37Z</time>
      </trkpt>
      <trkpt lat="42.57218" lon="1.99328">
        <ele>2045</ele>
        <time>2019-07-31T13:24:42Z</time>
      </trkpt>
      <trkpt lat="42.57212" lon="1.99328">
        <ele>2044.2</ele>
        <time>2019-07-31T13:24:47Z</time>
      </trkpt>
      <trkpt lat="42.57208" lon="1.99324">
        <ele>2045.8</ele>
        <time>2019-07-31T13:24:52Z</time>
      </trkpt>
      <trkpt lat="42.57204" lon="1.99321">
        <ele>2042.4</ele>
        <time>2019-07-31T13:24:57Z</time>
      </trkpt>
      <trkpt lat="42.57201" lon="1.99318">
        <ele>2046</ele>
        <time>2019-07-31T13:25:02Z</time>
      </trkpt>
      <trkpt lat="42.57199" lon="1.99316">
        <ele>2043</ele>
        <time>2019-07-31T13:25:07Z</time>
      </trkpt>
      <trkpt lat="42.57197" lon="1.99312">
        <ele>2043.2</ele>
        <time>2019-07-31T13:25:12Z</time>
      </trkpt>
      <trkpt lat="42.57194" lon="1.99309">
        <ele>2045.8</ele>
        <time>2019-07-31T13:25:17Z</time>
      </trkpt>
      <trkpt lat="42.57191" lon="1.99304">
        <ele>2047</ele>
        <time>2019-07-31T13:25:22Z</time>
      </trkpt>
      <trkpt lat="42.57188" lon="1.993">
        <ele>2045.2</ele>
        <time>2019-07-31T13:25:27Z</time>
      </trkpt>
      <trkpt lat="42.57184" lon="1.99297">
        <ele>2044.8</ele>
        <time>2019-07-31T13:25:32Z</time>
      </trkpt>
      <trkpt lat="42.57182" lon="1.99293">
        <ele>2041.6</ele>
        <time>2019-07-31T13:25:37Z</time>
      </trkpt>
      <trkpt lat="42.57179" lon="1.99289">
        <ele>2042.4</ele>
        <time>2019-07-31T13:25:42Z</time>
      </trkpt>
      <trkpt lat="42.57178" lon="1.99285">
        <ele>2043.4</ele>
        <time>2019-07-31T13:25:47Z</time>
      </trkpt>
      <trkpt lat="42.57175" lon="1.9928">
        <ele>2042.6</ele>
        <time>2019-07-31T13:25:53Z</time>
      </trkpt>
      <trkpt lat="42.57171" lon="1.99277">
        <ele>2044.4</ele>
        <time>2019-07-31T13:25:58Z</time>
      </trkpt>
      <trkpt lat="42.57168" lon="1.99274">
        <ele>2044.8</ele>
        <time>2019-07-31T13:26:03Z</time>
      </trkpt>
      <trkpt lat="42.57165" lon="1.99271">
        <ele>2044</ele>
        <time>2019-07-31T13:26:08Z</time>
      </trkpt>
      <trkpt lat="42.57161" lon="1.99268">
        <ele>2040.8</ele>
        <time>2019-07-31T13:26:13Z</time>
      </trkpt>
      <trkpt lat="42.57157" lon="1.99266">
        <ele>2040.6</ele>
        <time>2019-07-31T13:26:18Z</time>
      </trkpt>
      <trkpt lat="42.57152" lon="1.99263">
        <ele>2040.2</ele>
        <time>2019-07-31T13:26:23Z</time>
      </trkpt>
      <trkpt lat="42.57149" lon="1.99261">
        <ele>2037.2</ele>
        <time>2019-07-31T13:26:28Z</time>
      </trkpt>
      <trkpt lat="42.57145" lon="1.9926">
        <ele>2040</ele>
        <time>2019-07-31T13:26:33Z</time>
      </trkpt>
      <trkpt lat="42.5714" lon="1.99258">
        <ele>2039.2</ele>
        <time>2019-07-31T13:26:38Z</time>
      </trkpt>
      <trkpt lat="42.57135" lon="1.99257">
        <ele>2041.4</ele>
        <time>2019-07-31T13:26:43Z</time>
      </trkpt>
      <trkpt lat="42.5713" lon="1.99255">
        <ele>2039.8</ele>
        <time>2019-07-31T13:26:48Z</time>
      </trkpt>
      <trkpt lat="42.57126" lon="1.99252">
        <ele>2041.4</ele>
        <time>2019-07-31T13:26:53Z</time>
      </trkpt>
      <trkpt lat="42.57124" lon="1.99248">
        <ele>2038.4</ele>
        <time>2019-07-31T13:26:58Z</time>
      </trkpt>
      <trkpt lat="42.5712" lon="1.99247">
        <ele>2039.4</ele>
        <time>2019-07-31T13:27:03Z</time>
      </trkpt>
      <trkpt lat="42.57118" lon="1.99246">
        <ele>2038.6</ele>
        <time>2019-07-31T13:27:08Z</time>
      </trkpt>
      <trkpt lat="42.57112" lon="1.99248">
        <ele>2038.2</ele>
        <time>2019-07-31T13:27:13Z</time>
      </trkpt>
      <trkpt lat="42.57108" lon="1.99253">
        <ele>2037.2</ele>
        <time>2019-07-31T13:27:18Z</time>
      </trkpt>
      <trkpt lat="42.57107" lon="1.99253">
        <ele>2036.6</ele>
        <time>2019-07-31T13:27:23Z</time>
      </trkpt>
      <trkpt lat="42.57105" lon="1.99253">
        <ele>2036.8</ele>
        <time>2019-07-31T13:27:28Z</time>
      </trkpt>
      <trkpt lat="42.57102" lon="1.99254">
        <ele>2038.4</ele>
        <time>2019-07-31T13:27:33Z</time>
      </trkpt>
      <trkpt lat="42.57098" lon="1.99257">
        <ele>2035.4</ele>
        <time>2019-07-31T13:27:38Z</time>
      </trkpt>
      <trkpt lat="42.57092" lon="1.99262">
        <ele>2035.2</ele>
        <time>2019-07-31T13:27:43Z</time>
      </trkpt>
      <trkpt lat="42.57088" lon="1.99266">
        <ele>2037.8</ele>
        <time>2019-07-31T13:27:48Z</time>
      </trkpt>
      <trkpt lat="42.57083" lon="1.99271">
        <ele>2034.6</ele>
        <time>2019-07-31T13:27:53Z</time>
      </trkpt>
      <trkpt lat="42.5708" lon="1.99275">
        <ele>2035.2</ele>
        <time>2019-07-31T13:27:58Z</time>
      </trkpt>
      <trkpt lat="42.57077" lon="1.9928">
        <ele>2035.2</ele>
        <time>2019-07-31T13:28:03Z</time>
      </trkpt>
      <trkpt lat="42.5707" lon="1.99285">
        <ele>2036.4</ele>
        <time>2019-07-31T13:28:08Z</time>
      </trkpt>
      <trkpt lat="42.57065" lon="1.99289">
        <ele>2035.8</ele>
        <time>2019-07-31T13:28:13Z</time>
      </trkpt>
      <trkpt lat="42.5706" lon="1.99293">
        <ele>2033.2</ele>
        <time>2019-07-31T13:28:18Z</time>
      </trkpt>
      <trkpt lat="42.57056" lon="1.99295">
        <ele>2036.4</ele>
        <time>2019-07-31T13:28:23Z</time>
      </trkpt>
      <trkpt lat="42.57051" lon="1.99299">
        <ele>2036.6</ele>
        <time>2019-07-31T13:28:28Z</time>
      </trkpt>
      <trkpt lat="42.57045" lon="1.99303">
        <ele>2036.4</ele>
        <time>2019-07-31T13:28:33Z</time>
      </trkpt>
      <trkpt lat="42.57041" lon="1.99307">
        <ele>2036</ele>
        <time>2019-07-31T13:28:38Z</time>
      </trkpt>
      <trkpt lat="42.57037" lon="1.99312">
        <ele>2034</ele>
        <time>2019-07-31T13:28:43Z</time>
      </trkpt>
      <trkpt lat="42.57034" lon="1.99317">
        <ele>2037.4</ele>
        <time>2019-07-31T13:28:48Z</time>
      </trkpt>
      <trkpt lat="42.57029" lon="1.99322">
        <ele>2038.8</ele>
        <time>2019-07-31T13:28:53Z</time>
      </trkpt>
      <trkpt lat="42.57026" lon="1.99327">
        <ele>2036.6</ele>
        <time>2019-07-31T13:28:58Z</time>
      </trkpt>
      <trkpt lat="42.57023" lon="1.99332">
        <ele>2038.6</ele>
        <time>2019-07-31T13:29:03Z</time>
      </trkpt>
      <trkpt lat="42.57018" lon="1.99335">
        <ele>2037.2</ele>
        <time>2019-07-31T13:29:08Z</time>
      </trkpt>
      <trkpt lat="42.57014" lon="1.99338">
        <ele>2039.2</ele>
        <time>2019-07-31T13:29:13Z</time>
      </trkpt>
      <trkpt lat="42.57009" lon="1.99341">
        <ele>2038</ele>
        <time>2019-07-31T13:29:18Z</time>
      </trkpt>
      <trkpt lat="42.57006" lon="1.99344">
        <ele>2037.4</ele>
        <time>2019-07-31T13:29:23Z</time>
      </trkpt>
      <trkpt lat="42.57001" lon="1.99346">
        <ele>2036.4</ele>
        <time>2019-07-31T13:29:28Z</time>
      </trkpt>
      <trkpt lat="42.56997" lon="1.99348">
        <ele>2037</ele>
        <time>2019-07-31T13:29:33Z</time>
      </trkpt>
      <trkpt lat="42.56993" lon="1.99351">
        <ele>2038.8</ele>
        <time>2019-07-31T13:29:38Z</time>
      </trkpt>
      <trkpt lat="42.56988" lon="1.99355">
        <ele>2040</ele>
        <time>2019-07-31T13:29:43Z</time>
      </trkpt>
      <trkpt lat="42.56985" lon="1.99359">
        <ele>2040.8</ele>
        <time>2019-07-31T13:29:48Z</time>
      </trkpt>
      <trkpt lat="42.56981" lon="1.99363">
        <ele>2043.4</ele>
        <time>2019-07-31T13:29:53Z</time>
      </trkpt>
      <trkpt lat="42.56976" lon="1.99368">
        <ele>2042.2</ele>
        <time>2019-07-31T13:29:58Z</time>
      </trkpt>
      <trkpt lat="42.56972" lon="1.99373">
        <ele>2044.6</ele>
        <time>2019-07-31T13:30:03Z</time>
      </trkpt>
      <trkpt lat="42.56969" lon="1.99378">
        <ele>2043.8</ele>
        <time>2019-07-31T13:30:08Z</time>
      </trkpt>
      <trkpt lat="42.56966" lon="1.9938">
        <ele>2045.4</ele>
        <time>2019-07-31T13:30:13Z</time>
      </trkpt>
      <trkpt lat="42.56963" lon="1.99383">
        <ele>2043.6</ele>
        <time>2019-07-31T13:30:18Z</time>
      </trkpt>
      <trkpt lat="42.5696" lon="1.99387">
        <ele>2041.4</ele>
        <time>2019-07-31T13:30:23Z</time>
      </trkpt>
      <trkpt lat="42.56957" lon="1.99389">
        <ele>2038.8</ele>
        <time>2019-07-31T13:30:28Z</time>
      </trkpt>
      <trkpt lat="42.56952" lon="1.99391">
        <ele>2038.2</ele>
        <time>2019-07-31T13:30:33Z</time>
      </trkpt>
      <trkpt lat="42.56947" lon="1.99394">
        <ele>2038</ele>
        <time>2019-07-31T13:30:38Z</time>
      </trkpt>
      <trkpt lat="42.56942" lon="1.99395">
        <ele>2034.6</ele>
        <time>2019-07-31T13:30:43Z</time>
      </trkpt>
      <trkpt lat="42.56937" lon="1.99395">
        <ele>2036.4</ele>
        <time>2019-07-31T13:30:48Z</time>
      </trkpt>
      <trkpt lat="42.56932" lon="1.99396">
        <ele>2035.6</ele>
        <time>2019-07-31T13:30:53Z</time>
      </trkpt>
      <trkpt lat="42.5693" lon="1.99397">
        <ele>2034</ele>
        <time>2019-07-31T13:30:58Z</time>
      </trkpt>
      <trkpt lat="42.5693" lon="1.99397">
        <ele>2032.8</ele>
        <time>2019-07-31T13:31:03Z</time>
      </trkpt>
      <trkpt lat="42.56926" lon="1.99398">
        <ele>2033.6</ele>
        <time>2019-07-31T13:31:08Z</time>
      </trkpt>
      <trkpt lat="42.56921" lon="1.99402">
        <ele>2034.4</ele>
        <time>2019-07-31T13:31:13Z</time>
      </trkpt>
      <trkpt lat="42.56917" lon="1.99407">
        <ele>2034</ele>
        <time>2019-07-31T13:31:18Z</time>
      </trkpt>
      <trkpt lat="42.56913" lon="1.99408">
        <ele>2036.8</ele>
        <time>2019-07-31T13:31:23Z</time>
      </trkpt>
      <trkpt lat="42.56909" lon="1.9941">
        <ele>2036.2</ele>
        <time>2019-07-31T13:31:28Z</time>
      </trkpt>
      <trkpt lat="42.56906" lon="1.99411">
        <ele>2039.4</ele>
        <time>2019-07-31T13:31:33Z</time>
      </trkpt>
      <trkpt lat="42.56902" lon="1.99413">
        <ele>2043.4</ele>
        <time>2019-07-31T13:31:38Z</time>
      </trkpt>
      <trkpt lat="42.56899" lon="1.99417">
        <ele>2043.8</ele>
        <time>2019-07-31T13:31:43Z</time>
      </trkpt>
      <trkpt lat="42.56895" lon="1.99421">
        <ele>2046</ele>
        <time>2019-07-31T13:31:48Z</time>
      </trkpt>
      <trkpt lat="42.56892" lon="1.99424">
        <ele>2044.2</ele>
        <time>2019-07-31T13:31:53Z</time>
      </trkpt>
      <trkpt lat="42.56888" lon="1.99427">
        <ele>2041.6</ele>
        <time>2019-07-31T13:31:58Z</time>
      </trkpt>
      <trkpt lat="42.56884" lon="1.99432">
        <ele>2043.8</ele>
        <time>2019-07-31T13:32:03Z</time>
      </trkpt>
      <trkpt lat="42.56882" lon="1.99434">
        <ele>2046.2</ele>
        <time>2019-07-31T13:32:08Z</time>
      </trkpt>
      <trkpt lat="42.56878" lon="1.99435">
        <ele>2046.8</ele>
        <time>2019-07-31T13:32:13Z</time>
      </trkpt>
      <trkpt lat="42.56874" lon="1.99438">
        <ele>2047.4</ele>
        <time>2019-07-31T13:32:18Z</time>
      </trkpt>
      <trkpt lat="42.56869" lon="1.9944">
        <ele>2048</ele>
        <time>2019-07-31T13:32:23Z</time>
      </trkpt>
      <trkpt lat="42.56864" lon="1.99441">
        <ele>2047.2</ele>
        <time>2019-07-31T13:32:28Z</time>
      </trkpt>
      <trkpt lat="42.56863" lon="1.99443">
        <ele>2044.8</ele>
        <time>2019-07-31T13:32:33Z</time>
      </trkpt>
      <trkpt lat="42.56863" lon="1.99444">
        <ele>2045</ele>
        <time>2019-07-31T13:32:38Z</time>
      </trkpt>
      <trkpt lat="42.56859" lon="1.99445">
        <ele>2045.2</ele>
        <time>2019-07-31T13:32:43Z</time>
      </trkpt>
      <trkpt lat="42.56853" lon="1.99446">
        <ele>2045.6</ele>
        <time>2019-07-31T13:32:48Z</time>
      </trkpt>
      <trkpt lat="42.56849" lon="1.99446">
        <ele>2045</ele>
        <time>2019-07-31T13:32:53Z</time>
      </trkpt>
      <trkpt lat="42.56844" lon="1.99444">
        <ele>2044.2</ele>
        <time>2019-07-31T13:32:58Z</time>
      </trkpt>
      <trkpt lat="42.56841" lon="1.99443">
        <ele>2044.4</ele>
        <time>2019-07-31T13:33:03Z</time>
      </trkpt>
      <trkpt lat="42.56836" lon="1.99443">
        <ele>2044</ele>
        <time>2019-07-31T13:33:08Z</time>
      </trkpt>
      <trkpt lat="42.56835" lon="1.99442">
        <ele>2044.2</ele>
        <time>2019-07-31T13:33:13Z</time>
      </trkpt>
      <trkpt lat="42.56831" lon="1.99441">
        <ele>2041.8</ele>
        <time>2019-07-31T13:33:18Z</time>
      </trkpt>
      <trkpt lat="42.56829" lon="1.9944">
        <ele>2038.8</ele>
        <time>2019-07-31T13:33:23Z</time>
      </trkpt>
      <trkpt lat="42.56827" lon="1.9944">
        <ele>2039.6</ele>
        <time>2019-07-31T13:33:28Z</time>
      </trkpt>
      <trkpt lat="42.56823" lon="1.99439">
        <ele>2039.2</ele>
        <time>2019-07-31T13:33:33Z</time>
      </trkpt>
      <trkpt lat="42.56819" lon="1.99435">
        <ele>2040</ele>
        <time>2019-07-31T13:33:38Z</time>
      </trkpt>
      <trkpt lat="42.56814" lon="1.9943">
        <ele>2039.4</ele>
        <time>2019-07-31T13:33:43Z</time>
      </trkpt>
      <trkpt lat="42.5681" lon="1.99426">
        <ele>2041.4</ele>
        <time>2019-07-31T13:33:48Z</time>
      </trkpt>
      <trkpt lat="42.56804" lon="1.99426">
        <ele>2037.6</ele>
        <time>2019-07-31T13:33:53Z</time>
      </trkpt>
      <trkpt lat="42.56796" lon="1.99426">
        <ele>2039</ele>
        <time>2019-07-31T13:33:58Z</time>
      </trkpt>
      <trkpt lat="42.56791" lon="1.99425">
        <ele>2040</ele>
        <time>2019-07-31T13:34:03Z</time>
      </trkpt>
      <trkpt lat="42.56787" lon="1.99425">
        <ele>2036.2</ele>
        <time>2019-07-31T13:34:08Z</time>
      </trkpt>
      <trkpt lat="42.5678" lon="1.99427">
        <ele>2039.2</ele>
        <time>2019-07-31T13:34:13Z</time>
      </trkpt>
      <trkpt lat="42.56776" lon="1.99427">
        <ele>2037.8</ele>
        <time>2019-07-31T13:34:18Z</time>
      </trkpt>
      <trkpt lat="42.56772" lon="1.99428">
        <ele>2036.2</ele>
        <time>2019-07-31T13:34:23Z</time>
      </trkpt>
      <trkpt lat="42.56767" lon="1.9943">
        <ele>2038.8</ele>
        <time>2019-07-31T13:34:28Z</time>
      </trkpt>
      <trkpt lat="42.56761" lon="1.99433">
        <ele>2040</ele>
        <time>2019-07-31T13:34:33Z</time>
      </trkpt>
      <trkpt lat="42.56756" lon="1.99435">
        <ele>2037.4</ele>
        <time>2019-07-31T13:34:38Z</time>
      </trkpt>
      <trkpt lat="42.56753" lon="1.99439">
        <ele>2039.2</ele>
        <time>2019-07-31T13:34:43Z</time>
      </trkpt>
      <trkpt lat="42.56749" lon="1.99444">
        <ele>2040.8</ele>
        <time>2019-07-31T13:34:48Z</time>
      </trkpt>
      <trkpt lat="42.56745" lon="1.99448">
        <ele>2039.4</ele>
        <time>2019-07-31T13:34:53Z</time>
      </trkpt>
      <trkpt lat="42.56741" lon="1.99452">
        <ele>2038.4</ele>
        <time>2019-07-31T13:34:58Z</time>
      </trkpt>
      <trkpt lat="42.56737" lon="1.99457">
        <ele>2040.6</ele>
        <time>2019-07-31T13:35:03Z</time>
      </trkpt>
      <trkpt lat="42.56733" lon="1.99461">
        <ele>2041.8</ele>
        <time>2019-07-31T13:35:08Z</time>
      </trkpt>
      <trkpt lat="42.56729" lon="1.99463">
        <ele>2040.4</ele>
        <time>2019-07-31T13:35:13Z</time>
      </trkpt>
      <trkpt lat="42.56726" lon="1.99465">
        <ele>2042.8</ele>
        <time>2019-07-31T13:35:18Z</time>
      </trkpt>
      <trkpt lat="42.56722" lon="1.99467">
        <ele>2040</ele>
        <time>2019-07-31T13:35:23Z</time>
      </trkpt>
      <trkpt lat="42.56718" lon="1.99468">
        <ele>2041.4</ele>
        <time>2019-07-31T13:35:28Z</time>
      </trkpt>
      <trkpt lat="42.56715" lon="1.99468">
        <ele>2035.6</ele>
        <time>2019-07-31T13:35:33Z</time>
      </trkpt>
      <trkpt lat="42.56711" lon="1.9947">
        <ele>2037.8</ele>
        <time>2019-07-31T13:35:38Z</time>
      </trkpt>
      <trkpt lat="42.56709" lon="1.99468">
        <ele>2038.2</ele>
        <time>2019-07-31T13:35:43Z</time>
      </trkpt>
      <trkpt lat="42.56708" lon="1.99467">
        <ele>2037.4</ele>
        <time>2019-07-31T13:35:48Z</time>
      </trkpt>
      <trkpt lat="42.56706" lon="1.99466">
        <ele>2036.2</ele>
        <time>2019-07-31T13:35:53Z</time>
      </trkpt>
      <trkpt lat="42.56706" lon="1.99466">
        <ele>2035</ele>
        <time>2019-07-31T13:35:58Z</time>
      </trkpt>
      <trkpt lat="42.56703" lon="1.99463">
        <ele>2036.2</ele>
        <time>2019-07-31T13:36:03Z</time>
      </trkpt>
      <trkpt lat="42.56703" lon="1.99462">
        <ele>2034.4</ele>
        <time>2019-07-31T13:36:08Z</time>
      </trkpt>
      <trkpt lat="42.56702" lon="1.99462">
        <ele>2033.8</ele>
        <time>2019-07-31T13:36:13Z</time>
      </trkpt>
      <trkpt lat="42.567" lon="1.99462">
        <ele>2033.4</ele>
        <time>2019-07-31T13:36:18Z</time>
      </trkpt>
      <trkpt lat="42.56696" lon="1.99463">
        <ele>2036</ele>
        <time>2019-07-31T13:36:23Z</time>
      </trkpt>
      <trkpt lat="42.56693" lon="1.99464">
        <ele>2034.4</ele>
        <time>2019-07-31T13:36:28Z</time>
      </trkpt>
      <trkpt lat="42.56688" lon="1.99466">
        <ele>2038</ele>
        <time>2019-07-31T13:36:33Z</time>
      </trkpt>
      <trkpt lat="42.56682" lon="1.99467">
        <ele>2036</ele>
        <time>2019-07-31T13:36:38Z</time>
      </trkpt>
      <trkpt lat="42.56677" lon="1.99469">
        <ele>2031.4</ele>
        <time>2019-07-31T13:36:43Z</time>
      </trkpt>
      <trkpt lat="42.56673" lon="1.9947">
        <ele>2033.6</ele>
        <time>2019-07-31T13:36:48Z</time>
      </trkpt>
      <trkpt lat="42.56669" lon="1.99475">
        <ele>2032.6</ele>
        <time>2019-07-31T13:36:53Z</time>
      </trkpt>
      <trkpt lat="42.56665" lon="1.99479">
        <ele>2032.2</ele>
        <time>2019-07-31T13:36:58Z</time>
      </trkpt>
      <trkpt lat="42.56662" lon="1.99483">
        <ele>2035.6</ele>
        <time>2019-07-31T13:37:03Z</time>
      </trkpt>
      <trkpt lat="42.56659" lon="1.99488">
        <ele>2034.6</ele>
        <time>2019-07-31T13:37:08Z</time>
      </trkpt>
      <trkpt lat="42.56656" lon="1.99493">
        <ele>2034.2</ele>
        <time>2019-07-31T13:37:13Z</time>
      </trkpt>
      <trkpt lat="42.56654" lon="1.99498">
        <ele>2036.4</ele>
        <time>2019-07-31T13:37:18Z</time>
      </trkpt>
      <trkpt lat="42.56652" lon="1.99503">
        <ele>2038.2</ele>
        <time>2019-07-31T13:37:23Z</time>
      </trkpt>
      <trkpt lat="42.56652" lon="1.9951">
        <ele>2037.6</ele>
        <time>2019-07-31T13:37:28Z</time>
      </trkpt>
      <trkpt lat="42.56652" lon="1.99515">
        <ele>2034.2</ele>
        <time>2019-07-31T13:37:33Z</time>
      </trkpt>
      <trkpt lat="42.56652" lon="1.99519">
        <ele>2034</ele>
        <time>2019-07-31T13:37:38Z</time>
      </trkpt>
      <trkpt lat="42.56651" lon="1.99525">
        <ele>2034.4</ele>
        <time>2019-07-31T13:37:43Z</time>
      </trkpt>
      <trkpt lat="42.56648" lon="1.99529">
        <ele>2034.2</ele>
        <time>2019-07-31T13:37:48Z</time>
      </trkpt>
      <trkpt lat="42.56645" lon="1.99532">
        <ele>2036.2</ele>
        <time>2019-07-31T13:37:53Z</time>
      </trkpt>
      <trkpt lat="42.56642" lon="1.99536">
        <ele>2034.4</ele>
        <time>2019-07-31T13:37:58Z</time>
      </trkpt>
      <trkpt lat="42.56639" lon="1.99538">
        <ele>2037.8</ele>
        <time>2019-07-31T13:38:03Z</time>
      </trkpt>
      <trkpt lat="42.56634" lon="1.99539">
        <ele>2037</ele>
        <time>2019-07-31T13:38:08Z</time>
      </trkpt>
      <trkpt lat="42.5663" lon="1.99541">
        <ele>2037.6</ele>
        <time>2019-07-31T13:38:13Z</time>
      </trkpt>
      <trkpt lat="42.56626" lon="1.99542">
        <ele>2037.4</ele>
        <time>2019-07-31T13:38:18Z</time>
      </trkpt>
      <trkpt lat="42.56619" lon="1.99544">
        <ele>2037.8</ele>
        <time>2019-07-31T13:38:23Z</time>
      </trkpt>
      <trkpt lat="42.56615" lon="1.99546">
        <ele>2039.8</ele>
        <time>2019-07-31T13:38:28Z</time>
      </trkpt>
      <trkpt lat="42.56611" lon="1.99549">
        <ele>2038.6</ele>
        <time>2019-07-31T13:38:33Z</time>
      </trkpt>
      <trkpt lat="42.56607" lon="1.99554">
        <ele>2037.2</ele>
        <time>2019-07-31T13:38:38Z</time>
      </trkpt>
      <trkpt lat="42.56603" lon="1.99553">
        <ele>2036.4</ele>
        <time>2019-07-31T13:38:43Z</time>
      </trkpt>
      <trkpt lat="42.56599" lon="1.99553">
        <ele>2034</ele>
        <time>2019-07-31T13:38:48Z</time>
      </trkpt>
      <trkpt lat="42.56594" lon="1.99554">
        <ele>2035.4</ele>
        <time>2019-07-31T13:38:53Z</time>
      </trkpt>
      <trkpt lat="42.56587" lon="1.99553">
        <ele>2035.4</ele>
        <time>2019-07-31T13:38:58Z</time>
      </trkpt>
      <trkpt lat="42.56584" lon="1.99552">
        <ele>2037.2</ele>
        <time>2019-07-31T13:39:03Z</time>
      </trkpt>
      <trkpt lat="42.56581" lon="1.99552">
        <ele>2034.2</ele>
        <time>2019-07-31T13:39:08Z</time>
      </trkpt>
      <trkpt lat="42.56578" lon="1.99552">
        <ele>2033.2</ele>
        <time>2019-07-31T13:39:13Z</time>
      </trkpt>
      <trkpt lat="42.56571" lon="1.99553">
        <ele>2032.8</ele>
        <time>2019-07-31T13:39:18Z</time>
      </trkpt>
      <trkpt lat="42.56565" lon="1.99556">
        <ele>2035.6</ele>
        <time>2019-07-31T13:39:23Z</time>
      </trkpt>
      <trkpt lat="42.5656" lon="1.99559">
        <ele>2032.2</ele>
        <time>2019-07-31T13:39:28Z</time>
      </trkpt>
      <trkpt lat="42.56556" lon="1.99559">
        <ele>2034</ele>
        <time>2019-07-31T13:39:33Z</time>
      </trkpt>
      <trkpt lat="42.56556" lon="1.99561">
        <ele>2033</ele>
        <time>2019-07-31T13:39:38Z</time>
      </trkpt>
      <trkpt lat="42.56553" lon="1.99562">
        <ele>2033.4</ele>
        <time>2019-07-31T13:39:43Z</time>
      </trkpt>
      <trkpt lat="42.56551" lon="1.99561">
        <ele>2032.4</ele>
        <time>2019-07-31T13:39:48Z</time>
      </trkpt>
      <trkpt lat="42.5655" lon="1.99559">
        <ele>2031.8</ele>
        <time>2019-07-31T13:39:53Z</time>
      </trkpt>
      <trkpt lat="42.56546" lon="1.99559">
        <ele>2031.4</ele>
        <time>2019-07-31T13:39:58Z</time>
      </trkpt>
      <trkpt lat="42.56539" lon="1.99559">
        <ele>2033.4</ele>
        <time>2019-07-31T13:40:03Z</time>
      </trkpt>
      <trkpt lat="42.56536" lon="1.99556">
        <ele>2031.6</ele>
        <time>2019-07-31T13:40:08Z</time>
      </trkpt>
      <trkpt lat="42.56533" lon="1.99556">
        <ele>2029.8</ele>
        <time>2019-07-31T13:40:13Z</time>
      </trkpt>
      <trkpt lat="42.5653" lon="1.99556">
        <ele>2028.8</ele>
        <time>2019-07-31T13:40:18Z</time>
      </trkpt>
      <trkpt lat="42.56525" lon="1.99558">
        <ele>2029.2</ele>
        <time>2019-07-31T13:40:23Z</time>
      </trkpt>
      <trkpt lat="42.56518" lon="1.99556">
        <ele>2031.8</ele>
        <time>2019-07-31T13:40:28Z</time>
      </trkpt>
      <trkpt lat="42.56513" lon="1.99556">
        <ele>2033.2</ele>
        <time>2019-07-31T13:40:33Z</time>
      </trkpt>
      <trkpt lat="42.5651" lon="1.99557">
        <ele>2032.8</ele>
        <time>2019-07-31T13:40:38Z</time>
      </trkpt>
      <trkpt lat="42.56507" lon="1.99559">
        <ele>2034.2</ele>
        <time>2019-07-31T13:40:43Z</time>
      </trkpt>
      <trkpt lat="42.56504" lon="1.99558">
        <ele>2032.2</ele>
        <time>2019-07-31T13:40:48Z</time>
      </trkpt>
      <trkpt lat="42.565" lon="1.99557">
        <ele>2034</ele>
        <time>2019-07-31T13:40:53Z</time>
      </trkpt>
      <trkpt lat="42.56494" lon="1.99557">
        <ele>2035</ele>
        <time>2019-07-31T13:40:58Z</time>
      </trkpt>
      <trkpt lat="42.56487" lon="1.99555">
        <ele>2035.6</ele>
        <time>2019-07-31T13:41:03Z</time>
      </trkpt>
      <trkpt lat="42.56482" lon="1.99555">
        <ele>2034.2</ele>
        <time>2019-07-31T13:41:08Z</time>
      </trkpt>
      <trkpt lat="42.56478" lon="1.99555">
        <ele>2034.6</ele>
        <time>2019-07-31T13:41:13Z</time>
      </trkpt>
      <trkpt lat="42.56475" lon="1.99553">
        <ele>2034.4</ele>
        <time>2019-07-31T13:41:18Z</time>
      </trkpt>
      <trkpt lat="42.56472" lon="1.99553">
        <ele>2035.8</ele>
        <time>2019-07-31T13:41:23Z</time>
      </trkpt>
      <trkpt lat="42.56467" lon="1.99551">
        <ele>2033.2</ele>
        <time>2019-07-31T13:41:28Z</time>
      </trkpt>
      <trkpt lat="42.56464" lon="1.99547">
        <ele>2033.8</ele>
        <time>2019-07-31T13:41:33Z</time>
      </trkpt>
      <trkpt lat="42.5646" lon="1.99543">
        <ele>2036.4</ele>
        <time>2019-07-31T13:41:38Z</time>
      </trkpt>
      <trkpt lat="42.56456" lon="1.9954">
        <ele>2034.6</ele>
        <time>2019-07-31T13:41:43Z</time>
      </trkpt>
      <trkpt lat="42.56451" lon="1.99537">
        <ele>2034.8</ele>
        <time>2019-07-31T13:41:48Z</time>
      </trkpt>
      <trkpt lat="42.56449" lon="1.99537">
        <ele>2035.8</ele>
        <time>2019-07-31T13:41:53Z</time>
      </trkpt>
      <trkpt lat="42.56448" lon="1.99537">
        <ele>2034.8</ele>
        <time>2019-07-31T13:41:58Z</time>
      </trkpt>
      <trkpt lat="42.56443" lon="1.99541">
        <ele>2033.2</ele>
        <time>2019-07-31T13:42:03Z</time>
      </trkpt>
      <trkpt lat="42.5644" lon="1.99544">
        <ele>2034</ele>
        <time>2019-07-31T13:42:08Z</time>
      </trkpt>
      <trkpt lat="42.56439" lon="1.99545">
        <ele>2035.4</ele>
        <time>2019-07-31T13:42:13Z</time>
      </trkpt>
      <trkpt lat="42.56437" lon="1.99545">
        <ele>2037.8</ele>
        <time>2019-07-31T13:42:18Z</time>
      </trkpt>
      <trkpt lat="42.56433" lon="1.99546">
        <ele>2035.2</ele>
        <time>2019-07-31T13:42:23Z</time>
      </trkpt>
      <trkpt lat="42.56433" lon="1.99547">
        <ele>2036.2</ele>
        <time>2019-07-31T13:42:28Z</time>
      </trkpt>
      <trkpt lat="42.56432" lon="1.99548">
        <ele>2036.2</ele>
        <time>2019-07-31T13:42:33Z</time>
      </trkpt>
      <trkpt lat="42.5643" lon="1.99549">
        <ele>2034.8</ele>
        <time>2019-07-31T13:42:38Z</time>
      </trkpt>
      <trkpt lat="42.56427" lon="1.99551">
        <ele>2034.8</ele>
        <time>2019-07-31T13:42:43Z</time>
      </trkpt>
      <trkpt lat="42.56427" lon="1.99551">
        <ele>2036.8</ele>
        <time>2019-07-31T13:42:53Z</time>
      </trkpt>
      <trkpt lat="42.56424" lon="1.99552">
        <ele>2039.6</ele>
        <time>2019-07-31T13:42:58Z</time>
      </trkpt>
      <trkpt lat="42.56423" lon="1.99552">
        <ele>2040.4</ele>
        <time>2019-07-31T13:43:03Z</time>
      </trkpt>
      <trkpt lat="42.56422" lon="1.99553">
        <ele>2041</ele>
        <time>2019-07-31T13:43:08Z</time>
      </trkpt>
      <trkpt lat="42.5642" lon="1.99554">
        <ele>2041</ele>
        <time>2019-07-31T13:43:13Z</time>
      </trkpt>
      <trkpt lat="42.56418" lon="1.99556">
        <ele>2043.4</ele>
        <time>2019-07-31T13:43:18Z</time>
      </trkpt>
      <trkpt lat="42.56416" lon="1.99559">
        <ele>2046.2</ele>
        <time>2019-07-31T13:43:23Z</time>
      </trkpt>
      <trkpt lat="42.56414" lon="1.99562">
        <ele>2045</ele>
        <time>2019-07-31T13:43:28Z</time>
      </trkpt>
      <trkpt lat="42.56412" lon="1.99566">
        <ele>2045.8</ele>
        <time>2019-07-31T13:43:33Z</time>
      </trkpt>
      <trkpt lat="42.56412" lon="1.99568">
        <ele>2046</ele>
        <time>2019-07-31T13:43:38Z</time>
      </trkpt>
      <trkpt lat="42.56412" lon="1.99568">
        <ele>2046.2</ele>
        <time>2019-07-31T13:44:03Z</time>
      </trkpt>
      <trkpt lat="42.56412" lon="1.9957">
        <ele>2046.2</ele>
        <time>2019-07-31T13:44:23Z</time>
      </trkpt>
      <trkpt lat="42.56412" lon="1.9957">
        <ele>2046.2</ele>
        <time>2019-07-31T13:44:28Z</time>
      </trkpt>
      <trkpt lat="42.56412" lon="1.99572">
        <ele>2046.2</ele>
        <time>2019-07-31T13:44:33Z</time>
      </trkpt>
      <trkpt lat="42.56409" lon="1.99575">
        <ele>2048</ele>
        <time>2019-07-31T13:44:38Z</time>
      </trkpt>
      <trkpt lat="42.56405" lon="1.99578">
        <ele>2046</ele>
        <time>2019-07-31T13:44:43Z</time>
      </trkpt>
      <trkpt lat="42.56402" lon="1.9958">
        <ele>2046.6</ele>
        <time>2019-07-31T13:44:48Z</time>
      </trkpt>
      <trkpt lat="42.564" lon="1.99584">
        <ele>2046</ele>
        <time>2019-07-31T13:44:53Z</time>
      </trkpt>
      <trkpt lat="42.56394" lon="1.99588">
        <ele>2046.8</ele>
        <time>2019-07-31T13:44:58Z</time>
      </trkpt>
      <trkpt lat="42.56389" lon="1.99592">
        <ele>2047.6</ele>
        <time>2019-07-31T13:45:03Z</time>
      </trkpt>
      <trkpt lat="42.56385" lon="1.99595">
        <ele>2045.6</ele>
        <time>2019-07-31T13:45:08Z</time>
      </trkpt>
      <trkpt lat="42.56382" lon="1.99599">
        <ele>2046.6</ele>
        <time>2019-07-31T13:45:13Z</time>
      </trkpt>
      <trkpt lat="42.56379" lon="1.99604">
        <ele>2045.4</ele>
        <time>2019-07-31T13:45:19Z</time>
      </trkpt>
      <trkpt lat="42.56377" lon="1.99607">
        <ele>2043</ele>
        <time>2019-07-31T13:45:24Z</time>
      </trkpt>
      <trkpt lat="42.56374" lon="1.99609">
        <ele>2042</ele>
        <time>2019-07-31T13:45:29Z</time>
      </trkpt>
      <trkpt lat="42.56372" lon="1.99611">
        <ele>2040.8</ele>
        <time>2019-07-31T13:45:34Z</time>
      </trkpt>
      <trkpt lat="42.5637" lon="1.99616">
        <ele>2041.8</ele>
        <time>2019-07-31T13:45:39Z</time>
      </trkpt>
      <trkpt lat="42.56367" lon="1.9962">
        <ele>2040.4</ele>
        <time>2019-07-31T13:45:44Z</time>
      </trkpt>
      <trkpt lat="42.56365" lon="1.99624">
        <ele>2042.2</ele>
        <time>2019-07-31T13:45:49Z</time>
      </trkpt>
      <trkpt lat="42.56361" lon="1.99626">
        <ele>2039</ele>
        <time>2019-07-31T13:45:54Z</time>
      </trkpt>
      <trkpt lat="42.56357" lon="1.99628">
        <ele>2038</ele>
        <time>2019-07-31T13:45:59Z</time>
      </trkpt>
      <trkpt lat="42.56352" lon="1.9963">
        <ele>2036</ele>
        <time>2019-07-31T13:46:04Z</time>
      </trkpt>
      <trkpt lat="42.56348" lon="1.99629">
        <ele>2037.4</ele>
        <time>2019-07-31T13:46:09Z</time>
      </trkpt>
      <trkpt lat="42.56344" lon="1.9963">
        <ele>2036.6</ele>
        <time>2019-07-31T13:46:14Z</time>
      </trkpt>
      <trkpt lat="42.56341" lon="1.99632">
        <ele>2037.6</ele>
        <time>2019-07-31T13:46:19Z</time>
      </trkpt>
      <trkpt lat="42.56338" lon="1.99635">
        <ele>2039.8</ele>
        <time>2019-07-31T13:46:24Z</time>
      </trkpt>
      <trkpt lat="42.56335" lon="1.99637">
        <ele>2037.8</ele>
        <time>2019-07-31T13:46:29Z</time>
      </trkpt>
      <trkpt lat="42.56332" lon="1.9964">
        <ele>2039.4</ele>
        <time>2019-07-31T13:46:34Z</time>
      </trkpt>
      <trkpt lat="42.56329" lon="1.99642">
        <ele>2039.8</ele>
        <time>2019-07-31T13:46:39Z</time>
      </trkpt>
      <trkpt lat="42.56325" lon="1.99645">
        <ele>2037.4</ele>
        <time>2019-07-31T13:46:44Z</time>
      </trkpt>
      <trkpt lat="42.56323" lon="1.99647">
        <ele>2039</ele>
        <time>2019-07-31T13:46:49Z</time>
      </trkpt>
      <trkpt lat="42.56318" lon="1.99648">
        <ele>2040.8</ele>
        <time>2019-07-31T13:46:54Z</time>
      </trkpt>
      <trkpt lat="42.56313" lon="1.99649">
        <ele>2039</ele>
        <time>2019-07-31T13:46:59Z</time>
      </trkpt>
      <trkpt lat="42.5631" lon="1.99651">
        <ele>2040</ele>
        <time>2019-07-31T13:47:04Z</time>
      </trkpt>
      <trkpt lat="42.56308" lon="1.99652">
        <ele>2037.6</ele>
        <time>2019-07-31T13:47:09Z</time>
      </trkpt>
      <trkpt lat="42.56304" lon="1.99655">
        <ele>2041.4</ele>
        <time>2019-07-31T13:47:14Z</time>
      </trkpt>
      <trkpt lat="42.56296" lon="1.99657">
        <ele>2037.2</ele>
        <time>2019-07-31T13:47:19Z</time>
      </trkpt>
      <trkpt lat="42.56289" lon="1.99658">
        <ele>2037</ele>
        <time>2019-07-31T13:47:24Z</time>
      </trkpt>
      <trkpt lat="42.56283" lon="1.99658">
        <ele>2037.8</ele>
        <time>2019-07-31T13:47:29Z</time>
      </trkpt>
      <trkpt lat="42.56276" lon="1.99659">
        <ele>2036.6</ele>
        <time>2019-07-31T13:47:34Z</time>
      </trkpt>
      <trkpt lat="42.56272" lon="1.9966">
        <ele>2034.4</ele>
        <time>2019-07-31T13:47:39Z</time>
      </trkpt>
      <trkpt lat="42.56271" lon="1.99666">
        <ele>2034</ele>
        <time>2019-07-31T13:47:44Z</time>
      </trkpt>
      <trkpt lat="42.56269" lon="1.99669">
        <ele>2035.6</ele>
        <time>2019-07-31T13:47:49Z</time>
      </trkpt>
      <trkpt lat="42.56268" lon="1.99671">
        <ele>2034.6</ele>
        <time>2019-07-31T13:47:54Z</time>
      </trkpt>
      <trkpt lat="42.56265" lon="1.99675">
        <ele>2032.2</ele>
        <time>2019-07-31T13:48:04Z</time>
      </trkpt>
      <trkpt lat="42.56259" lon="1.99675">
        <ele>2027.8</ele>
        <time>2019-07-31T13:48:09Z</time>
      </trkpt>
      <trkpt lat="42.56253" lon="1.99677">
        <ele>2027</ele>
        <time>2019-07-31T13:48:14Z</time>
      </trkpt>
      <trkpt lat="42.5625" lon="1.99681">
        <ele>2027.8</ele>
        <time>2019-07-31T13:48:19Z</time>
      </trkpt>
      <trkpt lat="42.56247" lon="1.99686">
        <ele>2028.6</ele>
        <time>2019-07-31T13:48:24Z</time>
      </trkpt>
      <trkpt lat="42.56245" lon="1.99688">
        <ele>2030.2</ele>
        <time>2019-07-31T13:48:29Z</time>
      </trkpt>
      <trkpt lat="42.56243" lon="1.99688">
        <ele>2029.2</ele>
        <time>2019-07-31T13:48:34Z</time>
      </trkpt>
      <trkpt lat="42.56241" lon="1.99688">
        <ele>2029.4</ele>
        <time>2019-07-31T13:48:39Z</time>
      </trkpt>
      <trkpt lat="42.56239" lon="1.99689">
        <ele>2030</ele>
        <time>2019-07-31T13:48:44Z</time>
      </trkpt>
      <trkpt lat="42.56236" lon="1.99691">
        <ele>2031.4</ele>
        <time>2019-07-31T13:48:49Z</time>
      </trkpt>
      <trkpt lat="42.56233" lon="1.99691">
        <ele>2029.2</ele>
        <time>2019-07-31T13:48:54Z</time>
      </trkpt>
      <trkpt lat="42.56229" lon="1.99692">
        <ele>2029.2</ele>
        <time>2019-07-31T13:48:59Z</time>
      </trkpt>
      <trkpt lat="42.56225" lon="1.99691">
        <ele>2033</ele>
        <time>2019-07-31T13:49:04Z</time>
      </trkpt>
      <trkpt lat="42.56219" lon="1.99691">
        <ele>2030</ele>
        <time>2019-07-31T13:49:09Z</time>
      </trkpt>
      <trkpt lat="42.56215" lon="1.99693">
        <ele>2030.8</ele>
        <time>2019-07-31T13:49:14Z</time>
      </trkpt>
      <trkpt lat="42.56213" lon="1.99695">
        <ele>2034</ele>
        <time>2019-07-31T13:49:19Z</time>
      </trkpt>
      <trkpt lat="42.56213" lon="1.99696">
        <ele>2036.6</ele>
        <time>2019-07-31T13:49:24Z</time>
      </trkpt>
      <trkpt lat="42.56212" lon="1.99698">
        <ele>2035.2</ele>
        <time>2019-07-31T13:49:29Z</time>
      </trkpt>
      <trkpt lat="42.56208" lon="1.99701">
        <ele>2035.6</ele>
        <time>2019-07-31T13:49:34Z</time>
      </trkpt>
      <trkpt lat="42.56205" lon="1.99701">
        <ele>2036.4</ele>
        <time>2019-07-31T13:49:39Z</time>
      </trkpt>
      <trkpt lat="42.56205" lon="1.99701">
        <ele>2037.6</ele>
        <time>2019-07-31T13:49:44Z</time>
      </trkpt>
      <trkpt lat="42.56202" lon="1.99701">
        <ele>2036</ele>
        <time>2019-07-31T13:49:49Z</time>
      </trkpt>
      <trkpt lat="42.56201" lon="1.99701">
        <ele>2035.8</ele>
        <time>2019-07-31T13:49:54Z</time>
      </trkpt>
      <trkpt lat="42.562" lon="1.99701">
        <ele>2035.4</ele>
        <time>2019-07-31T13:49:59Z</time>
      </trkpt>
      <trkpt lat="42.56196" lon="1.99701">
        <ele>2033.6</ele>
        <time>2019-07-31T13:50:04Z</time>
      </trkpt>
      <trkpt lat="42.56193" lon="1.99702">
        <ele>2035</ele>
        <time>2019-07-31T13:50:09Z</time>
      </trkpt>
      <trkpt lat="42.5619" lon="1.99704">
        <ele>2033</ele>
        <time>2019-07-31T13:50:14Z</time>
      </trkpt>
      <trkpt lat="42.56186" lon="1.99707">
        <ele>2032.8</ele>
        <time>2019-07-31T13:50:19Z</time>
      </trkpt>
      <trkpt lat="42.56183" lon="1.99709">
        <ele>2032.4</ele>
        <time>2019-07-31T13:50:24Z</time>
      </trkpt>
      <trkpt lat="42.56182" lon="1.99713">
        <ele>2033.6</ele>
        <time>2019-07-31T13:50:29Z</time>
      </trkpt>
      <trkpt lat="42.56179" lon="1.99716">
        <ele>2034.4</ele>
        <time>2019-07-31T13:50:34Z</time>
      </trkpt>
      <trkpt lat="42.56176" lon="1.9972">
        <ele>2031.4</ele>
        <time>2019-07-31T13:50:39Z</time>
      </trkpt>
      <trkpt lat="42.56172" lon="1.99724">
        <ele>2034.6</ele>
        <time>2019-07-31T13:50:44Z</time>
      </trkpt>
      <trkpt lat="42.56168" lon="1.99727">
        <ele>2035.4</ele>
        <time>2019-07-31T13:50:49Z</time>
      </trkpt>
      <trkpt lat="42.56166" lon="1.9973">
        <ele>2033</ele>
        <time>2019-07-31T13:50:54Z</time>
      </trkpt>
      <trkpt lat="42.56162" lon="1.99731">
        <ele>2034.4</ele>
        <time>2019-07-31T13:50:59Z</time>
      </trkpt>
      <trkpt lat="42.56157" lon="1.99733">
        <ele>2035.8</ele>
        <time>2019-07-31T13:51:04Z</time>
      </trkpt>
      <trkpt lat="42.56156" lon="1.99734">
        <ele>2037</ele>
        <time>2019-07-31T13:51:09Z</time>
      </trkpt>
      <trkpt lat="42.56153" lon="1.99735">
        <ele>2038</ele>
        <time>2019-07-31T13:51:14Z</time>
      </trkpt>
      <trkpt lat="42.56146" lon="1.99736">
        <ele>2037</ele>
        <time>2019-07-31T13:51:19Z</time>
      </trkpt>
      <trkpt lat="42.56141" lon="1.99741">
        <ele>2035.4</ele>
        <time>2019-07-31T13:51:24Z</time>
      </trkpt>
      <trkpt lat="42.56135" lon="1.99744">
        <ele>2038.6</ele>
        <time>2019-07-31T13:51:29Z</time>
      </trkpt>
      <trkpt lat="42.5613" lon="1.99748">
        <ele>2033.2</ele>
        <time>2019-07-31T13:51:34Z</time>
      </trkpt>
      <trkpt lat="42.56124" lon="1.99752">
        <ele>2036.2</ele>
        <time>2019-07-31T13:51:40Z</time>
      </trkpt>
      <trkpt lat="42.56118" lon="1.99755">
        <ele>2035.8</ele>
        <time>2019-07-31T13:51:45Z</time>
      </trkpt>
      <trkpt lat="42.56114" lon="1.99757">
        <ele>2036.4</ele>
        <time>2019-07-31T13:51:50Z</time>
      </trkpt>
      <trkpt lat="42.5611" lon="1.99756">
        <ele>2034.4</ele>
        <time>2019-07-31T13:51:55Z</time>
      </trkpt>
      <trkpt lat="42.56105" lon="1.9976">
        <ele>2035.4</ele>
        <time>2019-07-31T13:52:00Z</time>
      </trkpt>
      <trkpt lat="42.561" lon="1.99762">
        <ele>2035.8</ele>
        <time>2019-07-31T13:52:05Z</time>
      </trkpt>
      <trkpt lat="42.56096" lon="1.9976">
        <ele>2033.8</ele>
        <time>2019-07-31T13:52:10Z</time>
      </trkpt>
      <trkpt lat="42.56092" lon="1.99759">
        <ele>2035</ele>
        <time>2019-07-31T13:52:15Z</time>
      </trkpt>
      <trkpt lat="42.56088" lon="1.9976">
        <ele>2031.6</ele>
        <time>2019-07-31T13:52:20Z</time>
      </trkpt>
      <trkpt lat="42.56085" lon="1.99763">
        <ele>2035</ele>
        <time>2019-07-31T13:52:25Z</time>
      </trkpt>
      <trkpt lat="42.56083" lon="1.99766">
        <ele>2030.4</ele>
        <time>2019-07-31T13:52:30Z</time>
      </trkpt>
      <trkpt lat="42.56079" lon="1.99769">
        <ele>2031.2</ele>
        <time>2019-07-31T13:52:35Z</time>
      </trkpt>
      <trkpt lat="42.56074" lon="1.9977">
        <ele>2030.4</ele>
        <time>2019-07-31T13:52:40Z</time>
      </trkpt>
      <trkpt lat="42.5607" lon="1.99775">
        <ele>2031.2</ele>
        <time>2019-07-31T13:52:45Z</time>
      </trkpt>
      <trkpt lat="42.56067" lon="1.99781">
        <ele>2029.2</ele>
        <time>2019-07-31T13:52:50Z</time>
      </trkpt>
      <trkpt lat="42.56063" lon="1.99783">
        <ele>2029.8</ele>
        <time>2019-07-31T13:52:55Z</time>
      </trkpt>
      <trkpt lat="42.5606" lon="1.99787">
        <ele>2030.4</ele>
        <time>2019-07-31T13:53:00Z</time>
      </trkpt>
      <trkpt lat="42.56055" lon="1.99792">
        <ele>2029.8</ele>
        <time>2019-07-31T13:53:05Z</time>
      </trkpt>
      <trkpt lat="42.56051" lon="1.99796">
        <ele>2032.2</ele>
        <time>2019-07-31T13:53:10Z</time>
      </trkpt>
      <trkpt lat="42.56046" lon="1.99799">
        <ele>2031.2</ele>
        <time>2019-07-31T13:53:15Z</time>
      </trkpt>
      <trkpt lat="42.56041" lon="1.99801">
        <ele>2029.6</ele>
        <time>2019-07-31T13:53:20Z</time>
      </trkpt>
      <trkpt lat="42.56037" lon="1.99806">
        <ele>2030.2</ele>
        <time>2019-07-31T13:53:25Z</time>
      </trkpt>
      <trkpt lat="42.56034" lon="1.99812">
        <ele>2030.2</ele>
        <time>2019-07-31T13:53:30Z</time>
      </trkpt>
      <trkpt lat="42.56029" lon="1.99818">
        <ele>2029</ele>
        <time>2019-07-31T13:53:35Z</time>
      </trkpt>
      <trkpt lat="42.56025" lon="1.99824">
        <ele>2026.8</ele>
        <time>2019-07-31T13:53:40Z</time>
      </trkpt>
      <trkpt lat="42.56022" lon="1.99829">
        <ele>2028.6</ele>
        <time>2019-07-31T13:53:45Z</time>
      </trkpt>
      <trkpt lat="42.5602" lon="1.99834">
        <ele>2028.6</ele>
        <time>2019-07-31T13:53:50Z</time>
      </trkpt>
      <trkpt lat="42.56018" lon="1.99836">
        <ele>2028.8</ele>
        <time>2019-07-31T13:53:55Z</time>
      </trkpt>
      <trkpt lat="42.56015" lon="1.99842">
        <ele>2027.4</ele>
        <time>2019-07-31T13:54:00Z</time>
      </trkpt>
      <trkpt lat="42.5601" lon="1.99845">
        <ele>2028.4</ele>
        <time>2019-07-31T13:54:05Z</time>
      </trkpt>
      <trkpt lat="42.56005" lon="1.99848">
        <ele>2025</ele>
        <time>2019-07-31T13:54:10Z</time>
      </trkpt>
      <trkpt lat="42.56" lon="1.99851">
        <ele>2026</ele>
        <time>2019-07-31T13:54:15Z</time>
      </trkpt>
      <trkpt lat="42.55995" lon="1.99855">
        <ele>2024.8</ele>
        <time>2019-07-31T13:54:20Z</time>
      </trkpt>
      <trkpt lat="42.55989" lon="1.99857">
        <ele>2026.2</ele>
        <time>2019-07-31T13:54:25Z</time>
      </trkpt>
      <trkpt lat="42.55984" lon="1.9986">
        <ele>2026</ele>
        <time>2019-07-31T13:54:30Z</time>
      </trkpt>
      <trkpt lat="42.55979" lon="1.99862">
        <ele>2025.4</ele>
        <time>2019-07-31T13:54:35Z</time>
      </trkpt>
      <trkpt lat="42.55974" lon="1.99867">
        <ele>2026.6</ele>
        <time>2019-07-31T13:54:40Z</time>
      </trkpt>
      <trkpt lat="42.5597" lon="1.99872">
        <ele>2022.2</ele>
        <time>2019-07-31T13:54:45Z</time>
      </trkpt>
      <trkpt lat="42.5597" lon="1.99879">
        <ele>2023.6</ele>
        <time>2019-07-31T13:54:50Z</time>
      </trkpt>
      <trkpt lat="42.55971" lon="1.99886">
        <ele>2023.8</ele>
        <time>2019-07-31T13:54:55Z</time>
      </trkpt>
      <trkpt lat="42.55972" lon="1.99893">
        <ele>2022</ele>
        <time>2019-07-31T13:55:00Z</time>
      </trkpt>
      <trkpt lat="42.55973" lon="1.99898">
        <ele>2023.4</ele>
        <time>2019-07-31T13:55:05Z</time>
      </trkpt>
      <trkpt lat="42.55972" lon="1.99902">
        <ele>2021.6</ele>
        <time>2019-07-31T13:55:10Z</time>
      </trkpt>
      <trkpt lat="42.5597" lon="1.99906">
        <ele>2022.6</ele>
        <time>2019-07-31T13:55:15Z</time>
      </trkpt>
      <trkpt lat="42.55969" lon="1.99913">
        <ele>2021.2</ele>
        <time>2019-07-31T13:55:20Z</time>
      </trkpt>
      <trkpt lat="42.55966" lon="1.99918">
        <ele>2020.4</ele>
        <time>2019-07-31T13:55:25Z</time>
      </trkpt>
      <trkpt lat="42.55964" lon="1.99922">
        <ele>2020.8</ele>
        <time>2019-07-31T13:55:30Z</time>
      </trkpt>
      <trkpt lat="42.55964" lon="1.99923">
        <ele>2020.4</ele>
        <time>2019-07-31T13:55:55Z</time>
      </trkpt>
      <trkpt lat="42.55962" lon="1.99927">
        <ele>2021</ele>
        <time>2019-07-31T13:56:00Z</time>
      </trkpt>
      <trkpt lat="42.55961" lon="1.99933">
        <ele>2019</ele>
        <time>2019-07-31T13:56:05Z</time>
      </trkpt>
      <trkpt lat="42.55961" lon="1.99938">
        <ele>2016.2</ele>
        <time>2019-07-31T13:56:10Z</time>
      </trkpt>
      <trkpt lat="42.5596" lon="1.99942">
        <ele>2018.2</ele>
        <time>2019-07-31T13:56:15Z</time>
      </trkpt>
      <trkpt lat="42.5596" lon="1.99944">
        <ele>2018.6</ele>
        <time>2019-07-31T13:56:20Z</time>
      </trkpt>
      <trkpt lat="42.5596" lon="1.99946">
        <ele>2018.4</ele>
        <time>2019-07-31T13:56:25Z</time>
      </trkpt>
      <trkpt lat="42.5596" lon="1.99947">
        <ele>2018.6</ele>
        <time>2019-07-31T13:56:30Z</time>
      </trkpt>
      <trkpt lat="42.55959" lon="1.99948">
        <ele>2019.4</ele>
        <time>2019-07-31T13:56:50Z</time>
      </trkpt>
      <trkpt lat="42.55959" lon="1.99948">
        <ele>2019.4</ele>
        <time>2019-07-31T13:57:00Z</time>
      </trkpt>
      <trkpt lat="42.55957" lon="1.99948">
        <ele>2019.4</ele>
        <time>2019-07-31T13:57:05Z</time>
      </trkpt>
      <trkpt lat="42.55953" lon="1.99948">
        <ele>2019</ele>
        <time>2019-07-31T13:57:10Z</time>
      </trkpt>
      <trkpt lat="42.55951" lon="1.99949">
        <ele>2018.8</ele>
        <time>2019-07-31T13:57:15Z</time>
      </trkpt>
      <trkpt lat="42.55951" lon="1.9995">
        <ele>2018.4</ele>
        <time>2019-07-31T13:57:25Z</time>
      </trkpt>
      <trkpt lat="42.5595" lon="1.99951">
        <ele>2017.8</ele>
        <time>2019-07-31T13:57:35Z</time>
      </trkpt>
      <trkpt lat="42.55949" lon="1.99951">
        <ele>2017.4</ele>
        <time>2019-07-31T13:58:00Z</time>
      </trkpt>
      <trkpt lat="42.55949" lon="1.99951">
        <ele>2017.8</ele>
        <time>2019-07-31T13:58:11Z</time>
      </trkpt>
      <trkpt lat="42.5595" lon="1.99952">
        <ele>2018.2</ele>
        <time>2019-07-31T13:58:16Z</time>
      </trkpt>
      <trkpt lat="42.55953" lon="1.99957">
        <ele>2016.8</ele>
        <time>2019-07-31T13:58:21Z</time>
      </trkpt>
      <trkpt lat="42.55954" lon="1.99959">
        <ele>2018.2</ele>
        <time>2019-07-31T13:58:26Z</time>
      </trkpt>
      <trkpt lat="42.55955" lon="1.9996">
        <ele>2017.2</ele>
        <time>2019-07-31T13:58:31Z</time>
      </trkpt>
      <trkpt lat="42.55955" lon="1.9996">
        <ele>2017.6</ele>
        <time>2019-07-31T14:01:41Z</time>
      </trkpt>
      <trkpt lat="42.55956" lon="1.9996">
        <ele>2017.2</ele>
        <time>2019-07-31T14:02:11Z</time>
      </trkpt>
      <trkpt lat="42.55959" lon="1.9996">
        <ele>2014.4</ele>
        <time>2019-07-31T14:02:16Z</time>
      </trkpt>
      <trkpt lat="42.55965" lon="1.99961">
        <ele>2017.2</ele>
        <time>2019-07-31T14:02:21Z</time>
      </trkpt>
      <trkpt lat="42.55971" lon="1.99962">
        <ele>2014.6</ele>
        <time>2019-07-31T14:02:26Z</time>
      </trkpt>
      <trkpt lat="42.55977" lon="1.99964">
        <ele>2015.2</ele>
        <time>2019-07-31T14:02:31Z</time>
      </trkpt>
      <trkpt lat="42.55978" lon="1.99972">
        <ele>2010.2</ele>
        <time>2019-07-31T14:02:36Z</time>
      </trkpt>
      <trkpt lat="42.55979" lon="1.99979">
        <ele>2011.2</ele>
        <time>2019-07-31T14:02:41Z</time>
      </trkpt>
      <trkpt lat="42.5598" lon="1.99986">
        <ele>2009</ele>
        <time>2019-07-31T14:02:46Z</time>
      </trkpt>
      <trkpt lat="42.55981" lon="1.99993">
        <ele>2010</ele>
        <time>2019-07-31T14:02:51Z</time>
      </trkpt>
      <trkpt lat="42.55982" lon="2.00001">
        <ele>2010.6</ele>
        <time>2019-07-31T14:02:56Z</time>
      </trkpt>
      <trkpt lat="42.55984" lon="2.00007">
        <ele>2007.6</ele>
        <time>2019-07-31T14:03:01Z</time>
      </trkpt>
      <trkpt lat="42.55984" lon="2.00015">
        <ele>2009.2</ele>
        <time>2019-07-31T14:03:06Z</time>
      </trkpt>
      <trkpt lat="42.55985" lon="2.00021">
        <ele>2008.2</ele>
        <time>2019-07-31T14:03:11Z</time>
      </trkpt>
      <trkpt lat="42.55986" lon="2.00029">
        <ele>2011</ele>
        <time>2019-07-31T14:03:16Z</time>
      </trkpt>
      <trkpt lat="42.55987" lon="2.00036">
        <ele>2014.4</ele>
        <time>2019-07-31T14:03:21Z</time>
      </trkpt>
      <trkpt lat="42.55988" lon="2.00043">
        <ele>2011.2</ele>
        <time>2019-07-31T14:03:26Z</time>
      </trkpt>
      <trkpt lat="42.5599" lon="2.0005">
        <ele>2013</ele>
        <time>2019-07-31T14:03:31Z</time>
      </trkpt>
      <trkpt lat="42.55991" lon="2.00057">
        <ele>2013.8</ele>
        <time>2019-07-31T14:03:36Z</time>
      </trkpt>
      <trkpt lat="42.55992" lon="2.00066">
        <ele>2012.8</ele>
        <time>2019-07-31T14:03:42Z</time>
      </trkpt>
      <trkpt lat="42.55994" lon="2.00073">
        <ele>2011.2</ele>
        <time>2019-07-31T14:03:47Z</time>
      </trkpt>
      <trkpt lat="42.55995" lon="2.00081">
        <ele>2010.8</ele>
        <time>2019-07-31T14:03:52Z</time>
      </trkpt>
      <trkpt lat="42.55996" lon="2.00089">
        <ele>2010.8</ele>
        <time>2019-07-31T14:03:57Z</time>
      </trkpt>
      <trkpt lat="42.55997" lon="2.00096">
        <ele>2011.4</ele>
        <time>2019-07-31T14:04:02Z</time>
      </trkpt>
      <trkpt lat="42.55999" lon="2.00103">
        <ele>2010.2</ele>
        <time>2019-07-31T14:04:07Z</time>
      </trkpt>
      <trkpt lat="42.56" lon="2.0011">
        <ele>2011.4</ele>
        <time>2019-07-31T14:04:12Z</time>
      </trkpt>
      <trkpt lat="42.56001" lon="2.00116">
        <ele>2011.4</ele>
        <time>2019-07-31T14:04:17Z</time>
      </trkpt>
      <trkpt lat="42.56002" lon="2.00123">
        <ele>2010.8</ele>
        <time>2019-07-31T14:04:22Z</time>
      </trkpt>
      <trkpt lat="42.56003" lon="2.0013">
        <ele>2012</ele>
        <time>2019-07-31T14:04:27Z</time>
      </trkpt>
      <trkpt lat="42.56003" lon="2.00137">
        <ele>2011.6</ele>
        <time>2019-07-31T14:04:32Z</time>
      </trkpt>
      <trkpt lat="42.56005" lon="2.00144">
        <ele>2012</ele>
        <time>2019-07-31T14:04:37Z</time>
      </trkpt>
      <trkpt lat="42.56006" lon="2.00151">
        <ele>2010.6</ele>
        <time>2019-07-31T14:04:42Z</time>
      </trkpt>
      <trkpt lat="42.56007" lon="2.00158">
        <ele>2011</ele>
        <time>2019-07-31T14:04:47Z</time>
      </trkpt>
      <trkpt lat="42.56009" lon="2.00166">
        <ele>2011</ele>
        <time>2019-07-31T14:04:52Z</time>
      </trkpt>
      <trkpt lat="42.5601" lon="2.00173">
        <ele>2013.2</ele>
        <time>2019-07-31T14:04:57Z</time>
      </trkpt>
      <trkpt lat="42.56011" lon="2.00181">
        <ele>2013.4</ele>
        <time>2019-07-31T14:05:02Z</time>
      </trkpt>
      <trkpt lat="42.56013" lon="2.00189">
        <ele>2011.2</ele>
        <time>2019-07-31T14:05:07Z</time>
      </trkpt>
      <trkpt lat="42.56015" lon="2.00198">
        <ele>2012.4</ele>
        <time>2019-07-31T14:05:12Z</time>
      </trkpt>
      <trkpt lat="42.56016" lon="2.00207">
        <ele>2009.8</ele>
        <time>2019-07-31T14:05:17Z</time>
      </trkpt>
      <trkpt lat="42.56018" lon="2.00216">
        <ele>2011.8</ele>
        <time>2019-07-31T14:05:22Z</time>
      </trkpt>
      <trkpt lat="42.5602" lon="2.00226">
        <ele>2013.4</ele>
        <time>2019-07-31T14:05:27Z</time>
      </trkpt>
      <trkpt lat="42.56022" lon="2.00235">
        <ele>2014.2</ele>
        <time>2019-07-31T14:05:32Z</time>
      </trkpt>
      <trkpt lat="42.56023" lon="2.00244">
        <ele>2012.8</ele>
        <time>2019-07-31T14:05:37Z</time>
      </trkpt>
      <trkpt lat="42.56025" lon="2.00253">
        <ele>2012.2</ele>
        <time>2019-07-31T14:05:42Z</time>
      </trkpt>
      <trkpt lat="42.56027" lon="2.00262">
        <ele>2010.8</ele>
        <time>2019-07-31T14:05:47Z</time>
      </trkpt>
      <trkpt lat="42.56028" lon="2.00271">
        <ele>2011.8</ele>
        <time>2019-07-31T14:05:52Z</time>
      </trkpt>
      <trkpt lat="42.56029" lon="2.0028">
        <ele>2014</ele>
        <time>2019-07-31T14:05:57Z</time>
      </trkpt>
      <trkpt lat="42.56028" lon="2.00289">
        <ele>2012.6</ele>
        <time>2019-07-31T14:06:02Z</time>
      </trkpt>
      <trkpt lat="42.56027" lon="2.00298">
        <ele>2013.8</ele>
        <time>2019-07-31T14:06:07Z</time>
      </trkpt>
      <trkpt lat="42.56026" lon="2.00307">
        <ele>2014.4</ele>
        <time>2019-07-31T14:06:12Z</time>
      </trkpt>
      <trkpt lat="42.56024" lon="2.00315">
        <ele>2013.2</ele>
        <time>2019-07-31T14:06:17Z</time>
      </trkpt>
      <trkpt lat="42.56022" lon="2.00323">
        <ele>2015.4</ele>
        <time>2019-07-31T14:06:22Z</time>
      </trkpt>
      <trkpt lat="42.56019" lon="2.00331">
        <ele>2017.8</ele>
        <time>2019-07-31T14:06:27Z</time>
      </trkpt>
      <trkpt lat="42.56016" lon="2.00338">
        <ele>2016.8</ele>
        <time>2019-07-31T14:06:32Z</time>
      </trkpt>
      <trkpt lat="42.56013" lon="2.00346">
        <ele>2015</ele>
        <time>2019-07-31T14:06:37Z</time>
      </trkpt>
      <trkpt lat="42.56011" lon="2.00352">
        <ele>2015.4</ele>
        <time>2019-07-31T14:06:42Z</time>
      </trkpt>
      <trkpt lat="42.56011" lon="2.00354">
        <ele>2018.2</ele>
        <time>2019-07-31T14:06:47Z</time>
      </trkpt>
      <trkpt lat="42.5601" lon="2.00356">
        <ele>2017</ele>
        <time>2019-07-31T14:06:57Z</time>
      </trkpt>
      <trkpt lat="42.56005" lon="2.00364">
        <ele>2017.8</ele>
        <time>2019-07-31T14:07:32Z</time>
      </trkpt>
      <trkpt lat="42.56002" lon="2.00369">
        <ele>2016.6</ele>
        <time>2019-07-31T14:07:37Z</time>
      </trkpt>
      <trkpt lat="42.55999" lon="2.00375">
        <ele>2019.4</ele>
        <time>2019-07-31T14:07:42Z</time>
      </trkpt>
      <trkpt lat="42.55996" lon="2.00377">
        <ele>2016.8</ele>
        <time>2019-07-31T14:07:47Z</time>
      </trkpt>
      <trkpt lat="42.55996" lon="2.00377">
        <ele>2016.2</ele>
        <time>2019-07-31T14:07:52Z</time>
      </trkpt>
      <trkpt lat="42.55992" lon="2.00379">
        <ele>2015.8</ele>
        <time>2019-07-31T14:12:08Z</time>
      </trkpt>
      <trkpt lat="42.55986" lon="2.00379">
        <ele>2014.8</ele>
        <time>2019-07-31T14:12:13Z</time>
      </trkpt>
      <trkpt lat="42.5598" lon="2.00378">
        <ele>2015.2</ele>
        <time>2019-07-31T14:12:18Z</time>
      </trkpt>
      <trkpt lat="42.55975" lon="2.00377">
        <ele>2014.4</ele>
        <time>2019-07-31T14:12:23Z</time>
      </trkpt>
      <trkpt lat="42.5597" lon="2.00375">
        <ele>2013.8</ele>
        <time>2019-07-31T14:12:28Z</time>
      </trkpt>
      <trkpt lat="42.55966" lon="2.00371">
        <ele>2012.8</ele>
        <time>2019-07-31T14:12:33Z</time>
      </trkpt>
      <trkpt lat="42.55961" lon="2.00367">
        <ele>2012.8</ele>
        <time>2019-07-31T14:12:38Z</time>
      </trkpt>
      <trkpt lat="42.55957" lon="2.00362">
        <ele>2012</ele>
        <time>2019-07-31T14:12:43Z</time>
      </trkpt>
      <trkpt lat="42.55953" lon="2.00357">
        <ele>2013.4</ele>
        <time>2019-07-31T14:12:48Z</time>
      </trkpt>
      <trkpt lat="42.5595" lon="2.00352">
        <ele>2013.2</ele>
        <time>2019-07-31T14:12:53Z</time>
      </trkpt>
      <trkpt lat="42.55946" lon="2.00347">
        <ele>2013.2</ele>
        <time>2019-07-31T14:12:58Z</time>
      </trkpt>
      <trkpt lat="42.55943" lon="2.00341">
        <ele>2013.2</ele>
        <time>2019-07-31T14:13:03Z</time>
      </trkpt>
      <trkpt lat="42.5594" lon="2.00336">
        <ele>2011</ele>
        <time>2019-07-31T14:13:08Z</time>
      </trkpt>
      <trkpt lat="42.55936" lon="2.00331">
        <ele>2011.8</ele>
        <time>2019-07-31T14:13:13Z</time>
      </trkpt>
      <trkpt lat="42.55932" lon="2.00326">
        <ele>2011.6</ele>
        <time>2019-07-31T14:13:18Z</time>
      </trkpt>
      <trkpt lat="42.55929" lon="2.00321">
        <ele>2011.8</ele>
        <time>2019-07-31T14:13:23Z</time>
      </trkpt>
      <trkpt lat="42.55927" lon="2.00316">
        <ele>2010.8</ele>
        <time>2019-07-31T14:13:28Z</time>
      </trkpt>
      <trkpt lat="42.55924" lon="2.00311">
        <ele>2012.4</ele>
        <time>2019-07-31T14:13:33Z</time>
      </trkpt>
      <trkpt lat="42.55921" lon="2.00306">
        <ele>2013.4</ele>
        <time>2019-07-31T14:13:38Z</time>
      </trkpt>
      <trkpt lat="42.55919" lon="2.00302">
        <ele>2010.6</ele>
        <time>2019-07-31T14:23:45Z</time>
      </trkpt>
    </trkseg>
  </trk>
</gpx>